[[{"header":{"parameterUnit":"m.s-1","parameterCategory":1,"la1":31.0,"la2":29.5877,"lo1":-88.7671,"lo2":-86.6584,"dy":0.0162,"dx":0.0185,"nx":115,"ny":88,"refTime":"2026-04-14T12:00:00:Z","depth":0,"parameterNumber":2,"parameterNumberName":"U-component_of_WINDS"},"data":[0.0,0.0,0.0,0.0,0.0,0.0,0.0,0.0,0.0,0.0,0.0,0.0,0.0,0.0,0.0,0.0,0.0,0.0,0.0,0.0,0.0,0.0,0.0,0.0,0.0,0.0,0.0,0.0,0.0,0.0,0.0,0.0,0.0,0.0,0.0,0.0,0.0,0.0,0.0,0.0,0.0,0.0,0.0,0.0,0.0,0.0,0.0,0.0,0.0,0.0,0.0,0.0,0.0,0.0,0.0,0.0,0.0,0.0,0.0,0.0,0.0,0.0,0.0,0.0,0.0,0.0,0.0,0.0,0.0,0.0,0.0,0.0,0.0,0.0,0.0,0.0,0.0,0.0,0.0,0.0,0.0,0.0,0.0,0.0,0.0,0.0,0.0,0.0,0.0,0.0,0.0,0.0,0.0,0.0,0.0,0.0,0.0,0.0,0.0,0.0,0.0,0.0,0.0,0.0,0.0,0.0,0.0,0.0,0.0,0.0,0.0,0.0,0.0,0.0,0.0,0.0,0.0,0.0,0.0,0.0,0.0,0.0,0.0,0.0,0.0,0.0,0.0,0.0,0.0,0.0,0.0,0.0,0.0,0.0,0.0,0.0,0.0,0.0,0.0,0.0,0.0,0.0,0.0,0.0,0.0,0.0,0.0,0.0,0.0,0.0,0.0,0.0,0.0,0.0,0.0,0.0,0.0,0.0,0.0,0.0,0.0,0.0,0.0,0.0,0.0,0.0,0.0,0.0,0.0,0.0,0.0,0.0,0.0,0.0,0.0,0.0,0.0,0.0,0.0,0.0,0.0,0.0,0.0,0.0,0.0,0.0,0.0,0.0,0.0,0.0,0.0,0.0,0.0,0.0,0.0,0.0,0.0,0.0,0.0,0.0,0.0,0.0,0.0,0.0,0.0,0.0,0.0,0.0,0.0,0.0,0.0,0.0,0.0,0.0,0.0,0.0,0.0,0.0,0.0,0.0,0.0,0.0,0.0,0.0,0.0,0.0,0.0,0.0,0.0,0.0,0.0,0.0,0.0,0.0,0.0,0.0,0.0,0.0,0.0,0.0,0.0,0.0,0.0,0.0,0.0,0.0,0.0,0.0,0.0,0.0,0.0,0.0,0.0,0.0,0.0,0.0,0.0,0.0,0.0,0.0,0.0,0.0,0.0,0.0,0.0,0.0,0.0,0.0,0.0,0.0,0.0,0.0,0.0,0.0,0.0,0.0,0.0,0.0,0.0,0.0,0.0,0.0,0.0,0.0,0.0,0.0,0.0,0.0,0.0,0.0,0.0,0.0,0.0,0.0,0.0,0.0,0.0,0.0,0.0,0.0,0.0,0.0,0.0,0.0,0.0,0.0,0.0,0.0,0.0,0.0,0.0,0.0,0.0,0.0,0.0,0.0,0.0,0.0,0.0,0.0,0.0,0.0,0.0,0.0,0.0,0.0,0.0,0.0,0.0,0.0,0.0,0.0,0.0,0.0,0.0,0.0,0.0,0.0,0.0,0.0,0.0,0.0,0.0,0.0,0.0,0.0,0.0,0.0,0.0,0.0,0.0,0.0,0.0,0.0,0.0,0.0,0.0,0.0,0.0,0.0,0.0,0.0,0.0,0.0,0.0,0.0,0.0,0.0,0.0,0.0,0.0,0.0,0.0,0.0,0.0,0.0,0.0,0.0,0.0,0.0,0.0,0.0,0.0,0.0,0.0,0.0,0.0,0.0,0.0,0.0,0.0,0.0,0.0,0.0,0.0,0.0,0.0,0.0,0.0,0.0,0.0,0.0,0.0,0.0,0.0,0.0,0.0,0.0,0.0,0.0,0.0,0.0,0.0,0.0,0.0,0.0,0.0,0.0,0.0,0.0,0.0,0.0,0.0,0.0,0.0,0.0,0.0,0.0,0.0,0.0,0.0,0.0,0.0,0.0,0.0,0.0,0.0,0.0,0.0,0.0,0.0,0.0,0.0,0.0,0.0,0.0,0.0,0.0,0.0,0.0,0.0,0.0,0.0,0.0,0.0,0.0,0.0,0.0,0.0,0.0,0.0,0.0,0.0,0.0,0.0,0.0,0.0,0.0,0.0,0.0,0.0,0.0,0.0,0.0,0.0,0.0,0.0,0.0,0.0,0.0,0.0,0.0,0.0,0.0,0.0,0.0,0.0,0.0,0.0,0.0,0.0,0.0,0.0,0.0,0.0,0.0,0.0,0.0,0.0,0.0,0.0,0.0,0.0,0.0,0.0,0.0,0.0,0.0,0.0,0.0,0.0,0.0,0.0,0.0,0.0,0.0,0.0,0.0,0.0,0.0,0.0,0.0,0.0,0.0,0.0,0.0,0.0,0.0,0.0,0.0,0.0,0.0,0.0,0.0,0.0,0.0,0.0,0.0,0.0,0.0,0.0,0.0,0.0,0.0,0.0,0.0,0.0,0.0,0.0,0.0,0.0,0.0,0.0,0.0,0.0,0.0,0.0,0.0,0.0,0.0,0.0,0.0,0.0,0.0,0.0,0.0,0.0,0.0,0.0,0.0,0.0,0.0,0.0,0.0,0.0,0.0,0.0,0.0,0.0,0.0,0.0,0.0,0.0,0.0,0.0,0.0,0.0,0.0,0.0,0.0,0.0,0.0,0.0,0.0,0.0,0.0,0.0,0.0,0.0,0.0,0.0,0.0,0.0,0.0,0.0,0.0,0.0,0.0,0.0,0.0,0.0,0.0,0.0,0.0,0.0,0.0,0.0,0.0,0.0,0.0,0.0,0.0,0.0,0.0,0.0,0.0,0.0,0.0,0.0,0.0,0.0,0.0,0.0,0.0,0.0,0.0,0.0,0.0,0.0,0.0,0.0,0.0,0.0,0.0,0.0,0.0,0.0,0.0,0.0,0.0,0.0,0.0,0.0,0.0,0.0,0.0,0.0,0.0,0.0,0.0,0.0,0.0,0.0,0.0,0.0,0.0,0.0,0.0,0.0,0.0,0.0,0.0,0.0,0.0,0.0,0.0,0.0,0.0,0.0,0.0,0.0,0.0,0.0,0.0,0.0,0.0,0.0,0.0,0.0,0.0,0.0,0.0,0.0,0.0,0.0,0.0,0.0,0.0,0.0,0.0,0.0,0.0,0.0,0.0,0.0,0.0,0.0,0.0,0.0,0.0,0.0,0.0,0.0,0.0,0.0,0.0,0.0,0.0,0.0,0.0,0.0,0.0,0.0,0.0,0.0,0.0,0.0,0.0,0.0,0.0,0.0,0.0,0.0,0.0,0.0,0.0,0.0,0.0,0.0,0.0,0.0,0.0,0.0,0.0,0.0,0.0,0.0,0.0,0.0,0.0,0.0,0.0,0.0,0.0,0.0,0.0,0.0,0.0,0.0,0.0,0.0,0.0,0.0,0.0,0.0,0.0,0.0,0.0,0.0,0.0,0.0,0.0,0.0,0.0,0.0,0.0,0.0,0.0,0.0,0.0,0.0,0.0,0.0,0.0,0.0,0.0,0.0,0.0,0.0,0.0,0.0,0.0,0.0,0.0,0.0,0.0,0.0,0.0,0.0,0.0,0.0,0.0,0.0,0.0,0.0,0.0,0.0,0.0,0.0,0.0,0.0,0.0,0.0,0.0,0.0,0.0,0.0,0.0,0.0,0.0,0.0,0.0,0.0,0.0,0.0,0.0,0.0,0.0,0.0,0.0,0.0,0.0,0.0,0.0,0.0,0.0,0.0,0.0,0.0,0.0,0.0,0.0,0.0,0.0,0.0,0.0,0.0,0.0,0.0,0.0,0.0,0.0,0.0,0.0,0.0,0.0,0.0,0.0,0.0,0.0,0.0,0.0,0.0,0.0,0.0,0.0,0.0,0.0,0.0,0.0,0.0,0.0,0.0,0.0,0.0,0.0,0.0,0.0,0.0,0.0,0.0,0.0,0.0,0.0,0.0,0.0,0.0,0.0,0.0,0.0,0.0,0.0,0.0,0.0,0.0,0.0,0.0,0.0,0.0,0.0,0.0,0.0,0.0,0.0,0.0,0.0,0.0,0.0,0.0,0.0,0.0,0.0,0.0,0.0,0.0,0.0,0.0,0.0,0.0,0.0,0.0,0.0,0.0,0.0,0.0,0.0,0.0,0.0,0.0,0.0,0.0,0.0,0.0,0.0,0.0,0.0,0.0,0.0,0.0,0.0,0.0,0.0,0.0,0.0,0.0,0.0,0.0,0.0,0.0,0.0,0.0,0.0,0.0,0.0,0.0,0.0,0.0,0.0,0.0,0.0,0.0,0.0,0.0,0.0,0.0,0.0,-5.7035,0.0,0.0,0.0,0.0,0.0,0.0,0.0,0.0,0.0,0.0,0.0,0.0,0.0,0.0,0.0,0.0,0.0,0.0,0.0,0.0,0.0,0.0,0.0,0.0,0.0,0.0,0.0,0.0,0.0,0.0,0.0,0.0,0.0,0.0,0.0,0.0,0.0,0.0,0.0,0.0,0.0,0.0,0.0,0.0,0.0,0.0,0.0,0.0,0.0,0.0,0.0,0.0,0.0,0.0,0.0,0.0,0.0,0.0,0.0,0.0,0.0,0.0,0.0,0.0,0.0,0.0,0.0,0.0,0.0,0.0,0.0,0.0,0.0,0.0,0.0,0.0,0.0,0.0,0.0,0.0,0.0,0.0,0.0,0.0,0.0,0.0,0.0,0.0,0.0,0.0,0.0,0.0,0.0,0.0,0.0,0.0,0.0,0.0,0.0,0.0,0.0,0.0,0.0,0.0,0.0,0.0,0.0,0.0,0.0,0.0,-6.0694,-6.0695,-5.9394,-5.8379,-5.7698,0.0,0.0,0.0,0.0,0.0,0.0,0.0,0.0,0.0,0.0,0.0,0.0,0.0,0.0,0.0,0.0,0.0,0.0,0.0,0.0,0.0,0.0,0.0,0.0,0.0,0.0,0.0,0.0,0.0,0.0,0.0,0.0,0.0,0.0,0.0,0.0,0.0,0.0,0.0,0.0,0.0,0.0,0.0,0.0,0.0,0.0,0.0,0.0,0.0,0.0,0.0,0.0,0.0,0.0,0.0,0.0,0.0,0.0,0.0,0.0,0.0,0.0,0.0,0.0,0.0,0.0,0.0,0.0,0.0,0.0,0.0,0.0,0.0,0.0,0.0,0.0,0.0,0.0,0.0,0.0,0.0,0.0,0.0,0.0,0.0,0.0,0.0,0.0,0.0,0.0,0.0,0.0,0.0,0.0,0.0,0.0,0.0,0.0,0.0,0.0,0.0,0.0,0.0,0.0,0.0,0.0,0.0,0.0,0.0,0.0,0.0,0.0,-5.9624,-5.8379,-5.7698,0.0,0.0,0.0,0.0,0.0,0.0,0.0,0.0,0.0,0.0,0.0,0.0,0.0,0.0,0.0,0.0,0.0,0.0,0.0,0.0,0.0,0.0,0.0,0.0,0.0,0.0,0.0,0.0,0.0,0.0,0.0,0.0,0.0,0.0,0.0,0.0,0.0,0.0,0.0,0.0,0.0,0.0,0.0,0.0,0.0,0.0,0.0,0.0,0.0,0.0,0.0,0.0,0.0,0.0,0.0,0.0,0.0,0.0,0.0,0.0,0.0,0.0,0.0,0.0,0.0,0.0,0.0,0.0,0.0,0.0,0.0,0.0,0.0,0.0,0.0,0.0,0.0,0.0,0.0,0.0,0.0,0.0,0.0,0.0,0.0,0.0,0.0,0.0,0.0,0.0,0.0,0.0,0.0,0.0,0.0,0.0,0.0,0.0,0.0,0.0,0.0,0.0,0.0,0.0,0.0,0.0,0.0,0.0,0.0,0.0,-6.0475,-6.1423,-5.9654,0.0,-5.6025,0.0,0.0,0.0,0.0,0.0,0.0,0.0,0.0,0.0,0.0,0.0,0.0,0.0,0.0,0.0,0.0,0.0,0.0,0.0,0.0,0.0,0.0,0.0,0.0,0.0,0.0,0.0,0.0,0.0,0.0,0.0,0.0,0.0,0.0,0.0,0.0,0.0,0.0,0.0,0.0,0.0,0.0,0.0,0.0,0.0,0.0,0.0,0.0,0.0,0.0,0.0,0.0,0.0,0.0,0.0,0.0,0.0,0.0,0.0,0.0,0.0,0.0,0.0,0.0,0.0,0.0,0.0,0.0,0.0,0.0,0.0,0.0,0.0,0.0,0.0,0.0,0.0,0.0,0.0,0.0,0.0,0.0,0.0,0.0,0.0,0.0,0.0,0.0,0.0,0.0,0.0,0.0,0.0,0.0,0.0,0.0,0.0,0.0,0.0,0.0,0.0,0.0,0.0,0.0,0.0,0.0,0.0,0.0,0.0,0.0,-5.9711,-6.0707,-5.8838,-5.693,0.0,0.0,0.0,0.0,0.0,0.0,0.0,0.0,0.0,0.0,0.0,0.0,0.0,0.0,0.0,0.0,0.0,0.0,0.0,0.0,0.0,0.0,0.0,0.0,0.0,0.0,0.0,0.0,0.0,0.0,0.0,0.0,0.0,0.0,0.0,0.0,0.0,0.0,0.0,0.0,0.0,0.0,0.0,0.0,0.0,0.0,0.0,0.0,0.0,0.0,0.0,0.0,0.0,0.0,0.0,0.0,0.0,0.0,0.0,0.0,0.0,0.0,0.0,0.0,0.0,0.0,0.0,0.0,0.0,0.0,0.0,0.0,0.0,0.0,0.0,0.0,0.0,0.0,0.0,0.0,0.0,0.0,0.0,0.0,0.0,0.0,0.0,0.0,0.0,0.0,0.0,0.0,0.0,0.0,0.0,0.0,0.0,0.0,0.0,0.0,0.0,0.0,0.0,0.0,0.0,0.0,0.0,0.0,0.0,0.0,-5.8637,-5.8685,-5.9316,-5.8013,-5.6386,-5.4559,0.0,0.0,0.0,0.0,0.0,0.0,0.0,0.0,0.0,0.0,0.0,0.0,0.0,0.0,0.0,0.0,0.0,0.0,0.0,0.0,0.0,0.0,0.0,0.0,0.0,0.0,0.0,0.0,0.0,0.0,0.0,0.0,0.0,0.0,0.0,0.0,0.0,0.0,0.0,0.0,0.0,0.0,0.0,0.0,0.0,0.0,0.0,0.0,0.0,0.0,0.0,0.0,0.0,0.0,0.0,0.0,0.0,0.0,0.0,0.0,0.0,0.0,0.0,0.0,0.0,0.0,0.0,0.0,0.0,0.0,0.0,0.0,0.0,0.0,0.0,0.0,0.0,0.0,0.0,0.0,0.0,0.0,0.0,0.0,0.0,0.0,0.0,0.0,0.0,0.0,0.0,0.0,0.0,0.0,0.0,0.0,0.0,0.0,0.0,0.0,0.0,0.0,0.0,0.0,0.0,0.0,0.0,0.0,0.0,-5.7411,-5.7493,-5.7576,-5.7423,-5.647,0.0,0.0,0.0,0.0,0.0,0.0,0.0,0.0,0.0,0.0,0.0,0.0,0.0,0.0,0.0,0.0,0.0,0.0,0.0,0.0,0.0,0.0,0.0,0.0,0.0,0.0,0.0,0.0,0.0,0.0,0.0,0.0,0.0,0.0,0.0,0.0,0.0,0.0,0.0,0.0,0.0,0.0,0.0,0.0,0.0,0.0,0.0,0.0,0.0,0.0,0.0,0.0,0.0,0.0,0.0,0.0,0.0,0.0,0.0,0.0,0.0,0.0,0.0,0.0,0.0,0.0,0.0,0.0,0.0,0.0,0.0,0.0,0.0,0.0,0.0,0.0,0.0,0.0,0.0,0.0,0.0,0.0,0.0,0.0,0.0,0.0,0.0,0.0,0.0,0.0,0.0,0.0,0.0,0.0,0.0,0.0,0.0,0.0,0.0,0.0,0.0,0.0,0.0,0.0,0.0,0.0,0.0,0.0,0.0,-5.716,-5.7439,-5.7534,-5.7376,-5.6358,-5.5112,0.0,0.0,0.0,0.0,0.0,0.0,0.0,0.0,0.0,0.0,0.0,0.0,0.0,0.0,0.0,0.0,0.0,0.0,0.0,0.0,0.0,0.0,0.0,0.0,0.0,0.0,0.0,0.0,0.0,0.0,0.0,0.0,0.0,0.0,0.0,0.0,0.0,0.0,0.0,0.0,0.0,0.0,0.0,0.0,0.0,0.0,0.0,0.0,0.0,0.0,0.0,0.0,0.0,0.0,0.0,0.0,0.0,0.0,0.0,0.0,0.0,0.0,0.0,0.0,0.0,0.0,0.0,0.0,0.0,0.0,0.0,0.0,0.0,0.0,0.0,0.0,0.0,0.0,0.0,0.0,0.0,0.0,0.0,0.0,0.0,0.0,0.0,0.0,0.0,0.0,0.0,0.0,0.0,0.0,0.0,0.0,0.0,0.0,0.0,0.0,0.0,0.0,0.0,0.0,0.0,0.0,0.0,0.0,0.0,-5.6844,0.0,-5.7164,0.0,-5.5638,-5.4355,0.0,0.0,0.0,0.0,0.0,0.0,0.0,0.0,0.0,0.0,0.0,0.0,0.0,0.0,0.0,0.0,0.0,0.0,0.0,0.0,0.0,0.0,0.0,0.0,0.0,0.0,0.0,0.0,0.0,0.0,0.0,0.0,0.0,0.0,0.0,0.0,0.0,0.0,0.0,0.0,0.0,0.0,0.0,0.0,0.0,0.0,0.0,0.0,0.0,0.0,0.0,0.0,0.0,0.0,0.0,0.0,0.0,0.0,0.0,0.0,0.0,0.0,0.0,0.0,0.0,0.0,0.0,0.0,0.0,0.0,0.0,0.0,0.0,0.0,0.0,0.0,0.0,0.0,0.0,0.0,0.0,0.0,0.0,0.0,0.0,0.0,0.0,0.0,0.0,0.0,0.0,0.0,0.0,0.0,0.0,0.0,0.0,0.0,0.0,0.0,0.0,0.0,0.0,0.0,0.0,0.0,0.0,0.0,-5.5843,-5.6175,-5.6216,-5.6247,-5.6179,-5.5316,-5.4329,0.0,0.0,0.0,0.0,0.0,0.0,0.0,0.0,0.0,0.0,0.0,0.0,0.0,0.0,0.0,0.0,0.0,0.0,0.0,0.0,0.0,0.0,0.0,0.0,0.0,0.0,0.0,0.0,0.0,0.0,0.0,0.0,0.0,0.0,0.0,0.0,0.0,0.0,0.0,0.0,0.0,0.0,0.0,0.0,0.0,0.0,0.0,0.0,0.0,0.0,0.0,0.0,0.0,0.0,0.0,0.0,0.0,0.0,0.0,0.0,0.0,0.0,0.0,0.0,0.0,0.0,0.0,0.0,0.0,0.0,0.0,0.0,0.0,0.0,0.0,0.0,0.0,0.0,0.0,0.0,0.0,0.0,0.0,0.0,0.0,0.0,0.0,0.0,0.0,0.0,0.0,0.0,0.0,0.0,0.0,0.0,0.0,0.0,0.0,0.0,0.0,0.0,0.0,0.0,0.0,0.0,0.0,0.0,0.0,-5.5296,-5.5751,-5.6071,-5.6135,-5.4679,-5.3642,0.0,0.0,0.0,0.0,0.0,0.0,0.0,0.0,0.0,0.0,0.0,0.0,0.0,0.0,0.0,0.0,0.0,0.0,0.0,0.0,0.0,0.0,0.0,0.0,0.0,0.0,0.0,0.0,0.0,0.0,0.0,0.0,0.0,0.0,0.0,0.0,0.0,0.0,0.0,0.0,0.0,0.0,0.0,0.0,0.0,0.0,0.0,0.0,0.0,0.0,0.0,0.0,0.0,0.0,0.0,0.0,0.0,0.0,0.0,0.0,0.0,0.0,0.0,0.0,0.0,0.0,0.0,0.0,0.0,0.0,0.0,0.0,0.0,0.0,0.0,0.0,0.0,0.0,0.0,0.0,0.0,0.0,0.0,0.0,0.0,0.0,0.0,0.0,0.0,0.0,0.0,0.0,0.0,0.0,0.0,0.0,0.0,0.0,0.0,0.0,0.0,0.0,0.0,0.0,0.0,0.0,0.0,0.0,0.0,-5.4416,-5.5139,-5.5581,-5.5696,-5.4258,-5.3399,-5.3184,0.0,0.0,0.0,0.0,0.0,0.0,0.0,0.0,0.0,0.0,0.0,0.0,0.0,0.0,0.0,0.0,0.0,0.0,0.0,0.0,0.0,0.0,0.0,0.0,0.0,0.0,0.0,0.0,0.0,0.0,0.0,0.0,0.0,0.0,0.0,0.0,0.0,0.0,0.0,0.0,0.0,0.0,0.0,0.0,0.0,0.0,0.0,0.0,0.0,0.0,0.0,0.0,0.0,0.0,0.0,0.0,0.0,0.0,0.0,0.0,0.0,0.0,0.0,0.0,0.0,0.0,0.0,0.0,0.0,0.0,0.0,0.0,0.0,0.0,0.0,0.0,0.0,0.0,0.0,0.0,0.0,0.0,0.0,0.0,0.0,0.0,0.0,0.0,0.0,0.0,0.0,0.0,0.0,0.0,0.0,0.0,0.0,0.0,0.0,0.0,0.0,0.0,0.0,0.0,0.0,0.0,0.0,0.0,-5.3418,-5.426,-5.468,-5.4748,-5.3977,-5.3423,0.0,0.0,0.0,0.0,0.0,0.0,0.0,0.0,0.0,0.0,0.0,0.0,0.0,0.0,0.0,0.0,0.0,0.0,0.0,0.0,0.0,0.0,0.0,0.0,0.0,0.0,0.0,0.0,0.0,0.0,0.0,0.0,0.0,0.0,0.0,0.0,0.0,0.0,0.0,0.0,0.0,0.0,0.0,0.0,0.0,0.0,0.0,0.0,0.0,0.0,0.0,0.0,0.0,0.0,0.0,0.0,0.0,0.0,0.0,0.0,0.0,0.0,0.0,0.0,0.0,0.0,0.0,0.0,0.0,0.0,0.0,0.0,0.0,0.0,0.0,0.0,0.0,0.0,0.0,0.0,0.0,0.0,0.0,0.0,0.0,0.0,0.0,0.0,0.0,0.0,0.0,0.0,0.0,0.0,0.0,0.0,0.0,0.0,0.0,0.0,0.0,0.0,0.0,0.0,0.0,0.0,0.0,0.0,0.0,-5.1641,-5.1959,-5.2376,-5.2967,-5.3294,-5.2798,0.0,0.0,0.0,0.0,0.0,0.0,0.0,0.0,0.0,0.0,0.0,0.0,0.0,0.0,0.0,0.0,0.0,0.0,0.0,0.0,0.0,0.0,0.0,0.0,0.0,0.0,0.0,0.0,0.0,0.0,0.0,0.0,0.0,0.0,0.0,0.0,0.0,0.0,0.0,0.0,0.0,0.0,0.0,0.0,0.0,0.0,0.0,0.0,0.0,0.0,0.0,0.0,0.0,0.0,0.0,0.0,0.0,0.0,0.0,0.0,0.0,0.0,0.0,0.0,0.0,0.0,0.0,0.0,0.0,0.0,0.0,0.0,0.0,0.0,0.0,0.0,0.0,0.0,0.0,0.0,0.0,0.0,0.0,0.0,0.0,0.0,0.0,0.0,0.0,0.0,0.0,0.0,0.0,0.0,0.0,0.0,0.0,0.0,0.0,0.0,0.0,0.0,0.0,0.0,0.0,0.0,0.0,0.0,-4.9663,-5.1405,-5.0144,-4.9675,-5.0104,-5.2319,-5.2616,0.0,0.0,0.0,0.0,0.0,0.0,0.0,0.0,0.0,0.0,0.0,0.0,0.0,0.0,0.0,0.0,0.0,0.0,0.0,0.0,0.0,0.0,0.0,0.0,0.0,0.0,0.0,0.0,0.0,0.0,0.0,0.0,0.0,0.0,0.0,0.0,0.0,0.0,0.0,0.0,0.0,0.0,0.0,0.0,0.0,0.0,0.0,0.0,0.0,0.0,0.0,0.0,0.0,0.0,0.0,0.0,0.0,0.0,0.0,0.0,0.0,0.0,0.0,0.0,0.0,0.0,0.0,0.0,0.0,0.0,0.0,0.0,0.0,0.0,0.0,0.0,0.0,0.0,0.0,0.0,0.0,0.0,0.0,0.0,0.0,0.0,0.0,0.0,0.0,0.0,0.0,0.0,0.0,0.0,0.0,0.0,0.0,0.0,0.0,0.0,0.0,0.0,0.0,0.0,0.0,0.0,0.0,0.0,-4.8619,-5.1583,-4.8752,-4.7138,-4.71,-5.1187,-5.2511,0.0,0.0,0.0,0.0,0.0,0.0,0.0,0.0,0.0,0.0,0.0,0.0,0.0,0.0,0.0,0.0,0.0,0.0,0.0,0.0,0.0,0.0,0.0,0.0,0.0,0.0,0.0,0.0,0.0,0.0,0.0,0.0,0.0,0.0,0.0,0.0,0.0,0.0,0.0,0.0,0.0,0.0,0.0,0.0,0.0,0.0,0.0,0.0,0.0,0.0,0.0,0.0,0.0,0.0,0.0,0.0,0.0,0.0,0.0,0.0,0.0,0.0,0.0,0.0,0.0,0.0,0.0,0.0,0.0,0.0,0.0,0.0,0.0,0.0,0.0,0.0,0.0,0.0,0.0,0.0,0.0,0.0,0.0,0.0,0.0,0.0,0.0,0.0,0.0,0.0,0.0,0.0,0.0,0.0,0.0,0.0,0.0,0.0,0.0,0.0,0.0,0.0,0.0,0.0,0.0,0.0,0.0,0.0,-4.8324,-4.9059,-4.7872,-4.688,-4.619,-5.0337,-5.1341,0.0,0.0,0.0,0.0,0.0,0.0,0.0,0.0,0.0,0.0,0.0,0.0,0.0,0.0,0.0,0.0,0.0,0.0,0.0,0.0,0.0,0.0,0.0,0.0,0.0,0.0,0.0,0.0,0.0,0.0,0.0,0.0,0.0,0.0,0.0,0.0,0.0,0.0,0.0,0.0,0.0,0.0,0.0,0.0,0.0,0.0,0.0,0.0,-4.9312,0.0,0.0,0.0,0.0,0.0,0.0,0.0,0.0,0.0,0.0,0.0,0.0,0.0,0.0,0.0,0.0,0.0,0.0,0.0,0.0,0.0,0.0,0.0,0.0,0.0,0.0,0.0,0.0,0.0,0.0,0.0,0.0,0.0,0.0,0.0,0.0,0.0,0.0,0.0,0.0,0.0,0.0,0.0,0.0,0.0,0.0,0.0,0.0,0.0,0.0,0.0,0.0,0.0,0.0,0.0,0.0,0.0,0.0,0.0,-4.8137,-4.7961,-4.7029,-4.6341,-4.5985,-4.8883,-4.9775,0.0,0.0,0.0,0.0,0.0,0.0,0.0,0.0,0.0,0.0,0.0,0.0,0.0,0.0,0.0,0.0,0.0,0.0,0.0,0.0,0.0,0.0,0.0,0.0,0.0,0.0,0.0,0.0,0.0,0.0,0.0,0.0,0.0,0.0,0.0,0.0,0.0,0.0,0.0,0.0,0.0,0.0,0.0,0.0,0.0,0.0,0.0,0.0,0.0,0.0,0.0,0.0,0.0,0.0,0.0,0.0,0.0,0.0,0.0,0.0,0.0,0.0,0.0,0.0,0.0,0.0,0.0,0.0,0.0,0.0,0.0,0.0,0.0,0.0,0.0,0.0,0.0,0.0,0.0,0.0,0.0,0.0,0.0,0.0,0.0,0.0,0.0,0.0,0.0,0.0,0.0,0.0,0.0,0.0,0.0,0.0,0.0,0.0,0.0,0.0,0.0,0.0,0.0,0.0,0.0,0.0,0.0,-4.8198,-4.7759,-4.7198,-4.6293,-4.5802,-4.5858,-4.7555,-4.8472,-4.8379,0.0,0.0,0.0,0.0,0.0,0.0,0.0,0.0,0.0,0.0,0.0,0.0,0.0,0.0,0.0,0.0,0.0,0.0,0.0,0.0,0.0,0.0,0.0,0.0,0.0,0.0,0.0,0.0,0.0,0.0,0.0,0.0,0.0,0.0,0.0,0.0,0.0,0.0,-5.0798,-5.3304,0.0,0.0,0.0,0.0,0.0,0.0,0.0,0.0,-4.9569,0.0,0.0,0.0,0.0,0.0,0.0,0.0,0.0,0.0,0.0,0.0,0.0,0.0,0.0,0.0,0.0,0.0,0.0,0.0,0.0,0.0,0.0,0.0,0.0,0.0,0.0,0.0,0.0,0.0,0.0,0.0,0.0,0.0,0.0,0.0,0.0,0.0,0.0,0.0,0.0,0.0,0.0,0.0,0.0,0.0,0.0,0.0,0.0,0.0,0.0,0.0,0.0,0.0,0.0,0.0,0.0,-4.6852,-4.7072,-4.6656,-4.5565,-4.5714,-4.583,-4.5909,-4.7601,-4.8545,-4.8691,0.0,0.0,0.0,0.0,0.0,0.0,0.0,0.0,0.0,0.0,0.0,0.0,0.0,0.0,0.0,0.0,0.0,0.0,0.0,0.0,0.0,0.0,0.0,0.0,0.0,0.0,0.0,0.0,0.0,0.0,0.0,0.0,0.0,0.0,0.0,0.0,0.0,0.0,0.0,-5.1789,-5.2764,0.0,0.0,0.0,0.0,0.0,0.0,0.0,0.0,-4.8456,0.0,0.0,0.0,0.0,0.0,0.0,0.0,0.0,0.0,0.0,0.0,0.0,0.0,0.0,0.0,0.0,0.0,0.0,0.0,0.0,0.0,0.0,0.0,0.0,0.0,0.0,0.0,0.0,0.0,0.0,0.0,0.0,0.0,0.0,0.0,0.0,0.0,0.0,0.0,0.0,0.0,0.0,0.0,0.0,0.0,0.0,0.0,0.0,0.0,0.0,0.0,0.0,0.0,0.0,0.0,-4.5629,-4.6299,-4.5983,-4.4604,-4.5137,-4.5274,-4.4957,-4.6376,-4.7421,0.0,0.0,0.0,0.0,0.0,0.0,0.0,0.0,0.0,0.0,0.0,0.0,0.0,0.0,0.0,0.0,0.0,0.0,0.0,0.0,0.0,0.0,0.0,0.0,0.0,0.0,0.0,0.0,0.0,0.0,0.0,0.0,0.0,0.0,0.0,0.0,0.0,0.0,0.0,0.0,-5.0379,-5.0817,-4.8541,0.0,0.0,0.0,0.0,0.0,0.0,-4.7844,-4.8175,0.0,0.0,0.0,0.0,0.0,0.0,0.0,0.0,0.0,0.0,0.0,0.0,0.0,0.0,0.0,0.0,0.0,0.0,0.0,0.0,0.0,0.0,0.0,0.0,0.0,0.0,0.0,0.0,0.0,0.0,0.0,0.0,0.0,0.0,0.0,0.0,0.0,0.0,0.0,0.0,0.0,0.0,0.0,0.0,0.0,0.0,0.0,0.0,0.0,0.0,0.0,0.0,0.0,0.0,0.0,-4.4562,-4.5432,-4.5214,-4.386,-4.4405,-4.4407,-4.3816,-4.5396,-4.666,0.0,0.0,0.0,0.0,0.0,0.0,0.0,0.0,0.0,0.0,0.0,0.0,0.0,0.0,0.0,0.0,0.0,0.0,0.0,0.0,0.0,0.0,0.0,0.0,0.0,0.0,0.0,0.0,0.0,0.0,0.0,0.0,0.0,0.0,0.0,0.0,0.0,0.0,0.0,0.0,0.0,-4.9433,-4.6693,-4.8164,0.0,0.0,0.0,0.0,-4.7587,-4.7398,0.0,0.0,0.0,0.0,0.0,0.0,0.0,0.0,0.0,0.0,0.0,0.0,0.0,0.0,0.0,0.0,0.0,0.0,0.0,0.0,0.0,0.0,0.0,0.0,0.0,0.0,0.0,0.0,0.0,0.0,0.0,0.0,0.0,0.0,0.0,0.0,0.0,0.0,0.0,0.0,0.0,0.0,0.0,0.0,0.0,0.0,0.0,0.0,0.0,0.0,0.0,0.0,0.0,0.0,0.0,0.0,-4.368,-4.4059,-4.3849,-4.3017,-4.3312,-4.3322,-4.3006,-4.6,-4.7578,0.0,0.0,0.0,0.0,0.0,0.0,0.0,0.0,0.0,0.0,0.0,0.0,0.0,0.0,0.0,0.0,0.0,0.0,0.0,0.0,0.0,0.0,0.0,0.0,0.0,0.0,0.0,0.0,0.0,0.0,0.0,0.0,0.0,0.0,0.0,0.0,0.0,0.0,0.0,0.0,0.0,-4.9843,-4.5963,-4.7822,-4.9022,0.0,0.0,-4.5081,-4.5505,-4.4366,0.0,0.0,0.0,0.0,0.0,0.0,0.0,0.0,0.0,0.0,0.0,0.0,0.0,0.0,0.0,0.0,0.0,0.0,0.0,0.0,0.0,0.0,0.0,0.0,0.0,0.0,0.0,0.0,0.0,0.0,0.0,0.0,0.0,0.0,0.0,0.0,0.0,0.0,0.0,0.0,0.0,0.0,0.0,0.0,0.0,0.0,0.0,0.0,0.0,0.0,0.0,0.0,0.0,0.0,0.0,-4.3167,-4.2835,-4.2505,-4.2176,-4.1875,-4.2169,-4.202,-4.1404,-4.4643,-4.6148,0.0,0.0,0.0,0.0,0.0,0.0,0.0,0.0,0.0,0.0,0.0,0.0,0.0,0.0,0.0,0.0,0.0,0.0,0.0,0.0,0.0,0.0,0.0,0.0,0.0,0.0,0.0,0.0,0.0,0.0,0.0,0.0,0.0,0.0,0.0,0.0,0.0,0.0,0.0,0.0,0.0,0.0,-4.4305,-4.5058,0.0,0.0,0.0,-4.4296,-4.6017,0.0,0.0,0.0,0.0,0.0,0.0,0.0,0.0,0.0,0.0,0.0,0.0,0.0,0.0,0.0,0.0,0.0,0.0,0.0,0.0,0.0,0.0,0.0,0.0,0.0,0.0,0.0,0.0,0.0,0.0,0.0,0.0,0.0,0.0,0.0,0.0,0.0,0.0,0.0,0.0,0.0,0.0,0.0,0.0,0.0,0.0,0.0,0.0,0.0,0.0,0.0,0.0,0.0,0.0,0.0,0.0,0.0,-4.2286,-4.1499,-4.1003,-4.0799,-4.104,-4.0802,-4.0086,-4.2674,0.0,0.0,0.0,0.0,0.0,0.0,0.0,0.0,0.0,0.0,0.0,0.0,0.0,0.0,0.0,0.0,0.0,0.0,0.0,0.0,0.0,0.0,0.0,0.0,0.0,0.0,0.0,-4.2473,0.0,0.0,0.0,0.0,0.0,0.0,0.0,0.0,0.0,0.0,0.0,0.0,0.0,0.0,-4.373,-4.2821,-4.2885,-4.2864,0.0,0.0,-4.3082,-4.5013,-4.2069,-4.0703,0.0,0.0,0.0,0.0,0.0,0.0,0.0,0.0,0.0,0.0,0.0,0.0,0.0,0.0,0.0,0.0,0.0,0.0,0.0,0.0,0.0,0.0,0.0,0.0,0.0,0.0,0.0,0.0,0.0,0.0,0.0,0.0,0.0,0.0,0.0,0.0,0.0,0.0,0.0,0.0,0.0,0.0,0.0,0.0,0.0,0.0,0.0,0.0,0.0,0.0,0.0,0.0,0.0,0.0,0.0,-4.2286,-4.1499,-4.0708,-4.001,-4.0005,-3.9745,-3.9229,-4.024,-4.1866,0.0,0.0,0.0,0.0,0.0,0.0,0.0,0.0,0.0,0.0,0.0,0.0,0.0,0.0,0.0,0.0,0.0,0.0,0.0,0.0,0.0,0.0,0.0,0.0,0.0,0.0,0.0,0.0,0.0,0.0,0.0,0.0,0.0,0.0,0.0,0.0,0.0,0.0,0.0,0.0,0.0,-4.362,-4.2097,-4.2505,-4.2232,0.0,0.0,-4.0792,-4.0546,-3.7874,-3.7113,-4.0984,0.0,0.0,0.0,0.0,0.0,0.0,0.0,0.0,0.0,0.0,0.0,0.0,0.0,0.0,0.0,0.0,0.0,0.0,0.0,0.0,0.0,0.0,0.0,0.0,0.0,0.0,0.0,0.0,0.0,0.0,0.0,0.0,0.0,0.0,0.0,0.0,0.0,0.0,0.0,0.0,0.0,0.0,0.0,0.0,0.0,0.0,0.0,0.0,0.0,0.0,0.0,0.0,0.0,-4.1554,-4.1552,-4.0286,-3.9221,-3.845,-3.8141,-3.7656,-3.6966,-3.85,-3.9735,0.0,0.0,0.0,0.0,0.0,0.0,0.0,0.0,0.0,0.0,0.0,0.0,0.0,0.0,0.0,0.0,0.0,0.0,0.0,0.0,0.0,0.0,0.0,0.0,0.0,0.0,0.0,0.0,-4.02,-3.9733,-4.1142,0.0,0.0,0.0,0.0,0.0,0.0,0.0,0.0,0.0,0.0,-4.0666,-3.8429,-3.9099,0.0,0.0,-3.9021,-3.9642,-4.0317,-3.8183,-3.7453,-4.0384,-4.0112,0.0,0.0,0.0,0.0,0.0,0.0,0.0,0.0,0.0,0.0,0.0,0.0,0.0,0.0,0.0,0.0,0.0,0.0,0.0,0.0,0.0,0.0,0.0,0.0,0.0,0.0,0.0,0.0,0.0,0.0,0.0,0.0,0.0,0.0,0.0,0.0,0.0,0.0,0.0,0.0,0.0,0.0,0.0,0.0,0.0,0.0,0.0,0.0,0.0,0.0,0.0,0.0,-4.0746,-4.0525,-3.8787,-3.7521,-3.6737,-3.6394,-3.5957,-3.5452,-3.6524,-3.7436,0.0,0.0,0.0,0.0,0.0,0.0,0.0,0.0,0.0,0.0,0.0,0.0,0.0,0.0,0.0,0.0,0.0,0.0,0.0,0.0,0.0,0.0,0.0,0.0,0.0,0.0,0.0,0.0,-4.0037,-3.9511,-4.0435,0.0,0.0,0.0,0.0,0.0,0.0,0.0,0.0,0.0,0.0,-3.8084,-3.663,-3.7451,-3.812,-3.777,-3.827,-3.8875,-3.9371,-3.7657,-3.6913,-3.8786,0.0,0.0,0.0,0.0,0.0,0.0,0.0,0.0,0.0,0.0,0.0,0.0,0.0,0.0,0.0,0.0,0.0,0.0,0.0,0.0,0.0,0.0,0.0,0.0,0.0,0.0,0.0,0.0,0.0,0.0,-4.6485,0.0,0.0,0.0,0.0,0.0,0.0,0.0,0.0,0.0,0.0,0.0,0.0,0.0,0.0,0.0,0.0,0.0,0.0,0.0,0.0,0.0,0.0,-3.995,-3.9225,-3.7167,-3.5723,-3.4994,-3.4941,-3.4924,-3.4853,-3.4196,-3.4913,-3.7194,0.0,0.0,0.0,0.0,0.0,0.0,0.0,0.0,0.0,0.0,0.0,0.0,0.0,0.0,0.0,0.0,0.0,0.0,0.0,0.0,0.0,0.0,0.0,0.0,0.0,0.0,-4.3112,-4.1415,-3.9718,0.0,0.0,0.0,0.0,0.0,0.0,0.0,0.0,0.0,0.0,-3.6757,-3.6376,-3.7505,-3.8465,-3.8603,-3.7601,-3.824,-3.8379,-3.6894,-3.5409,-3.4647,0.0,0.0,0.0,0.0,0.0,0.0,0.0,0.0,0.0,0.0,0.0,0.0,0.0,0.0,0.0,0.0,0.0,0.0,0.0,0.0,0.0,0.0,0.0,0.0,0.0,0.0,0.0,-4.6161,-4.5195,0.0,0.0,0.0,0.0,0.0,0.0,0.0,0.0,0.0,0.0,0.0,-3.9299,-3.9234,0.0,0.0,0.0,0.0,0.0,0.0,0.0,0.0,0.0,0.0,0.0,0.0,-3.8915,-3.8577,-3.6416,-3.4889,-3.4109,-3.3846,-3.3421,-3.2843,-3.2581,-3.2983,-3.4137,0.0,0.0,0.0,0.0,0.0,0.0,0.0,0.0,0.0,0.0,0.0,0.0,0.0,0.0,0.0,0.0,0.0,0.0,0.0,0.0,0.0,0.0,0.0,0.0,0.0,-4.136,0.0,0.0,0.0,0.0,0.0,0.0,0.0,0.0,0.0,0.0,0.0,-3.6859,-3.5301,-3.6524,-3.711,-3.5799,-3.6993,-3.7438,0.0,0.0,0.0,0.0,0.0,0.0,0.0,0.0,0.0,0.0,0.0,0.0,0.0,0.0,-3.6983,-3.845,-3.738,-3.6307,-3.6509,0.0,0.0,0.0,0.0,0.0,0.0,0.0,0.0,0.0,0.0,0.0,0.0,0.0,0.0,-4.4369,0.0,-4.3589,0.0,0.0,0.0,0.0,0.0,0.0,0.0,0.0,-3.8706,-3.7866,-3.7218,-3.718,-3.6869,0.0,-3.7343,-3.8738,0.0,0.0,0.0,0.0,0.0,0.0,0.0,0.0,-3.8,-3.7668,-3.5265,-3.363,-3.286,-3.2585,-3.2175,-3.162,-3.1716,-3.1707,-3.1524,-3.3162,-3.4187,0.0,0.0,0.0,0.0,0.0,0.0,0.0,0.0,0.0,0.0,0.0,0.0,0.0,0.0,0.0,0.0,0.0,0.0,0.0,0.0,0.0,0.0,0.0,-3.985,0.0,0.0,0.0,0.0,0.0,0.0,0.0,0.0,0.0,-3.6239,-3.5958,-3.5177,-3.414,-3.5401,-3.5987,-3.4836,0.0,0.0,0.0,0.0,0.0,0.0,0.0,-3.5399,-3.4568,-3.4146,-3.3544,-3.228,-3.2783,-3.318,-3.2671,0.0,0.0,-3.5548,-3.4704,-3.369,-3.4182,-3.4109,-3.4054,-3.4305,-3.4219,-3.3826,0.0,0.0,0.0,0.0,0.0,0.0,0.0,0.0,-4.2957,-4.3279,0.0,-4.2317,0.0,0.0,0.0,0.0,0.0,-3.7992,0.0,0.0,-3.5455,-3.5091,-3.5711,-3.5641,-3.5652,-3.5716,-3.6998,-3.6957,-3.5855,-3.74,0.0,0.0,0.0,0.0,0.0,0.0,-3.7113,-3.6301,-3.3635,-3.1884,-3.121,-3.1176,-3.1157,-3.114,-3.1495,-3.0991,-2.9627,-3.1403,-3.2089,-3.1354,-3.4281,0.0,0.0,0.0,0.0,0.0,0.0,0.0,0.0,0.0,0.0,0.0,0.0,0.0,0.0,0.0,0.0,0.0,0.0,0.0,0.0,-3.8805,0.0,0.0,0.0,0.0,0.0,0.0,0.0,0.0,0.0,0.0,-3.4926,-3.4345,-3.3819,-3.4264,0.0,0.0,0.0,0.0,-3.5407,-3.4562,-3.5415,-3.5495,-3.3738,-3.2569,-3.1249,-2.9393,0.0,0.0,-2.833,-2.9774,-3.0807,-3.0201,-2.954,-3.0285,-3.3713,-3.2587,-3.1683,-3.2883,-3.2587,-3.2527,-3.305,-3.2496,-3.2137,-4.5212,0.0,0.0,0.0,0.0,-4.3965,-4.3048,-4.1702,-4.1702,-4.153,-4.1153,-4.0227,0.0,0.0,0.0,0.0,0.0,0.0,-3.6325,-3.6059,-3.5114,-3.4547,-3.4289,-3.3236,-3.2479,-3.2032,-3.248,-3.2243,-3.1394,-3.2308,-3.4187,-3.6879,0.0,0.0,0.0,0.0,-3.4372,-3.3572,-3.1833,-3.0727,-3.0429,-3.0429,-3.0205,-2.9799,-2.9885,-2.9493,-2.8555,-2.9322,-2.9885,-3.0158,-3.1348,0.0,0.0,0.0,0.0,0.0,0.0,0.0,0.0,0.0,0.0,0.0,0.0,0.0,0.0,0.0,0.0,0.0,0.0,0.0,-3.6871,-3.6011,-3.5602,0.0,0.0,0.0,0.0,0.0,0.0,0.0,0.0,0.0,-3.1389,-3.1947,-3.2084,0.0,0.0,-3.3995,-3.402,-3.3821,-3.3345,-3.22,-3.2419,0.0,-3.0774,-3.0666,-3.0344,-2.9098,-2.769,-2.6466,-2.5877,-2.6265,-2.6521,-2.6126,-2.5761,-2.6077,-2.7655,-2.8353,-2.8614,-2.8949,-2.858,-2.8397,-2.9013,-2.8675,-2.8404,-4.2552,-4.2626,-4.3212,-4.3058,-4.248,-4.248,-4.1818,-4.0747,-4.0428,-4.039,-4.0414,-3.8816,-3.8463,-3.8884,-3.718,0.0,0.0,0.0,-3.4672,-3.4057,-3.3362,-3.2826,-3.2369,-3.1257,-3.0537,-3.0146,-3.0183,-2.9832,-2.918,-3.007,-3.1435,-3.3336,0.0,0.0,-3.4983,-3.3556,-3.2595,-3.2082,-3.0419,-2.9609,-2.9747,-2.969,-2.9391,-2.8837,-2.9061,-2.8743,-2.7834,-2.7978,-2.8327,-2.8801,-2.9412,-3.0964,0.0,0.0,0.0,0.0,0.0,0.0,0.0,0.0,0.0,0.0,0.0,-3.7502,-3.7462,0.0,0.0,0.0,-3.4593,-3.4222,-3.3935,-3.3469,0.0,0.0,0.0,0.0,0.0,0.0,0.0,-3.1273,-2.939,-2.8152,-2.8578,-2.9152,-2.9685,-3.0036,-3.1245,-3.2014,-3.1787,0.0,-3.0632,-2.9396,-2.963,-2.9537,-2.8387,-2.8139,-2.7696,-2.6482,-2.5403,-2.4443,-2.391,-2.396,-2.4059,-2.3863,-2.3747,-2.3844,-2.439,-2.5114,-2.5864,-2.6419,-2.6271,-2.619,-2.6593,-2.6152,-2.5871,-4.0781,-4.0214,-4.1568,-4.1737,-4.1136,-4.1067,-4.0619,-3.9952,-3.909,-3.9528,-4.063,-3.7866,-3.7331,-3.8357,-3.6453,0.0,-3.3529,-3.3529,-3.2795,-3.1406,-3.0791,-3.0477,-3.0402,-2.9831,-2.9517,-2.9532,-2.9472,-2.9142,-2.8577,-2.9711,-3.0028,-2.9648,-3.0829,-3.2174,-3.3466,-3.2277,-3.1534,-3.1414,-2.948,-2.8651,-2.8964,-2.8791,-2.8459,-2.7997,-2.8578,-2.8363,-2.7285,-2.7248,-2.7275,-2.7424,-2.8229,-2.9094,-3.0096,0.0,0.0,0.0,0.0,0.0,0.0,0.0,0.0,0.0,0.0,0.0,0.0,0.0,0.0,0.0,-3.2433,0.0,-3.0791,-3.1058,0.0,0.0,0.0,-3.0102,-2.8444,-2.7899,-2.7696,-2.7776,0.0,0.0,-2.6361,-2.6361,-2.6961,-2.8601,-2.8443,-2.8283,-2.8659,-2.8375,-2.7611,-2.6646,-2.703,-2.717,-2.6225,-2.5291,-2.4229,-2.2879,-2.2644,-2.2836,-2.2447,-2.2631,-2.2945,-2.2967,-2.297,-2.2975,-2.297,-2.3051,-2.3403,-2.4801,-2.5134,-2.5203,-2.5204,-2.4832,-2.4486,-4.0764,-4.0146,-4.0485,-4.0493,-4.0316,-3.9704,-3.9358,-3.9063,-3.7856,-3.7503,-3.7713,-3.5974,-3.4811,-3.4085,-3.3599,-3.2863,-3.2022,-3.2022,-3.1546,-3.0761,-3.0582,-3.0268,-2.9774,-2.9146,-2.8831,-2.8801,-2.8334,-2.7989,-2.7854,-2.8154,-2.8753,-2.9562,-2.991,-3.075,-3.1972,-3.1701,-3.1014,-3.0014,-2.9505,-2.8485,-2.7038,-2.6399,-2.6088,-2.6047,-2.6199,-2.6402,-2.6589,-2.6604,-2.6598,-2.6529,-2.6724,-2.7209,-2.8061,-2.9741,0.0,0.0,0.0,0.0,0.0,0.0,0.0,0.0,0.0,-3.3601,-3.2484,0.0,-3.1601,0.0,-2.8923,-2.8222,-2.8176,-2.8245,0.0,0.0,-2.8862,-2.8481,-2.8045,-2.6525,-2.5874,-2.6748,-2.5878,-2.5209,-2.5222,-2.5209,-2.5044,-2.4692,-2.5949,-2.6958,-2.7046,-2.625,-2.5525,-2.5227,-2.4684,-2.4012,-2.3475,-2.2736,-2.2196,-2.1757,-2.1807,-2.182,-2.1707,-2.1782,-2.1882,-2.1882,-2.1882,-2.1882,-2.1907,-2.1882,-2.1996,-2.2401,-2.3061,-2.37,-2.3839,-2.3739,-2.3703,-4.0263,-3.9568,-3.9584,-3.9401,-3.9059,-3.8983,-3.8781,-3.8397,-3.6933,-3.6147,-3.5774,-3.4354,-3.3138,-3.2135,-3.212,-3.1743,-3.1091,-3.1047,-3.0717,-3.0088,-2.9804,-2.9475,-2.9116,-2.8483,-2.8143,-2.8128,-2.7779,-2.745,-2.7165,-2.7151,-2.754,-2.8233,-2.8274,-2.8906,-3.0165,-3.0763,-3.0674,-2.9957,-2.9027,-2.7564,-2.555,-2.5293,-2.5421,-2.5834,-2.6121,-2.6634,-2.7357,-2.7387,-2.7441,-2.755,-2.7319,-2.7478,-2.8126,-2.9144,-3.0076,0.0,0.0,0.0,0.0,0.0,0.0,0.0,0.0,0.0,0.0,0.0,-2.8722,-2.8177,-2.7159,-2.6813,-2.7495,-2.7189,-2.7035,-2.7264,-2.6619,-2.5973,-2.5441,-2.418,-2.3577,-2.4199,-2.3929,-2.3672,-2.3672,-2.3916,-2.3822,-2.3183,-2.4161,-2.4971,-2.4933,-2.4431,-2.396,-2.3684,-2.3145,-2.2556,-2.2033,-2.1694,-2.1405,-2.1219,-2.1358,-2.1418,-2.1207,-2.1358,-2.1481,-2.1481,-2.1481,-2.1481,-2.1481,-2.1481,-2.1481,-2.1568,-2.197,-2.2407,-2.2549,-2.2349,-2.2228,-3.9542,-3.8864,-3.8701,-3.824,-3.7728,-3.8231,-3.8152,-3.7582,-3.6,-3.4927,-3.4193,-3.2943,-3.1989,-3.1376,-3.1376,-3.1002,-3.0402,-3.0387,-3.0058,-2.943,-2.8876,-2.8547,-2.8457,-2.7884,-2.7585,-2.7585,-2.751,-2.718,-2.6587,-2.6449,-2.6508,-2.6707,-2.6584,-2.7189,-2.8591,-2.9553,-3.0043,-3.0097,-2.816,-2.6303,-2.4512,-2.5152,-2.5827,-2.6526,-2.7134,-2.7744,-2.8398,-2.8419,-2.8558,-2.8829,-2.8358,-2.8185,-2.8381,-2.9085,-2.9433,0.0,-2.9936,0.0,0.0,0.0,0.0,0.0,0.0,0.0,0.0,-2.6077,-2.5566,-2.6861,-2.6178,-2.6102,-2.7208,-2.6506,-2.5548,-2.4607,-2.4004,-2.3276,-2.2334,-2.1769,-2.1481,-2.1481,-2.1907,-2.2209,-2.2259,-2.2594,-2.2895,-2.2844,-2.2832,-2.2884,-2.2782,-2.2889,-2.2784,-2.2209,-2.194,-2.1399,-2.105,-2.0946,-2.0699,-2.0392,-2.0511,-2.0831,-2.0291,-2.0563,-2.0924,-2.0912,-2.0819,-2.09,-2.1088,-2.1091,-2.1119,-2.1152,-2.123,-2.1292,-2.1385,-2.1148,-2.0691,-3.9059,-3.8804,-3.7653,-3.7122,-3.6914,-3.5932,-3.5721,-3.5896,-3.3945,-3.273,-3.2102,-3.1808,-3.1301,-3.0717,-3.0702,-3.0342,-2.9786,-2.9744,-2.94,-2.8786,-2.8652,-2.8293,-2.7794,-2.766,-2.7585,-2.7555,-2.7021,-2.6707,-2.6587,-2.5585,-2.5864,-2.734,-2.6359,-2.6779,-2.8445,0.0,0.0,0.0,-2.6703,-2.5538,-2.4743,-2.63,-2.721,-2.7384,-2.7479,0.0,-2.755,-2.7554,-2.7251,-2.6652,-2.6498,0.0,0.0,0.0,0.0,0.0,0.0,0.0,0.0,0.0,0.0,0.0,-2.3874,-2.4005,-2.5008,-2.4553,-2.4515,-2.5173,-2.4696,-2.4265,-2.4012,-2.3472,-2.3012,-2.2799,-2.2268,-2.187,-2.1669,-2.1543,-2.1481,-2.1493,-2.1581,-2.1644,-2.16,-2.1744,-2.1791,-2.1768,-2.1565,-2.1272,-2.0981,-2.1638,-2.1939,-2.1434,-2.0258,-1.9281,-1.9097,-1.8739,-1.8564,-1.8226,-1.8265,-1.8361,-1.8331,-1.8354,-1.838,-1.8446,-1.8329,-1.86,-1.9117,-1.9227,-1.9473,-2.002,-2.015,-2.0263,-2.0729,-2.0767,-2.0553,-3.8269,0.0,-3.6492,-3.5831,0.0,-3.404,-3.3781,-3.3997,-3.3008,-3.217,-3.1481,-3.1152,-3.0808,-3.0492,-3.0178,-2.9699,-2.9101,-2.9101,-2.8768,-2.8098,-2.8124,-2.7929,-2.7585,-2.7585,-2.7585,-2.757,-2.6941,-2.6286,-2.5639,-2.4679,-2.4534,-2.5156,-2.4523,-2.4703,-2.5611,-2.4729,-2.4715,-2.5664,-2.5006,-2.4191,-2.3301,-2.4162,-2.5007,-2.5629,-2.5673,0.0,0.0,0.0,0.0,0.0,0.0,0.0,0.0,0.0,0.0,-2.3564,-2.3727,-2.3476,-2.2623,-2.2191,-2.1551,-2.0559,-2.0138,-2.0587,-2.2169,-2.1916,-2.1934,-2.2537,-2.2043,-2.1705,-2.1736,-2.1179,-2.0818,-2.0794,-2.0351,-2.0012,-1.9988,-1.9762,-1.9579,-1.9602,-1.9845,-2.0012,-2.0012,-2.028,-2.0382,-2.0406,-2.0276,-2.0062,-1.9982,-2.0653,-2.1004,-2.0259,-1.8999,-1.8081,-1.8031,-1.7835,-1.7578,-1.7605,-1.7605,-1.7605,-1.7605,-1.7605,-1.7605,-1.7605,-1.7605,-1.777,-1.8043,-1.8167,-1.8394,-1.9044,-1.9267,-1.9497,-2.0082,-2.0264,-2.0201,-3.7258,-3.5561,-3.5211,-3.4394,-3.3275,-3.2632,-3.2303,-3.2332,0.0,0.0,0.0,-3.0806,-3.0447,-3.0298,-2.9684,-2.9041,-2.8442,-2.8412,-2.8113,-2.76,-2.7585,-2.7549,-2.7408,-2.7408,-2.7357,-2.7185,-2.6431,-2.555,-2.4492,-2.3616,-2.2983,-2.2557,-2.2311,-2.2188,-2.216,-2.1645,-2.1901,-2.2985,-2.3462,-2.31,-2.1949,-2.2235,-2.2928,-2.4018,-2.4046,-2.4493,-2.5425,-2.5453,-2.5412,-2.5232,-2.5232,-2.5135,-2.4943,-2.415,-2.3376,-2.2725,-2.1781,-2.0627,-1.9303,-1.8953,-1.8344,-1.729,-1.7219,-1.7944,-1.9682,-1.9313,-1.9355,-2.014,-1.9575,-1.9446,-2.0122,-1.9575,-1.9147,-1.9136,-1.8678,-1.8346,-1.8351,-1.7941,-1.7744,-1.765,-1.8126,-1.8346,-1.8414,-1.8747,-1.9012,-1.8983,-1.894,-1.8907,-1.895,-1.9415,-1.959,-1.8649,-1.7676,-1.7157,-1.7191,-1.7146,-1.7208,-1.7107,-1.7135,-1.7219,-1.7219,-1.7208,-1.7208,-1.7079,-1.7219,-1.7246,-1.7357,-1.7413,-1.7688,-1.8355,-1.8513,-1.8661,-1.924,-1.9423,-1.9474,-3.5862,-3.544,-3.3667,-3.2811,-3.2602,-3.1929,-3.1645,-3.163,-3.1641,-3.1582,-3.1466,-3.0806,-3.0208,-2.9696,-2.9052,-2.8368,-2.775,-2.7735,-2.769,-2.76,-2.7585,-2.7255,-2.6669,-2.6642,-2.631,-2.5671,-2.4567,-2.3942,-2.358,-2.2047,-2.1404,-2.1657,-2.0763,-2.022,-2.0207,-2.0105,-2.0169,-2.0399,-2.2566,-2.3362,-2.2708,-2.428,-2.5212,-2.5406,-2.5337,-2.5136,-2.4614,-2.4543,-2.4239,-2.3531,-2.3458,-2.3038,-2.2135,-2.1414,-2.0769,-2.0271,-1.8979,-1.837,-1.8709,-1.7623,-1.6561,-1.5826,-1.569,-1.656,-1.8478,-1.8194,-1.8289,-1.9283,-1.8876,-1.8849,-1.9329,-1.8876,-1.8496,-1.8531,-1.8076,-1.7745,-1.7684,-1.7606,-1.7495,-1.7495,-1.7661,-1.7673,-1.7662,-1.7773,-1.7812,-1.7795,-1.764,-1.7402,-1.7267,-1.7521,-1.7464,-1.6718,-1.6058,-1.573,-1.5853,-1.5748,-1.5864,-1.5719,-1.5806,-1.5882,-1.5911,-1.5911,-1.5882,-1.5777,-1.5853,-1.6054,-1.6539,-1.6652,-1.6978,-1.7578,-1.7759,-1.7841,-1.8043,-1.807,-1.8367,-3.4953,-3.3878,-3.2901,-3.2273,-3.1929,-3.163,-3.1496,-3.1496,-3.1496,-3.1496,-3.1391,-3.0447,-2.9849,-2.9532,-2.8528,-2.7899,-2.7585,-2.7585,-2.7585,-2.7575,-2.7188,-2.6826,-2.6484,-2.6081,-2.5546,-2.4872,-2.4017,-2.3269,-2.2554,-2.1381,-2.0758,-2.0632,-2.0067,-1.9798,-1.9798,-1.9798,-1.9798,-1.9837,-2.0965,-2.1432,-2.1199,-2.2062,-2.2512,-2.2498,-2.2472,-2.2181,-2.1522,-2.1767,-2.1577,-2.0888,-2.1152,-2.0914,-2.0022,-1.966,-1.9061,-1.8077,-1.7385,-1.6978,-1.689,-1.6273,-1.5748,-1.5439,-1.542,-1.577,-1.6717,-1.6569,-1.6792,-1.764,-1.719,-1.7082,-1.7702,-1.7201,-1.6825,-1.6796,-1.6558,-1.6415,-1.6404,-1.6415,-1.6415,-1.6415,-1.6415,-1.6415,-1.6415,-1.6415,-1.6415,-1.6407,-1.6297,-1.6158,-1.6036,-1.6178,-1.6315,-1.6087,-1.5703,-1.5449,-1.542,-1.542,-1.542,-1.542,-1.542,-1.542,-1.542,-1.542,-1.542,-1.542,-1.542,-1.5526,-1.5892,-1.5892,-1.6226,-1.6782,-1.7006,-1.7118,-1.744,-1.7605,-1.7988,-3.3968,-3.2527,-3.2333,-3.1974,-3.1511,-3.1496,-3.1496,-3.1496,-3.1496,-3.1421,-3.1122,-3.0073,-2.9532,-2.9262,-2.8124,-2.76,-2.7585,-2.7585,-2.7524,-2.7306,-2.6747,-2.6336,-2.5959,-2.5273,-2.4627,-2.3974,-2.3296,-2.2468,-2.1563,-2.0896,-2.0321,-1.985,-1.9798,-1.9798,-1.9798,-1.9798,-1.9798,-1.9786,-1.9685,-1.9673,-1.9798,-1.9685,-1.9623,-1.9623,-1.9635,-1.9421,-1.9058,-1.9522,-1.9483,-1.8884,-1.928,-1.9167,-1.8363,-1.8243,-1.777,-1.6849,-1.6436,-1.6007,-1.5468,-1.542,-1.542,-1.542,-1.542,-1.542,-1.542,-1.542,-1.5604,-1.6093,-1.5817,-1.572,-1.6134,-1.5797,-1.542,-1.542,-1.542,-1.5497,-1.542,-1.542,-1.542,-1.542,-1.542,-1.5439,-1.542,-1.542,-1.5468,-1.5497,-1.542,-1.542,-1.542,-1.542,-1.5576,-1.5732,-1.5625,-1.543,-1.542,-1.542,-1.542,-1.542,-1.542,-1.542,-1.542,-1.542,-1.542,-1.542,-1.542,-1.5449,-1.542,-1.5439,-1.5671,-1.6151,-1.6255,-1.6415,-1.6856,-1.7163,-1.755,-3.2676,-3.2407,-3.1854,-3.157,-3.1496,-3.1496,-3.1496,-3.1496,-3.1496,-3.1137,-3.0537,-2.9906,-2.9235,-2.8637,-2.7929,-2.7585,-2.7585,-2.7585,-2.7255,-2.6669,-2.6522,-2.5783,-2.4599,-2.3907,-2.3195,-2.249,-2.1557,-2.1049,-2.079,-2.0218,-1.9875,-1.9798,-1.9798,-1.9798,-1.9798,-1.9798,-1.9798,-1.9786,-1.9321,-1.9296,-1.9748,-1.9321,-1.907,-1.907,-1.907,-1.9058,-1.8945,-1.9522,-1.928,-1.8342,-1.8548,-1.8316,-1.7308,-1.689,-1.695,-1.7346,-1.6244,-1.5468,-1.542,-1.542,-1.542,-1.542,-1.542,-1.542,-1.542,-1.542,-1.542,-1.5497,-1.5468,-1.5468,-1.5497,-1.5439,-1.542,-1.542,-1.542,-1.542,-1.542,-1.542,-1.542,-1.542,-1.542,-1.542,-1.542,-1.542,-1.542,-1.542,-1.542,-1.542,-1.542,-1.542,-1.542,-1.5488,-1.542,-1.542,-1.542,-1.542,-1.542,-1.542,-1.542,-1.542,-1.542,-1.542,-1.542,-1.542,-1.542,-1.542,-1.542,-1.542,-1.5449,-1.5584,-1.5642,-1.5584,-1.5719,-1.6169,-1.681,-3.2258,-3.1884,-3.1615,-3.1496,-3.1496,-3.1496,-3.1496,-3.1466,-3.1062,-3.0552,-2.9951,-2.928,-2.8846,-2.8562,-2.7914,-2.7585,-2.756,-2.7152,-2.68,-2.6431,-2.5618,-2.4866,-2.4255,-2.3202,-2.242,-2.181,-2.1056,-2.0528,-2.0162,-1.9911,-1.9798,-1.9798,-1.9798,-1.9798,-1.9798,-1.9798,-1.9798,-1.9786,-1.9271,-1.9108,-1.9246,-1.8807,-1.8543,-1.8543,-1.8506,-1.8356,-1.8094,-1.8228,-1.7946,-1.7194,-1.7468,-1.7292,-1.6412,-1.6426,-1.6425,-1.6301,-1.5738,-1.542,-1.542,-1.542,-1.542,-1.542,-1.542,-1.542,-1.542,-1.542,-1.542,-1.542,-1.542,-1.542,-1.542,-1.542,-1.542,-1.542,-1.542,-1.542,-1.542,-1.542,-1.542,-1.542,-1.542,-1.542,-1.542,-1.542,-1.542,-1.542,-1.542,-1.542,-1.542,-1.542,-1.542,-1.542,-1.542,-1.542,-1.542,-1.542,-1.542,-1.542,-1.542,-1.542,-1.542,-1.542,-1.542,-1.542,-1.542,-1.542,-1.542,-1.542,-1.542,-1.542,-1.542,-1.542,-1.542,-1.5642,-1.6007,-3.1944,-3.1525,-3.1496,-3.1496,-3.1496,-3.1496,-3.1391,-3.1182,-3.0717,-3.0058,-2.9295,-2.8801,-2.8383,-2.8014,-2.7708,-2.7499,-2.7255,-2.6747,-2.627,-2.5837,-2.4753,-2.4126,-2.3683,-2.2611,-2.1794,-2.1255,-2.0717,-2.02,-1.9836,-1.9798,-1.9798,-1.9798,-1.9798,-1.9798,-1.9798,-1.9798,-1.9798,-1.9736,-1.9133,-1.8696,-1.8474,-1.7855,-1.7557,-1.767,-1.7706,-1.745,-1.6896,-1.6979,-1.6689,-1.5938,-1.6294,-1.6179,-1.5479,-1.5794,-1.5857,-1.5459,-1.542,-1.542,-1.542,-1.542,-1.542,-1.542,-1.542,-1.542,-1.542,-1.542,-1.542,-1.542,-1.542,-1.542,-1.542,-1.542,-1.542,-1.542,-1.542,-1.542,-1.542,-1.542,-1.542,-1.542,-1.542,-1.542,-1.542,-1.542,-1.5439,-1.5586,-1.5508,-1.5488,-1.5527,-1.5518,-1.542,-1.542,-1.542,-1.542,-1.542,-1.542,-1.542,-1.542,-1.542,-1.542,-1.542,-1.542,-1.542,-1.542,-1.542,-1.542,-1.542,-1.542,-1.542,-1.542,-1.542,-1.542,-1.542,-1.5439,-1.541,-3.1525,-3.1496,-3.1496,-3.1496,-3.1496,-3.1466,-3.1137,-3.0612,-3.0477,-2.9774,-2.8771,-2.8577,-2.7853,-2.6729,-2.7284,-2.7203,-2.6616,-2.6431,-2.5701,-2.4595,-2.4321,-2.3599,-2.2392,-2.181,-2.1282,-2.0779,-2.0239,-1.9874,-1.9798,-1.9798,-1.9798,-1.9798,-1.9798,-1.9798,-1.9798,-1.9747,-1.9773,-1.9621,-1.8684,-1.7956,-1.7352,-1.6346,-1.6001,-1.6419,-1.6478,-1.6197,-1.5747,-1.613,-1.588,-1.4732,-1.508,-1.4966,-1.4323,-1.4663,-1.5057,-1.5332,-1.54,-1.542,-1.542,-1.542,-1.542,-1.542,-1.542,-1.542,-1.542,-1.542,-1.542,-1.542,-1.542,-1.542,-1.542,-1.542,-1.542,-1.542,-1.542,-1.542,-1.542,-1.542,-1.542,-1.542,-1.5449,-1.5518,-1.5478,-1.542,-1.5654,-1.585,-1.5674,-1.5566,-1.585,-1.5664,-1.5459,-1.5449,-1.5439,-1.542,-1.542,-1.542,-1.542,-1.542,-1.542,-1.542,-1.542,-1.542,-1.542,-1.542,-1.542,-1.542,-1.542,-1.542,-1.542,-1.542,-1.542,-1.542,-1.542,-1.542,-1.542,-3.1496,-3.1496,-3.1496,-3.1496,-3.1451,-3.1047,-3.0717,-3.0432,-2.9624,-2.9056,-2.8577,-2.8169,-2.7425,-2.651,-2.6774,-2.6496,-2.5797,-2.5315,-2.4794,-2.4234,-2.3767,-2.3103,-2.2326,-2.1744,-2.1232,-2.0679,-2.0101,-1.9798,-1.9798,-1.9798,-1.9798,-1.9798,-1.9798,-1.9798,-1.9721,-1.9319,-1.9097,-1.8962,-1.7679,-1.6913,-1.685,-1.5703,-1.5084,-1.5108,-1.5242,-1.5211,-1.5013,-1.4849,-1.4502,-1.4092,-1.4098,-1.3995,-1.3825,-1.4404,-1.4844,-1.501,-1.5264,-1.542,-1.542,-1.542,-1.542,-1.542,-1.542,-1.542,-1.542,-1.542,-1.542,-1.542,-1.542,-1.542,-1.542,-1.542,-1.542,-1.542,-1.542,-1.542,-1.542,-1.542,-1.542,-1.5459,-1.5635,-1.5918,-1.6112,-1.6219,-1.6201,-1.6105,-1.5948,-1.5938,-1.5968,-1.5693,-1.5478,-1.5684,-1.5596,-1.542,-1.542,-1.542,-1.542,-1.542,-1.542,-1.542,-1.542,-1.542,-1.542,-1.542,-1.542,-1.542,-1.542,-1.542,-1.542,-1.542,-1.542,-1.542,-1.542,-1.542,-1.542,-3.1496,-3.1466,-3.1256,-3.1167,-3.1092,-3.0477,-3.0073,-2.9819,-2.8981,-2.8487,-2.8177,-2.7565,-2.6852,-2.6176,-2.5892,-2.5356,-2.4682,-2.4366,-2.4176,-2.3884,-2.3335,-2.2719,-2.2083,-2.1656,-2.1119,-2.0439,-2.0025,-1.9798,-1.9798,-1.9798,-1.9669,-1.9462,-1.9449,-1.9307,-1.9044,-1.8581,-1.8328,-1.8058,-1.705,-1.6395,-1.6177,-1.5186,-1.4387,-1.4032,-1.4031,-1.4118,-1.4118,-1.3718,-1.3505,-1.3484,-1.3382,-1.3369,-1.3564,-1.4316,-1.4785,-1.4834,-1.5186,-1.542,-1.542,-1.542,-1.542,-1.542,-1.542,-1.542,-1.542,-1.542,-1.542,-1.542,-1.542,-1.542,-1.542,-1.542,-1.542,-1.542,-1.542,-1.542,-1.543,-1.5547,-1.5703,-1.5859,-1.6123,-1.6416,-1.6629,-1.6668,-1.665,-1.6506,-1.631,-1.6134,-1.6222,-1.5791,-1.5478,-1.5791,-1.5576,-1.5439,-1.542,-1.542,-1.542,-1.542,-1.542,-1.542,-1.542,-1.542,-1.542,-1.542,-1.542,-1.542,-1.542,-1.542,-1.542,-1.542,-1.542,-1.542,-1.542,-1.542,-1.542,-3.1481,-3.1361,-3.0806,-3.0537,-3.0432,-2.9861,-2.9205,-2.8771,-2.854,-2.8085,-2.752,-2.6814,-2.6081,-2.537,-2.4809,-2.3972,-2.3501,-2.3914,-2.3826,-2.3245,-2.3088,-2.2481,-2.1594,-2.1443,-2.0865,-1.9924,-1.9823,-1.9798,-1.9798,-1.9695,-1.9371,-1.8859,-1.8715,-1.8421,-1.766,-1.7677,-1.7605,-1.7428,-1.687,-1.621,-1.5283,-1.4667,-1.3978,-1.3185,-1.3076,-1.3041,-1.3002,-1.2978,-1.2978,-1.2978,-1.2949,-1.3086,-1.3496,-1.4258,-1.4784,-1.4795,-1.5156,-1.5391,-1.542,-1.542,-1.542,-1.542,-1.542,-1.542,-1.542,-1.542,-1.542,-1.542,-1.542,-1.542,-1.542,-1.5459,-1.5488,-1.543,-1.5488,-1.5498,-1.5586,-1.586,-1.6261,-1.6551,-1.6728,-1.6716,-1.6736,-1.6843,-1.6982,-1.7041,-1.6711,-1.6388,-1.6582,-1.6045,-1.5527,-1.5518,-1.5508,-1.543,-1.542,-1.542,-1.542,-1.542,-1.542,-1.542,-1.542,-1.542,-1.542,-1.542,-1.542,-1.542,-1.542,-1.542,-1.542,-1.542,-1.542,-1.542,-1.542,-1.542,-1.542,-3.1227,-3.0821,-3.0597,-3.0253,-2.9819,-2.9175,-2.8771,-2.851,-2.7604,-2.7042,-2.6736,-2.6068,-2.5342,-2.4738,-2.4379,-2.3855,-2.3168,-2.3365,-2.3335,-2.3062,-2.2749,-2.2209,-2.1584,-2.1131,-2.0566,-1.9911,-1.9798,-1.9798,-1.9683,-1.9281,-1.8912,-1.8661,-1.8178,-1.7852,-1.7523,-1.7118,-1.6849,-1.6729,-1.5894,-1.5343,-1.5217,-1.431,-1.3769,-1.3698,-1.3193,-1.2915,-1.2915,-1.2915,-1.2915,-1.2915,-1.2915,-1.2964,-1.3203,-1.3877,-1.4289,-1.4377,-1.5019,-1.542,-1.542,-1.542,-1.542,-1.542,-1.542,-1.542,-1.542,-1.542,-1.542,-1.542,-1.542,-1.542,-1.5459,-1.5693,-1.5889,-1.5889,-1.5889,-1.5986,-1.624,-1.6436,-1.6709,-1.709,-1.7178,-1.7295,-1.7519,-1.7578,-1.75,-1.7402,-1.7142,-1.7021,-1.6992,-1.6406,-1.6055,-1.623,-1.5889,-1.5498,-1.5518,-1.5547,-1.5537,-1.5498,-1.5469,-1.542,-1.542,-1.542,-1.542,-1.542,-1.542,-1.542,-1.542,-1.542,-1.542,-1.542,-1.542,-1.542,-1.542,-1.542,-1.542,-3.1107,-3.0492,-3.0253,-2.9789,-2.916,-2.8502,-2.8244,-2.8106,-2.7317,-2.6747,-2.6416,-2.5742,-2.4992,-2.4337,-2.4002,-2.3573,-2.3125,-2.3095,-2.2995,-2.2794,-2.2481,-2.2008,-2.143,-2.0704,-2.0214,-1.9874,-1.9798,-1.9657,-1.9371,-1.8927,-1.8409,-1.7879,-1.7424,-1.7024,-1.68,-1.634,-1.6093,-1.5957,-1.5413,-1.5,-1.4785,-1.416,-1.3763,-1.3763,-1.3232,-1.3101,-1.3281,-1.3203,-1.3062,-1.2944,-1.2915,-1.2964,-1.3135,-1.3769,-1.4182,-1.4455,-1.498,-1.542,-1.542,-1.542,-1.542,-1.542,-1.542,-1.542,-1.542,-1.542,-1.5449,-1.5625,-1.5664,-1.5723,-1.5928,-1.6133,-1.6367,-1.6584,-1.6437,-1.6523,-1.6865,-1.6973,-1.7168,-1.749,-1.7617,-1.7764,-1.793,-1.7998,-1.792,-1.7666,-1.7513,-1.7416,-1.7236,-1.6758,-1.6641,-1.6523,-1.626,-1.5937,-1.5723,-1.5684,-1.5674,-1.5605,-1.5537,-1.5469,-1.542,-1.542,-1.542,-1.542,-1.542,-1.542,-1.542,-1.542,-1.542,-1.542,-1.542,-1.542,-1.542,-1.542,-1.542,-3.1092,-3.0417,-2.9861,-2.9217,-2.8517,-2.7899,-2.7675,-2.7604,-2.7357,-2.6904,-2.631,-2.5425,-2.4781,-2.4118,-2.3514,-2.3185,-2.3095,-2.3095,-2.2895,-2.2518,-2.2259,-2.1857,-2.1142,-2.03,-1.9834,-1.9669,-1.9669,-1.9307,-1.8661,-1.8421,-1.7895,-1.6793,-1.6539,-1.6122,-1.5709,-1.5439,-1.5497,-1.5488,-1.5371,-1.4933,-1.4338,-1.4055,-1.3948,-1.3662,-1.3252,-1.3291,-1.3821,-1.3701,-1.335,-1.3023,-1.2993,-1.315,-1.3486,-1.3899,-1.4394,-1.4727,-1.5176,-1.5371,-1.542,-1.542,-1.542,-1.542,-1.542,-1.542,-1.542,-1.5498,-1.5654,-1.5987,-1.6085,-1.624,-1.6531,-1.6707,-1.6911,-1.7266,-1.707,-1.707,-1.7353,-1.7412,-1.7578,-1.7861,-1.7998,-1.8008,-1.8008,-1.8008,-1.7988,-1.792,-1.7666,-1.7529,-1.7314,-1.6982,-1.6602,-1.6475,-1.6445,-1.6357,-1.6123,-1.6113,-1.6064,-1.5811,-1.5713,-1.5596,-1.5449,-1.542,-1.542,-1.542,-1.542,-1.542,-1.542,-1.542,-1.542,-1.542,-1.542,-1.542,-1.542,-1.542,-1.542,-3.0823,-2.9834,-2.9666,-2.8948,-2.7929,-2.766,-2.7585,-2.7433,-2.6428,-2.6,-2.5453,-2.4266,-2.3738,-2.3424,-2.3215,-2.3095,-2.3095,-2.3095,-2.307,-2.2769,-2.202,-2.1154,-2.0401,-1.9987,-1.9527,-1.9123,-1.9071,-1.862,-1.7868,-1.744,-1.6912,-1.6521,-1.594,-1.5633,-1.542,-1.54,-1.542,-1.5361,-1.5098,-1.5049,-1.4894,-1.4094,-1.3965,-1.4402,-1.373,-1.3617,-1.4055,-1.4007,-1.3769,-1.3389,-1.334,-1.3379,-1.3594,-1.4199,-1.4648,-1.4834,-1.5166,-1.542,-1.542,-1.542,-1.542,-1.542,-1.5449,-1.542,-1.543,-1.5713,-1.5948,-1.6153,-1.6338,-1.6611,-1.6746,-1.6999,-1.7383,-1.7734,-1.7656,-1.7656,-1.7773,-1.7842,-1.79,-1.7988,-1.8008,-1.8008,-1.8008,-1.8008,-1.8008,-1.7988,-1.7891,-1.7725,-1.75,-1.7363,-1.7051,-1.6748,-1.6619,-1.6631,-1.6582,-1.6572,-1.6426,-1.6124,-1.5948,-1.5791,-1.5596,-1.542,-1.542,-1.542,-1.542,-1.542,-1.542,-1.542,-1.542,-1.542,-1.542,-1.542,-1.542,-1.542,-1.542,-3.0507,-2.9592,-2.9307,-2.8573,-2.7645,-2.7585,-2.7433,-2.7008,-2.6283,-2.5481,-2.4838,-2.4047,-2.3424,-2.3138,-2.3095,-2.3095,-2.3095,-2.3095,-2.2957,-2.2556,-2.1672,-2.0704,-1.9987,-1.9798,-1.9553,-1.9176,-1.8821,-1.8313,-1.7605,-1.6866,-1.6285,-1.5794,-1.5524,-1.5322,-1.5146,-1.5313,-1.542,-1.5371,-1.5156,-1.5117,-1.5049,-1.4453,-1.4346,-1.46,-1.4131,-1.3948,-1.4319,-1.4414,-1.4209,-1.3841,-1.3779,-1.3848,-1.4062,-1.451,-1.4891,-1.5019,-1.5283,-1.542,-1.542,-1.542,-1.542,-1.5459,-1.5547,-1.5703,-1.5771,-1.6084,-1.6367,-1.6692,-1.6875,-1.707,-1.7243,-1.751,-1.7734,-1.793,-1.8008,-1.8008,-1.8008,-1.7988,-1.8008,-1.8008,-1.8008,-1.8008,-1.8008,-1.8008,-1.8008,-1.8008,-1.7998,-1.7861,-1.7715,-1.7637,-1.748,-1.7119,-1.7038,-1.7158,-1.707,-1.7012,-1.6953,-1.6643,-1.625,-1.6084,-1.5771,-1.5527,-1.5459,-1.5459,-1.543,-1.542,-1.542,-1.542,-1.542,-1.542,-1.542,-1.542,-1.542,-1.542,-1.542,-3.0208,-2.9577,-2.8978,-2.8237,-2.7533,-2.7458,-2.7034,-2.6443,-2.6149,-2.5425,-2.4509,-2.4221,-2.3619,-2.3095,-2.3095,-2.3095,-2.3095,-2.3095,-2.2757,-2.2221,-2.1408,-2.0566,-2.0062,-1.9642,-1.9423,-1.915,-1.8768,-1.795,-1.7163,-1.6557,-1.5871,-1.5335,-1.5312,-1.5215,-1.5107,-1.5264,-1.54,-1.5391,-1.5273,-1.5146,-1.4961,-1.4687,-1.4629,-1.4814,-1.4609,-1.4502,-1.4766,-1.4834,-1.4668,-1.426,-1.4211,-1.4375,-1.4735,-1.4813,-1.5019,-1.5283,-1.5381,-1.542,-1.542,-1.542,-1.5459,-1.5557,-1.5889,-1.6124,-1.6222,-1.6543,-1.6914,-1.722,-1.7402,-1.7588,-1.7812,-1.7969,-1.7969,-1.8008,-1.8008,-1.8008,-1.8008,-1.8008,-1.8008,-1.8008,-1.8008,-1.8008,-1.8008,-1.8008,-1.8008,-1.8008,-1.7988,-1.7871,-1.7812,-1.7783,-1.7598,-1.7334,-1.7471,-1.7773,-1.7617,-1.7451,-1.7373,-1.722,-1.6707,-1.6395,-1.6016,-1.5771,-1.5605,-1.5527,-1.5518,-1.5469,-1.542,-1.542,-1.542,-1.542,-1.542,-1.542,-1.542,-1.542,-1.542,-3.0599,-2.9606,-2.9445,-2.8376,-2.6875,-2.6707,-2.631,-2.5618,-2.5035,-2.4652,-2.4192,-2.3649,-2.3305,-2.3095,-2.3095,-2.3095,-2.3095,-2.307,-2.2807,-2.2243,-2.1656,-2.1043,-2.0318,-1.9499,-1.8661,-1.8178,-1.7357,-1.6641,-1.6026,-1.5882,-1.5535,-1.5312,-1.5293,-1.5361,-1.5273,-1.5303,-1.542,-1.5361,-1.5117,-1.5107,-1.5107,-1.466,-1.4678,-1.5137,-1.5137,-1.5156,-1.5234,-1.5273,-1.5196,-1.505,-1.4844,-1.4717,-1.4853,-1.5098,-1.5283,-1.5361,-1.542,-1.542,-1.542,-1.5449,-1.5566,-1.5889,-1.6085,-1.6242,-1.6602,-1.6992,-1.7256,-1.7451,-1.7676,-1.7871,-1.7978,-1.8008,-1.8008,-1.8008,-1.8008,-1.8008,-1.8008,-1.8008,-1.8008,-1.8008,-1.8008,-1.8008,-1.8008,-1.8008,-1.8008,-1.8008,-1.7949,-1.7852,-1.7861,-1.7891,-1.7744,-1.7539,-1.7686,-1.792,-1.7861,-1.7705,-1.7646,-1.7578,-1.7194,-1.6941,-1.6531,-1.6152,-1.6045,-1.583,-1.5605,-1.5537,-1.543,-1.542,-1.542,-1.542,-1.542,-1.542,-1.542,-1.542,-1.5508,-3.0028,-2.9089,-2.8411,-2.7521,-2.6541,-2.6122,-2.5563,-2.4894,-2.4494,-2.4089,-2.3708,-2.3245,-2.3095,-2.3095,-2.3095,-2.3095,-2.3095,-2.3095,-2.2957,-2.2518,-2.1907,-2.1163,-2.0299,-1.9076,-1.8058,-1.7879,-1.6996,-1.6283,-1.5921,-1.5536,-1.5322,-1.5156,-1.5274,-1.5254,-1.5195,-1.5284,-1.541,-1.5362,-1.5215,-1.5195,-1.5254,-1.5019,-1.4825,-1.5312,-1.542,-1.542,-1.54,-1.541,-1.541,-1.5361,-1.5205,-1.5078,-1.5098,-1.5283,-1.54,-1.542,-1.542,-1.542,-1.543,-1.5605,-1.585,-1.6105,-1.6437,-1.6799,-1.708,-1.7432,-1.7646,-1.7715,-1.7861,-1.8008,-1.8008,-1.8008,-1.8008,-1.8008,-1.8008,-1.8008,-1.8008,-1.8008,-1.8008,-1.8008,-1.8008,-1.8008,-1.8008,-1.8008,-1.8008,-1.8008,-1.8008,-1.792,-1.793,-1.7949,-1.792,-1.7822,-1.79,-1.7954,-1.7988,-1.793,-1.7871,-1.7803,-1.7666,-1.7506,-1.733,-1.6943,-1.6594,-1.6251,-1.583,-1.5527,-1.542,-1.542,-1.5439,-1.542,-1.542,-1.542,-1.5498,-1.5644,-1.5752,-2.9205,-2.8456,-2.7089,-2.6383,-2.6082,-2.5481,-2.4823,-2.4176,-2.4118,-2.3721,-2.3215,-2.3095,-2.3095,-2.3095,-2.3095,-2.3095,-2.3095,-2.3083,-2.3007,-2.2711,-2.1666,-2.0945,-2.0015,-1.8581,-1.7711,-1.8243,-1.6916,-1.6236,-1.6036,-1.5728,-1.5273,-1.5019,-1.5225,-1.5273,-1.5068,-1.5205,-1.542,-1.54,-1.5381,-1.5361,-1.54,-1.5342,-1.5361,-1.5391,-1.542,-1.542,-1.542,-1.542,-1.542,-1.542,-1.542,-1.542,-1.542,-1.542,-1.542,-1.542,-1.542,-1.5478,-1.5625,-1.588,-1.6114,-1.6282,-1.6907,-1.7353,-1.7529,-1.7734,-1.7891,-1.7959,-1.8008,-1.8008,-1.8008,-1.8008,-1.8008,-1.8008,-1.8008,-1.8008,-1.8008,-1.8008,-1.8008,-1.8008,-1.8008,-1.8008,-1.8008,-1.8008,-1.8008,-1.8008,-1.8008,-1.8008,-1.8008,-1.7998,-1.7959,-1.7949,-1.7988,-1.7998,-1.8008,-1.8008,-1.7959,-1.7939,-1.7891,-1.7891,-1.7842,-1.7412,-1.6917,-1.6406,-1.6025,-1.5762,-1.5576,-1.5586,-1.5566,-1.5478,-1.5527,-1.5684,-1.5781,-1.5908,-1.6035,-2.9071,-2.8306,-2.6976,-2.5754,-2.475,-2.4538,-2.4018,-2.3395,-2.3365,-2.3245,-2.3138,-2.3095,-2.3095,-2.3095,-2.3095,-2.3095,-2.3095,-2.3032,-2.2832,-2.2343,-2.1305,-2.0478,-1.9713,-1.803,-1.7155,-1.6985,-1.6279,-1.57,-1.5633,-1.542,-1.5342,-1.5322,-1.5371,-1.5322,-1.5312,-1.5391,-1.542,-1.542,-1.542,-1.542,-1.542,-1.542,-1.542,-1.542,-1.542,-1.542,-1.542,-1.542,-1.542,-1.542,-1.542,-1.5439,-1.5508,-1.5508,-1.5498,-1.5488,-1.5537,-1.5693,-1.5937,-1.6085,-1.6515,-1.6995,-1.7367,-1.7578,-1.7803,-1.7949,-1.7998,-1.8008,-1.8008,-1.8008,-1.8008,-1.8008,-1.8008,-1.8008,-1.8008,-1.8008,-1.8008,-1.8008,-1.8008,-1.8008,-1.8008,-1.8008,-1.8008,-1.8008,-1.8008,-1.8008,-1.8008,-1.8008,-1.8008,-1.8008,-1.7998,-1.7988,-1.7998,-1.8008,-1.8008,-1.8008,-1.7988,-1.7988,-1.7959,-1.7959,-1.7861,-1.7598,-1.7168,-1.6738,-1.6416,-1.6161,-1.6025,-1.5889,-1.5801,-1.5791,-1.5859,-1.5987,-1.6144,-1.6289,-1.6482,-2.802,-2.7292,-2.5922,-2.4949,-2.429,-2.3826,-2.3484,-2.3125,-2.3095,-2.3095,-2.3095,-2.3095,-2.3095,-2.3095,-2.3095,-2.3095,-2.3045,-2.2769,-2.256,-2.2056,-2.1144,-2.0017,-1.9361,-1.7649,-1.6803,-1.6308,-1.5673,-1.542,-1.542,-1.541,-1.542,-1.541,-1.542,-1.542,-1.542,-1.541,-1.542,-1.542,-1.542,-1.542,-1.542,-1.542,-1.543,-1.542,-1.543,-1.542,-1.542,-1.542,-1.5537,-1.5713,-1.5752,-1.5879,-1.6006,-1.6064,-1.5986,-1.585,-1.5947,-1.6122,-1.6426,-1.6582,-1.7014,-1.7328,-1.7559,-1.7783,-1.7949,-1.7998,-1.8008,-1.8008,-1.8008,-1.8008,-1.8008,-1.8008,-1.8008,-1.8008,-1.8008,-1.8008,-1.8008,-1.8008,-1.8008,-1.8008,-1.8008,-1.8008,-1.8008,-1.8008,-1.8008,-1.8008,-1.8008,-1.8008,-1.8008,-1.8008,-1.8008,-1.8008,-1.8008,-1.8008,-1.8008,-1.8008,-1.8008,-1.8008,-1.8008,-1.8008,-1.7969,-1.7744,-1.75,-1.7158,-1.6885,-1.6629,-1.6453,-1.6348,-1.623,-1.6143,-1.6289,-1.6426,-1.6533,-1.6658,-1.6828,-2.6953,-2.6361,-2.4721,-2.406,-2.3943,-2.3395,-2.3095,-2.3095,-2.3095,-2.3095,-2.3095,-2.3095,-2.3032,-2.2945,-2.292,-2.292,-2.2895,-2.2485,-2.2284,-2.1806,-2.0695,-1.9503,-1.8572,-1.7497,-1.6584,-1.592,-1.5517,-1.542,-1.542,-1.542,-1.542,-1.542,-1.542,-1.542,-1.542,-1.542,-1.542,-1.542,-1.542,-1.543,-1.5518,-1.5547,-1.5547,-1.5566,-1.5615,-1.5684,-1.5615,-1.5752,-1.5918,-1.6123,-1.6261,-1.6348,-1.6629,-1.6775,-1.6689,-1.6476,-1.6611,-1.6697,-1.6934,-1.71,-1.7324,-1.7568,-1.7832,-1.7969,-1.8008,-1.8008,-1.8008,-1.8008,-1.8008,-1.8008,-1.8008,-1.8008,-1.8008,-1.8008,-1.8008,-1.8008,-1.8008,-1.8008,-1.8008,-1.8008,-1.8008,-1.8008,-1.8008,-1.8008,-1.8008,-1.8008,-1.8008,-1.8008,-1.8008,-1.8008,-1.8008,-1.8008,-1.8008,-1.8008,-1.8008,-1.8008,-1.8008,-1.8008,-1.8008,-1.8008,-1.8008,-1.7959,-1.7705,-1.749,-1.7383,-1.7135,-1.696,-1.6765,-1.6638,-1.6609,-1.6746,-1.6843,-1.6943,-1.6921,-1.6983,-2.6482,-2.6215,-2.4125,-2.3245,-2.3275,-2.3155,-2.3095,-2.3095,-2.3095,-2.3095,-2.3095,-2.307,-2.2857,-2.2531,-2.2431,-2.2435,-2.2359,-2.2209,-2.1863,-2.1241,-1.9805,-1.8759,-1.8025,-1.6403,-1.6152,-1.5743,-1.5537,-1.5439,-1.542,-1.542,-1.542,-1.542,-1.542,-1.542,-1.542,-1.5488,-1.542,-1.543,-1.5449,-1.5635,-1.5928,-1.6016,-1.6016,-1.6105,-1.625,-1.6287,-1.6114,-1.625,-1.6492,-1.6611,-1.6629,-1.6648,-1.6755,-1.7119,-1.7256,-1.7139,-1.7012,-1.6914,-1.7246,-1.7412,-1.7578,-1.7793,-1.7969,-1.7998,-1.8008,-1.8008,-1.8008,-1.8008,-1.8008,-1.8008,-1.8008,-1.8008,-1.8008,-1.8008,-1.8008,-1.8008,-1.8008,-1.8008,-1.8008,-1.8008,-1.8008,-1.8008,-1.8008,-1.8008,-1.8008,-1.8008,-1.8008,-1.8008,-1.8008,-1.8008,-1.8008,-1.8008,-1.8008,-1.8008,-1.8008,-1.8008,-1.8008,-1.8008,-1.8008,-1.8008,-1.8008,-1.8008,-1.8008,-1.7822,-1.7725,-1.7539,-1.7213,-1.7058,-1.7019,-1.7109,-1.7207,-1.7266,-1.7314,-1.7269,-1.7262,-2.5841,-2.5672,-2.3857,-2.3095,-2.3095,-2.3095,-2.3095,-2.3095,-2.3095,-2.3095,-2.3095,-2.3095,-2.2794,-2.2343,-2.2322,-2.2121,-2.1845,-2.1597,-2.1045,-2.0431,-1.9159,-1.812,-1.7276,-1.6454,-1.6083,-1.5684,-1.5537,-1.543,-1.542,-1.5449,-1.542,-1.543,-1.543,-1.542,-1.5537,-1.5684,-1.5762,-1.5859,-1.6016,-1.6219,-1.6396,-1.6445,-1.6436,-1.6445,-1.6619,-1.6621,-1.6572,-1.6592,-1.6853,-1.7012,-1.71,-1.7236,-1.7379,-1.7627,-1.7734,-1.7725,-1.7588,-1.7578,-1.7715,-1.7725,-1.7842,-1.793,-1.8008,-1.8008,-1.8008,-1.8008,-1.8008,-1.8008,-1.8008,-1.8008,-1.8008,-1.8008,-1.8008,-1.8008,-1.8008,-1.8008,-1.8008,-1.8008,-1.8008,-1.8008,-1.8047,-1.8135,-1.8193,-1.8174,-1.8125,-1.8008,-1.8008,-1.8008,-1.8008,-1.8008,-1.8008,-1.8008,-1.8008,-1.8008,-1.8008,-1.8008,-1.8008,-1.8008,-1.8008,-1.8008,-1.8008,-1.8008,-1.8008,-1.8008,-1.791,-1.7695,-1.7451,-1.7471,-1.7529,-1.7568,-1.7607,-1.7627,-1.7646,-1.7701,-1.7692,-2.53,-2.4992,-2.3679,-2.3095,-2.3095,-2.3095,-2.3095,-2.3095,-2.3095,-2.3095,-2.3058,-2.2945,-2.2569,-2.2196,-2.2033,-2.1769,-2.1295,-2.088,-2.0271,-1.9603,-1.8725,-1.7705,-1.6853,-1.6293,-1.5944,-1.5566,-1.5664,-1.5723,-1.5801,-1.5781,-1.5781,-1.5596,-1.582,-1.5801,-1.5859,-1.6055,-1.623,-1.626,-1.6463,-1.6687,-1.6865,-1.6894,-1.6863,-1.6892,-1.6973,-1.7002,-1.6882,-1.7028,-1.7295,-1.7451,-1.7539,-1.7666,-1.7881,-1.791,-1.7949,-1.7949,-1.7881,-1.79,-1.7939,-1.7949,-1.8008,-1.8008,-1.8008,-1.8008,-1.8008,-1.8008,-1.8008,-1.8008,-1.8008,-1.8008,-1.8008,-1.8008,-1.8008,-1.8008,-1.8008,-1.8008,-1.8047,-1.8174,-1.8281,-1.833,-1.8408,-1.8506,-1.8516,-1.8428,-1.8291,-1.8066,-1.8008,-1.8037,-1.8057,-1.8105,-1.8066,-1.8086,-1.8066,-1.8057,-1.8027,-1.8018,-1.8018,-1.8008,-1.8008,-1.8008,-1.8008,-1.8008,-1.8008,-1.8008,-1.8008,-1.792,-1.7725,-1.7871,-1.7998,-1.7891,-1.7822,-1.79,-1.7959,-1.8008,-1.7828,-2.5007,-2.4292,-2.3454,-2.3095,-2.3095,-2.3095,-2.3095,-2.3095,-2.3095,-2.3095,-2.3045,-2.2631,-2.218,-2.1732,-2.1631,-2.1355,-2.0817,-2.0743,-2.0155,-1.9305,-1.8302,-1.7351,-1.6534,-1.5984,-1.5822,-1.5988,-1.6036,-1.624,-1.6482,-1.6463,-1.6328,-1.6144,-1.6309,-1.6492,-1.6551,-1.6551,-1.6707,-1.6726,-1.6872,-1.7028,-1.7246,-1.7334,-1.7344,-1.7422,-1.7646,-1.7744,-1.7425,-1.7607,-1.7783,-1.7891,-1.7871,-1.7871,-1.7988,-1.8008,-1.8008,-1.8008,-1.8008,-1.8008,-1.8008,-1.8008,-1.8008,-1.8008,-1.8008,-1.8008,-1.8008,-1.8008,-1.8008,-1.8008,-1.8008,-1.8008,-1.8008,-1.8008,-1.8018,-1.8135,-1.8193,-1.8252,-1.835,-1.8535,-1.8623,-1.8646,-1.876,-1.8848,-1.8896,-1.8818,-1.8682,-1.8467,-1.8389,-1.8408,-1.832,-1.832,-1.8223,-1.8193,-1.8154,-1.8115,-1.8057,-1.8066,-1.8135,-1.8066,-1.8008,-1.8008,-1.8008,-1.8008,-1.8008,-1.8008,-1.8008,-1.8008,-1.8008,-1.8008,-1.8008,-1.8008,-1.8008,-1.8008,-1.8008,-1.8008,-1.7613,-2.4567,-2.4221,-2.3424,-2.3095,-2.3095,-2.3095,-2.3095,-2.3095,-2.3095,-2.3095,-2.3095,-2.2857,-2.2481,-2.2033,-2.1594,-2.1393,-2.1066,-2.039,-1.9755,-1.9055,-1.821,-1.7191,-1.6378,-1.6128,-1.6201,-1.6222,-1.6359,-1.6514,-1.6658,-1.697,-1.7051,-1.6943,-1.6855,-1.6677,-1.6736,-1.7009,-1.7246,-1.7408,-1.7457,-1.7627,-1.7686,-1.7764,-1.7773,-1.7803,-1.7861,-1.7939,-1.7803,-1.791,-1.7988,-1.8008,-1.8008,-1.8008,-1.8008,-1.8008,-1.8008,-1.8008,-1.8008,-1.8018,-1.8037,-1.8027,-1.8008,-1.8008,-1.8008,-1.8008,-1.8008,-1.8008,-1.8008,-1.8008,-1.8027,-1.8066,-1.8027,-1.8027,-1.8076,-1.8256,-1.8403,-1.8481,-1.8672,-1.8877,-1.9014,-1.9046,-1.9111,-1.916,-1.9199,-1.9219,-1.9062,-1.8896,-1.8828,-1.876,-1.8672,-1.8643,-1.8584,-1.8564,-1.8555,-1.8477,-1.8428,-1.8369,-1.8291,-1.8164,-1.8037,-1.8008,-1.8008,-1.8008,-1.8008,-1.8008,-1.8008,-1.8008,-1.8008,-1.8008,-1.8008,-1.8008,-1.8008,-1.8008,-1.8008,-1.8008,-1.7681,-2.4176,-2.3884,-2.3335,-2.3095,-2.3095,-2.3095,-2.3095,-2.3095,-2.3095,-2.3095,-2.3095,-2.3083,-2.2807,-2.2284,-2.1744,-2.1493,-2.1204,-2.0571,-1.9794,-1.9219,-1.8632,-1.7592,-1.6788,-1.6412,-1.6582,-1.6545,-1.6719,-1.6941,-1.7184,-1.7451,-1.751,-1.7441,-1.7295,-1.7165,-1.7194,-1.7402,-1.7725,-1.7939,-1.8008,-1.8008,-1.7998,-1.7988,-1.7988,-1.7978,-1.7998,-1.7998,-1.7959,-1.7998,-1.7998,-1.8008,-1.8008,-1.8008,-1.8008,-1.8008,-1.8008,-1.8018,-1.8027,-1.8032,-1.8154,-1.8066,-1.8018,-1.8008,-1.8008,-1.8008,-1.8008,-1.8018,-1.8008,-1.8027,-1.8105,-1.8193,-1.8223,-1.8379,-1.8555,-1.8809,-1.8792,-1.8906,-1.9092,-1.9287,-1.9394,-1.9492,-1.958,-1.9756,-1.9775,-1.9805,-1.9482,-1.9287,-1.9082,-1.9043,-1.9043,-1.9033,-1.9072,-1.9072,-1.9092,-1.8994,-1.8887,-1.8701,-1.8471,-1.8305,-1.8203,-1.8037,-1.8008,-1.8027,-1.8027,-1.8008,-1.8008,-1.8008,-1.8008,-1.8008,-1.8008,-1.8008,-1.8008,-1.8008,-1.8008,-1.8008,-1.8008,-2.3826,-2.3155,-2.3125,-2.3095,-2.3095,-2.3095,-2.3095,-2.3095,-2.3095,-2.3095,-2.3095,-2.3095,-2.2844,-2.2347,-2.187,-2.1707,-2.1594,-2.1029,-2.0477,-2.012,-1.9544,-1.8698,-1.7841,-1.7324,-1.7182,-1.7308,-1.7383,-1.7539,-1.7828,-1.7852,-1.791,-1.792,-1.7793,-1.7803,-1.7949,-1.7969,-1.7998,-1.8008,-1.8008,-1.8008,-1.8008,-1.8008,-1.8008,-1.8008,-1.8008,-1.8008,-1.8008,-1.8008,-1.8008,-1.8008,-1.8008,-1.8037,-1.8105,-1.8105,-1.8115,-1.8164,-1.8135,-1.8247,-1.8529,-1.8232,-1.8174,-1.8213,-1.8311,-1.8242,-1.8115,-1.8086,-1.8184,-1.835,-1.8457,-1.8559,-1.875,-1.8926,-1.9082,-1.9238,-1.9258,-1.9385,-1.958,-1.9727,-1.9853,-1.9912,-2.0244,-2.0556,-2.0537,-2.0439,-1.999,-1.9687,-1.9394,-1.9336,-1.9434,-1.9521,-1.9609,-1.9639,-1.9648,-1.9473,-1.9307,-1.8945,-1.8685,-1.852,-1.8412,-1.835,-1.8203,-1.8139,-1.8135,-1.8057,-1.8008,-1.8008,-1.8008,-1.8008,-1.8008,-1.8008,-1.8008,-1.8008,-1.8008,-1.8008,-1.8008,-2.3335,-2.3095,-2.3095,-2.3095,-2.3095,-2.3095,-2.3095,-2.3095,-2.3095,-2.3095,-2.3095,-2.3095,-2.3032,-2.2681,-2.2347,-2.2159,-2.2347,-2.1581,-2.1128,-2.0931,-2.048,-1.9317,-1.8506,-1.83,-1.8031,-1.7612,-1.7617,-1.787,-1.7969,-1.8008,-1.8008,-1.8008,-1.8008,-1.8008,-1.7998,-1.8008,-1.8008,-1.8008,-1.8008,-1.8008,-1.8018,-1.8037,-1.8057,-1.8066,-1.8076,-1.8076,-1.8057,-1.8066,-1.8066,-1.8057,-1.8066,-1.8139,-1.8325,-1.8428,-1.8555,-1.874,-1.8838,-1.8906,-1.9043,-1.8916,-1.8877,-1.8857,-1.8789,-1.8769,-1.8838,-1.8848,-1.8857,-1.8838,-1.8936,-1.9053,-1.9141,-1.917,-1.9316,-1.9629,-1.9756,-1.9941,-2.0117,-2.0234,-2.038,-2.039,-2.0595,-2.0605,-2.0615,-2.0615,-2.0312,-2.0224,-1.9989,-2.0018,-2.0116,-2.0204,-2.0282,-2.0282,-2.0215,-1.999,-1.9746,-1.9414,-1.9134,-1.9033,-1.8936,-1.8838,-1.8672,-1.8432,-1.832,-1.8271,-1.8135,-1.8008,-1.8066,-1.8096,-1.8027,-1.8008,-1.8008,-1.8008,-1.8008,-1.8008,-1.8008,-2.3095,-2.3095,-2.3095,-2.3095,-2.3095,-2.3095,-2.3095,-2.3095,-2.3095,-2.3095,-2.3095,-2.3095,-2.3083,-2.2932,-2.2619,-2.2581,-2.2957,-2.2217,-2.1984,-2.177,-2.1433,-2.0599,-1.9946,-1.9468,-1.9026,-1.8393,-1.8205,-1.8395,-1.8008,-1.8008,-1.8008,-1.8008,-1.8008,-1.8008,-1.8008,-1.8008,-1.8105,-1.8184,-1.8291,-1.8369,-1.8457,-1.8516,-1.8506,-1.8506,-1.8486,-1.8437,-1.8291,-1.8232,-1.8232,-1.8223,-1.8247,-1.8403,-1.8721,-1.8906,-1.9014,-1.9219,-1.9443,-1.9463,-1.9502,-1.9707,-1.9707,-1.9736,-1.9502,-1.9297,-1.9277,-1.9189,-1.9199,-1.9248,-1.9424,-1.9492,-1.9502,-1.9512,-1.9775,-2.0098,-2.0166,-2.0342,-2.0381,-2.0537,-2.0556,-2.0595,-2.0605,-2.0605,-2.0615,-2.0615,-2.0517,-2.0546,-2.0566,-2.0615,-2.0615,-2.0615,-2.0615,-2.0586,-2.0576,-2.0361,-2.0107,-1.9902,-1.9687,-1.9531,-1.9385,-1.9258,-1.9082,-1.8867,-1.8672,-1.8535,-1.8574,-1.8525,-1.8271,-1.8184,-1.8115,-1.8047,-1.8008,-1.8008,-1.8008,-1.8008,-1.8008,-2.3095,-2.3095,-2.3095,-2.3095,-2.3095,-2.3095,-2.3095,-2.3095,-2.3095,-2.3095,-2.3095,-2.3095,-2.3095,-2.3007,-2.2556,-2.2644,-2.297,-2.2548,-2.2627,-2.2643,-2.2226,-2.173,-2.1339,-2.0873,-1.9976,-1.9454,-1.9077,-1.863,-1.811,-1.8008,-1.8008,-1.8008,-1.8008,-1.8066,-1.8086,-1.8164,-1.8256,-1.8412,-1.8643,-1.8779,-1.8955,-1.9102,-1.9053,-1.9043,-1.9033,-1.8906,-1.8769,-1.8627,-1.8627,-1.8627,-1.8637,-1.8936,-1.915,-1.9297,-1.9307,-1.9453,-1.9785,-1.9883,-1.998,-2.0244,-2.039,-2.0282,-1.9805,-1.9482,-1.9434,-1.9561,-1.9609,-1.9668,-1.9795,-1.9873,-1.9932,-2.0166,-2.0429,-2.0517,-2.0517,-2.0566,-2.0576,-2.0595,-2.0595,-2.0605,-2.0605,-2.0615,-2.0615,-2.0615,-2.0615,-2.0615,-2.0615,-2.0615,-2.0615,-2.0615,-2.0615,-2.0605,-2.0595,-2.0605,-2.0391,-2.0205,-2.0127,-1.9941,-1.9727,-1.957,-1.9414,-1.9277,-1.9121,-1.9062,-1.917,-1.9033,-1.8539,-1.8286,-1.8193,-1.8135,-1.8052,-1.8057,-1.8076,-1.8018,-1.7974,-2.3095,-2.3095,-2.3095,-2.3095,-2.3095,-2.3095,-2.3095,-2.3095,-2.3095,-2.3095,-2.3095,-2.3095,-2.3095,-2.307,-2.2932,-2.2982,-2.2982,-2.2982,-2.297,-2.2907,-2.2763,-2.2372,-2.199,-2.1585,-2.059,-1.9781,-1.9233,-1.8954,-1.8168,-1.8008,-1.8008,-1.8008,-1.8008,-1.8154,-1.8295,-1.8412,-1.8539,-1.8705,-1.8984,-1.9209,-1.9326,-1.9394,-1.9385,-1.9394,-1.9404,-1.9268,-1.916,-1.9102,-1.9102,-1.9102,-1.9102,-1.9307,-1.9687,-1.9756,-1.9805,-2.0214,-2.037,-2.0381,-2.0439,-2.0537,-2.0615,-2.0615,-2.0302,-2.0312,-2.0243,-2.0155,-2.0098,-2.0117,-2.0146,-2.0225,-2.0254,-2.0478,-2.0615,-2.0615,-2.0615,-2.0615,-2.0615,-2.0615,-2.0615,-2.0615,-2.0615,-2.0615,-2.0615,-2.0615,-2.0615,-2.0615,-2.0615,-2.0615,-2.0615,-2.0615,-2.0615,-2.0615,-2.0615,-2.0615,-2.0615,-2.042,-2.0458,-2.039,-2.0155,-1.9922,-1.9814,-1.9687,-1.957,-1.9502,-1.9482,-1.916,-1.8656,-1.844,-1.8229,-1.8222,-1.8178,-1.8139,-1.8125,-1.8057,-1.7974,-2.3095,-2.3095,-2.3095,-2.3095,-2.3095,-2.3095,-2.3095,-2.3095,-2.3095,-2.3095,-2.3095,-2.3095,-2.3095,-2.3095,-2.3083,-2.3083,-2.3083,-2.307,-2.3083,-2.3083,-2.3095,-2.2823,-2.2506,-2.2218,-2.1353,-2.0386,-1.9617,-1.9266,-1.8327,-1.8008,-1.8008,-1.8008,-1.8008,-1.8271,-1.851,-1.8744,-1.9014,-1.9199,-1.9404,-1.9609,-1.9697,-1.9793,-1.9832,-1.9793,-1.9793,-1.9725,-1.9541,-1.9531,-1.9531,-1.9531,-1.9541,-1.9746,-2.0088,-2.0185,-2.0215,-2.0537,-2.0556,-2.0566,-2.0566,-2.0576,-2.0615,-2.0615,-2.0615,-2.0576,-2.0556,-2.0478,-2.0498,-2.0517,-2.0556,-2.0595,-2.0595,-2.0615,-2.0615,-2.0615,-2.0615,-2.0615,-2.0615,-2.0615,-2.0615,-2.0615,-2.0615,-2.0615,-2.0615,-2.0615,-2.0615,-2.0615,-2.0615,-2.0615,-2.0615,-2.0615,-2.0615,-2.0615,-2.0615,-2.0615,-2.0615,-2.0615,-2.0576,-2.0546,-2.0488,-2.0283,-2.0195,-2.0137,-2.0049,-1.9883,-1.9697,-1.9358,-1.8986,-1.851,-1.8272,-1.823,-1.811,-1.7954,-1.7918,-1.8037,-1.7974,-2.3095,-2.3095,-2.3095,-2.3095,-2.3095,-2.3095,-2.3095,-2.3095,-2.3095,-2.3095,-2.3095,-2.3095,-2.3095,-2.3095,-2.3095,-2.3095,-2.3095,-2.3095,-2.3095,-2.3095,-2.3095,-2.2975,-2.3005,-2.2944,-2.1865,-2.1037,-2.0301,-1.9562,-1.8395,-1.8018,-1.8037,-1.8037,-1.8105,-1.8373,-1.889,-1.9189,-1.9482,-1.9824,-1.9941,-2.0078,-2.039,-2.0546,-2.0615,-2.0546,-2.0478,-2.0352,-2.0068,-1.9961,-1.9971,-1.9971,-2.0019,-2.0195,-2.04,-2.0546,-2.0576,-2.0586,-2.0605,-2.0615,-2.0615,-2.0615,-2.0615,-2.0615,-2.0615,-2.0615,-2.0615,-2.0615,-2.0615,-2.0615,-2.0615,-2.0615,-2.0615,-2.0615,-2.0615,-2.0615,-2.0615,-2.0615,-2.0615,-2.0615,-2.0615,-2.0615,-2.0615,-2.0615,-2.0615,-2.0615,-2.0615,-2.0615,-2.0615,-2.0615,-2.0615,-2.0615,-2.0615,-2.0615,-2.0615,-2.0615,-2.0615,-2.0615,-2.0615,-2.0605,-2.0615,-2.0586,-2.04,-2.0488,-2.0586,-2.0351,-2.0049,-1.9743,-1.9372,-1.9014,-1.8592,-1.8216,-1.8014,-1.7694,-1.771,-1.7781,-1.7647,-2.3095,-2.3095,-2.3095,-2.3095,-2.3095,-2.3095,-2.3095,-2.3095,-2.3095,-2.3095,-2.3095,-2.3095,-2.3095,-2.3095,-2.3095,-2.3095,-2.3095,-2.3095,-2.3095,-2.3095,-2.3095,-2.3095,-2.3095,-2.3035,-2.2125,-2.1101,-2.0333,-1.9661,-1.8381,-1.8047,-1.8193,-1.8412,-1.8471,-1.8763,-1.9397,-1.9687,-1.9902,-2.0293,-2.0352,-2.0419,-2.0566,-2.0615,-2.0615,-2.0615,-2.0576,-2.0566,-2.0361,-2.0381,-2.0439,-2.0449,-2.0449,-2.0517,-2.0595,-2.0605,-2.0615,-2.0615,-2.0615,-2.0615,-2.0615,-2.0615,-2.0615,-2.0615,-2.0615,-2.0615,-2.0615,-2.0615,-2.0615,-2.0615,-2.0615,-2.0615,-2.0615,-2.0615,-2.0615,-2.0615,-2.0615,-2.0615,-2.0615,-2.0615,-2.0615,-2.0615,-2.0615,-2.0615,-2.0615,-2.0615,-2.0615,-2.0615,-2.0615,-2.0615,-2.0615,-2.0615,-2.0615,-2.0615,-2.0615,-2.0615,-2.0615,-2.0615,-2.0615,-2.0615,-2.0615,-2.0615,-2.0615,-2.0615,-2.0605,-2.0595,-2.0381,-1.986,-1.9582,-1.9764,-1.9298,-1.848,-1.799,-1.7715,-1.7296,-1.7245,-1.706,-2.2895,-2.3095,-2.3095,-2.3095,-2.3095,-2.3095,-2.3095,-2.3095,-2.3095,-2.3095,-2.3095,-2.3095,-2.3095,-2.3095,-2.3095,-2.3095,-2.3095,-2.3095,-2.3095,-2.3095,-2.3095,-2.3095,-2.3095,-2.3065,-2.2341,-2.1353,-2.0268,-1.9309,-1.8285,-1.8217,-1.8432,-1.8656,-1.8802,-1.9248,-1.9863,-1.9951,-2.0146,-2.0566,-2.0605,-2.0615,-2.0615,-2.0615,-2.0615,-2.0615,-2.0615,-2.0615,-2.0615,-2.0615,-2.0605,-2.0605,-2.0576,-2.0576,-2.0605,-2.0605,-2.0615,-2.0615,-2.0615,-2.0615,-2.0615,-2.0615,-2.0615,-2.0615,-2.0615,-2.0615,-2.0615,-2.0615,-2.0615,-2.0615,-2.0615,-2.0615,-2.0615,-2.0615,-2.0615,-2.0615,-2.0615,-2.0615,-2.0615,-2.0615,-2.0615,-2.0615,-2.0615,-2.0615,-2.0615,-2.0615,-2.0615,-2.0615,-2.0615,-2.0615,-2.0615,-2.0615,-2.0615,-2.0615,-2.0615,-2.0615,-2.0615,-2.0615,-2.0615,-2.0615,-2.0615,-2.0615,-2.0615,-2.0615,-2.0605,-2.0518,-2.0216,-1.9506,-1.9399,-1.927,-1.9106,-1.8286,-1.7963,-1.7743,-1.7284,-1.6712,-1.6235,-2.2569,-2.297,-2.2995,-2.3045,-2.3095,-2.3095,-2.3095,-2.3095,-2.3095,-2.3095,-2.3095,-2.3095,-2.3095,-2.3095,-2.3095,-2.3095,-2.3095,-2.3095,-2.3095,-2.3095,-2.3095,-2.3095,-2.3095,-2.3035,-2.2445,-2.1517,-2.0325,-1.9412,-1.8506,-1.8626,-1.8734,-1.8822,-1.918,-1.959,-1.9863,-2.0039,-2.0244,-2.0527,-2.0615,-2.0615,-2.0615,-2.0615,-2.0615,-2.0615,-2.0615,-2.0615,-2.0615,-2.0615,-2.0615,-2.0615,-2.0615,-2.0615,-2.0615,-2.0615,-2.0615,-2.0615,-2.0615,-2.0615,-2.0615,-2.0615,-2.0615,-2.0615,-2.0615,-2.0615,-2.0615,-2.0615,-2.0615,-2.0615,-2.0615,-2.0625,-2.0625,-2.0674,-2.0674,-2.0762,-2.0762,-2.0752,-2.0752,-2.0723,-2.0713,-2.0693,-2.0625,-2.0625,-2.0615,-2.0615,-2.0615,-2.0615,-2.0615,-2.0615,-2.0615,-2.0615,-2.0615,-2.0615,-2.0615,-2.0615,-2.0615,-2.0615,-2.0615,-2.0615,-2.0615,-2.0615,-2.0615,-2.0615,-2.0566,-2.044,-2.0012,-1.9149,-1.8306,-1.7906,-1.7754,-1.783,-1.76,-1.7337,-1.7071,-1.6451,-1.5429,-2.2372,-2.2443,-2.2472,-2.2694,-2.3058,-2.3095,-2.3095,-2.3095,-2.3095,-2.3095,-2.3095,-2.3095,-2.3095,-2.3095,-2.3095,-2.3095,-2.3095,-2.3095,-2.3095,-2.3095,-2.3095,-2.3095,-2.3145,-2.319,-2.2622,-2.1678,-2.0655,-1.9834,-1.9088,-1.9078,-1.9326,-1.959,-1.9668,-2.0,-2.039,-2.0439,-2.0439,-2.0615,-2.0615,-2.0615,-2.0615,-2.0615,-2.0615,-2.0615,-2.0615,-2.0615,-2.0615,-2.0615,-2.0615,-2.0615,-2.0615,-2.0615,-2.0615,-2.0615,-2.0615,-2.0615,-2.0615,-2.0615,-2.0615,-2.0615,-2.0615,-2.0615,-2.0615,-2.0615,-2.0615,-2.0615,-2.0615,-2.0625,-2.0644,-2.0683,-2.0742,-2.0957,-2.1035,-2.1201,-2.1269,-2.1221,-2.1191,-2.1094,-2.1016,-2.085,-2.0693,-2.0664,-2.0615,-2.0615,-2.0615,-2.0615,-2.0615,-2.0615,-2.0615,-2.0615,-2.0615,-2.0615,-2.0615,-2.0615,-2.0615,-2.0615,-2.0615,-2.0615,-2.0527,-2.045,-2.045,-2.0566,-2.0527,-2.0118,-1.9441,-1.8541,-1.7738,-1.6723,-1.7001,-1.7111,-1.6998,-1.6785,-1.663,-1.6191,-1.5194]},{"header":{"parameterUnit":"m.s-1","parameterCategory":1,"la1":31.0,"la2":29.5877,"lo1":-88.7671,"lo2":-86.6584,"dy":0.0162,"dx":0.0185,"nx":115,"ny":88,"refTime":"2026-04-14T12:00:00:Z","depth":0,"parameterNumber":3,"parameterNumberName":"V-component_of_WINDS"},"data":[0.0,0.0,0.0,0.0,0.0,0.0,0.0,0.0,0.0,0.0,0.0,0.0,0.0,0.0,0.0,0.0,0.0,0.0,0.0,0.0,0.0,0.0,0.0,0.0,0.0,0.0,0.0,0.0,0.0,0.0,0.0,0.0,0.0,0.0,0.0,0.0,0.0,0.0,0.0,0.0,0.0,0.0,0.0,0.0,0.0,0.0,0.0,0.0,0.0,0.0,0.0,0.0,0.0,0.0,0.0,0.0,0.0,0.0,0.0,0.0,0.0,0.0,0.0,0.0,0.0,0.0,0.0,0.0,0.0,0.0,0.0,0.0,0.0,0.0,0.0,0.0,0.0,0.0,0.0,0.0,0.0,0.0,0.0,0.0,0.0,0.0,0.0,0.0,0.0,0.0,0.0,0.0,0.0,0.0,0.0,0.0,0.0,0.0,0.0,0.0,0.0,0.0,0.0,0.0,0.0,0.0,0.0,0.0,0.0,0.0,0.0,0.0,0.0,0.0,0.0,0.0,0.0,0.0,0.0,0.0,0.0,0.0,0.0,0.0,0.0,0.0,0.0,0.0,0.0,0.0,0.0,0.0,0.0,0.0,0.0,0.0,0.0,0.0,0.0,0.0,0.0,0.0,0.0,0.0,0.0,0.0,0.0,0.0,0.0,0.0,0.0,0.0,0.0,0.0,0.0,0.0,0.0,0.0,0.0,0.0,0.0,0.0,0.0,0.0,0.0,0.0,0.0,0.0,0.0,0.0,0.0,0.0,0.0,0.0,0.0,0.0,0.0,0.0,0.0,0.0,0.0,0.0,0.0,0.0,0.0,0.0,0.0,0.0,0.0,0.0,0.0,0.0,0.0,0.0,0.0,0.0,0.0,0.0,0.0,0.0,0.0,0.0,0.0,0.0,0.0,0.0,0.0,0.0,0.0,0.0,0.0,0.0,0.0,0.0,0.0,0.0,0.0,0.0,0.0,0.0,0.0,0.0,0.0,0.0,0.0,0.0,0.0,0.0,0.0,0.0,0.0,0.0,0.0,0.0,0.0,0.0,0.0,0.0,0.0,0.0,0.0,0.0,0.0,0.0,0.0,0.0,0.0,0.0,0.0,0.0,0.0,0.0,0.0,0.0,0.0,0.0,0.0,0.0,0.0,0.0,0.0,0.0,0.0,0.0,0.0,0.0,0.0,0.0,0.0,0.0,0.0,0.0,0.0,0.0,0.0,0.0,0.0,0.0,0.0,0.0,0.0,0.0,0.0,0.0,0.0,0.0,0.0,0.0,0.0,0.0,0.0,0.0,0.0,0.0,0.0,0.0,0.0,0.0,0.0,0.0,0.0,0.0,0.0,0.0,0.0,0.0,0.0,0.0,0.0,0.0,0.0,0.0,0.0,0.0,0.0,0.0,0.0,0.0,0.0,0.0,0.0,0.0,0.0,0.0,0.0,0.0,0.0,0.0,0.0,0.0,0.0,0.0,0.0,0.0,0.0,0.0,0.0,0.0,0.0,0.0,0.0,0.0,0.0,0.0,0.0,0.0,0.0,0.0,0.0,0.0,0.0,0.0,0.0,0.0,0.0,0.0,0.0,0.0,0.0,0.0,0.0,0.0,0.0,0.0,0.0,0.0,0.0,0.0,0.0,0.0,0.0,0.0,0.0,0.0,0.0,0.0,0.0,0.0,0.0,0.0,0.0,0.0,0.0,0.0,0.0,0.0,0.0,0.0,0.0,0.0,0.0,0.0,0.0,0.0,0.0,0.0,0.0,0.0,0.0,0.0,0.0,0.0,0.0,0.0,0.0,0.0,0.0,0.0,0.0,0.0,0.0,0.0,0.0,0.0,0.0,0.0,0.0,0.0,0.0,0.0,0.0,0.0,0.0,0.0,0.0,0.0,0.0,0.0,0.0,0.0,0.0,0.0,0.0,0.0,0.0,0.0,0.0,0.0,0.0,0.0,0.0,0.0,0.0,0.0,0.0,0.0,0.0,0.0,0.0,0.0,0.0,0.0,0.0,0.0,0.0,0.0,0.0,0.0,0.0,0.0,0.0,0.0,0.0,0.0,0.0,0.0,0.0,0.0,0.0,0.0,0.0,0.0,0.0,0.0,0.0,0.0,0.0,0.0,0.0,0.0,0.0,0.0,0.0,0.0,0.0,0.0,0.0,0.0,0.0,0.0,0.0,0.0,0.0,0.0,0.0,0.0,0.0,0.0,0.0,0.0,0.0,0.0,0.0,0.0,0.0,0.0,0.0,0.0,0.0,0.0,0.0,0.0,0.0,0.0,0.0,0.0,0.0,0.0,0.0,0.0,0.0,0.0,0.0,0.0,0.0,0.0,0.0,0.0,0.0,0.0,0.0,0.0,0.0,0.0,0.0,0.0,0.0,0.0,0.0,0.0,0.0,0.0,0.0,0.0,0.0,0.0,0.0,0.0,0.0,0.0,0.0,0.0,0.0,0.0,0.0,0.0,0.0,0.0,0.0,0.0,0.0,0.0,0.0,0.0,0.0,0.0,0.0,0.0,0.0,0.0,0.0,0.0,0.0,0.0,0.0,0.0,0.0,0.0,0.0,0.0,0.0,0.0,0.0,0.0,0.0,0.0,0.0,0.0,0.0,0.0,0.0,0.0,0.0,0.0,0.0,0.0,0.0,0.0,0.0,0.0,0.0,0.0,0.0,0.0,0.0,0.0,0.0,0.0,0.0,0.0,0.0,0.0,0.0,0.0,0.0,0.0,0.0,0.0,0.0,0.0,0.0,0.0,0.0,0.0,0.0,0.0,0.0,0.0,0.0,0.0,0.0,0.0,0.0,0.0,0.0,0.0,0.0,0.0,0.0,0.0,0.0,0.0,0.0,0.0,0.0,0.0,0.0,0.0,0.0,0.0,0.0,0.0,0.0,0.0,0.0,0.0,0.0,0.0,0.0,0.0,0.0,0.0,0.0,0.0,0.0,0.0,0.0,0.0,0.0,0.0,0.0,0.0,0.0,0.0,0.0,0.0,0.0,0.0,0.0,0.0,0.0,0.0,0.0,0.0,0.0,0.0,0.0,0.0,0.0,0.0,0.0,0.0,0.0,0.0,0.0,0.0,0.0,0.0,0.0,0.0,0.0,0.0,0.0,0.0,0.0,0.0,0.0,0.0,0.0,0.0,0.0,0.0,0.0,0.0,0.0,0.0,0.0,0.0,0.0,0.0,0.0,0.0,0.0,0.0,0.0,0.0,0.0,0.0,0.0,0.0,0.0,0.0,0.0,0.0,0.0,0.0,0.0,0.0,0.0,0.0,0.0,0.0,0.0,0.0,0.0,0.0,0.0,0.0,0.0,0.0,0.0,0.0,0.0,0.0,0.0,0.0,0.0,0.0,0.0,0.0,0.0,0.0,0.0,0.0,0.0,0.0,0.0,0.0,0.0,0.0,0.0,0.0,0.0,0.0,0.0,0.0,0.0,0.0,0.0,0.0,0.0,0.0,0.0,0.0,0.0,0.0,0.0,0.0,0.0,0.0,0.0,0.0,0.0,0.0,0.0,0.0,0.0,0.0,0.0,0.0,0.0,0.0,0.0,0.0,0.0,0.0,0.0,0.0,0.0,0.0,0.0,0.0,0.0,0.0,0.0,0.0,0.0,0.0,0.0,0.0,0.0,0.0,0.0,0.0,0.0,0.0,0.0,0.0,0.0,0.0,0.0,0.0,0.0,0.0,0.0,0.0,0.0,0.0,0.0,0.0,0.0,0.0,0.0,0.0,0.0,0.0,0.0,0.0,0.0,0.0,0.0,0.0,0.0,0.0,0.0,0.0,0.0,0.0,0.0,0.0,0.0,0.0,0.0,0.0,0.0,0.0,0.0,0.0,0.0,0.0,0.0,0.0,0.0,0.0,0.0,0.0,0.0,0.0,0.0,0.0,0.0,0.0,0.0,0.0,0.0,0.0,0.0,0.0,0.0,0.0,0.0,0.0,0.0,0.0,0.0,0.0,0.0,0.0,0.0,0.0,0.0,0.0,0.0,0.0,0.0,0.0,0.0,0.0,0.0,0.0,0.0,0.0,0.0,0.0,0.0,0.0,0.0,0.0,0.0,0.0,0.0,0.0,0.0,0.0,0.0,0.0,0.0,0.0,0.0,0.0,0.0,0.0,0.0,0.0,0.0,0.0,0.0,0.0,0.0,0.0,0.0,0.0,0.0,0.0,0.0,0.0,0.0,0.0,0.0,0.0,0.0,0.0,0.0,0.0,0.0,0.0,0.0,0.0,0.0,0.0,0.0,0.0,0.0,0.0,0.0,0.0,-0.98,0.0,0.0,0.0,0.0,0.0,0.0,0.0,0.0,0.0,0.0,0.0,0.0,0.0,0.0,0.0,0.0,0.0,0.0,0.0,0.0,0.0,0.0,0.0,0.0,0.0,0.0,0.0,0.0,0.0,0.0,0.0,0.0,0.0,0.0,0.0,0.0,0.0,0.0,0.0,0.0,0.0,0.0,0.0,0.0,0.0,0.0,0.0,0.0,0.0,0.0,0.0,0.0,0.0,0.0,0.0,0.0,0.0,0.0,0.0,0.0,0.0,0.0,0.0,0.0,0.0,0.0,0.0,0.0,0.0,0.0,0.0,0.0,0.0,0.0,0.0,0.0,0.0,0.0,0.0,0.0,0.0,0.0,0.0,0.0,0.0,0.0,0.0,0.0,0.0,0.0,0.0,0.0,0.0,0.0,0.0,0.0,0.0,0.0,0.0,0.0,0.0,0.0,0.0,0.0,0.0,0.0,0.0,0.0,0.0,0.0,0.1059,-0.4977,-0.5066,-0.6587,-0.9979,0.0,0.0,0.0,0.0,0.0,0.0,0.0,0.0,0.0,0.0,0.0,0.0,0.0,0.0,0.0,0.0,0.0,0.0,0.0,0.0,0.0,0.0,0.0,0.0,0.0,0.0,0.0,0.0,0.0,0.0,0.0,0.0,0.0,0.0,0.0,0.0,0.0,0.0,0.0,0.0,0.0,0.0,0.0,0.0,0.0,0.0,0.0,0.0,0.0,0.0,0.0,0.0,0.0,0.0,0.0,0.0,0.0,0.0,0.0,0.0,0.0,0.0,0.0,0.0,0.0,0.0,0.0,0.0,0.0,0.0,0.0,0.0,0.0,0.0,0.0,0.0,0.0,0.0,0.0,0.0,0.0,0.0,0.0,0.0,0.0,0.0,0.0,0.0,0.0,0.0,0.0,0.0,0.0,0.0,0.0,0.0,0.0,0.0,0.0,0.0,0.0,0.0,0.0,0.0,0.0,0.0,0.0,0.0,0.0,0.0,0.0,0.0,-0.4889,-0.6587,-0.9979,0.0,0.0,0.0,0.0,0.0,0.0,0.0,0.0,0.0,0.0,0.0,0.0,0.0,0.0,0.0,0.0,0.0,0.0,0.0,0.0,0.0,0.0,0.0,0.0,0.0,0.0,0.0,0.0,0.0,0.0,0.0,0.0,0.0,0.0,0.0,0.0,0.0,0.0,0.0,0.0,0.0,0.0,0.0,0.0,0.0,0.0,0.0,0.0,0.0,0.0,0.0,0.0,0.0,0.0,0.0,0.0,0.0,0.0,0.0,0.0,0.0,0.0,0.0,0.0,0.0,0.0,0.0,0.0,0.0,0.0,0.0,0.0,0.0,0.0,0.0,0.0,0.0,0.0,0.0,0.0,0.0,0.0,0.0,0.0,0.0,0.0,0.0,0.0,0.0,0.0,0.0,0.0,0.0,0.0,0.0,0.0,0.0,0.0,0.0,0.0,0.0,0.0,0.0,0.0,0.0,0.0,0.0,0.0,0.0,0.0,0.2508,-0.2749,-0.4237,0.0,-0.9564,0.0,0.0,0.0,0.0,0.0,0.0,0.0,0.0,0.0,0.0,0.0,0.0,0.0,0.0,0.0,0.0,0.0,0.0,0.0,0.0,0.0,0.0,0.0,0.0,0.0,0.0,0.0,0.0,0.0,0.0,0.0,0.0,0.0,0.0,0.0,0.0,0.0,0.0,0.0,0.0,0.0,0.0,0.0,0.0,0.0,0.0,0.0,0.0,0.0,0.0,0.0,0.0,0.0,0.0,0.0,0.0,0.0,0.0,0.0,0.0,0.0,0.0,0.0,0.0,0.0,0.0,0.0,0.0,0.0,0.0,0.0,0.0,0.0,0.0,0.0,0.0,0.0,0.0,0.0,0.0,0.0,0.0,0.0,0.0,0.0,0.0,0.0,0.0,0.0,0.0,0.0,0.0,0.0,0.0,0.0,0.0,0.0,0.0,0.0,0.0,0.0,0.0,0.0,0.0,0.0,0.0,0.0,0.0,0.0,0.0,0.2542,-0.2584,-0.5148,-0.7495,0.0,0.0,0.0,0.0,0.0,0.0,0.0,0.0,0.0,0.0,0.0,0.0,0.0,0.0,0.0,0.0,0.0,0.0,0.0,0.0,0.0,0.0,0.0,0.0,0.0,0.0,0.0,0.0,0.0,0.0,0.0,0.0,0.0,0.0,0.0,0.0,0.0,0.0,0.0,0.0,0.0,0.0,0.0,0.0,0.0,0.0,0.0,0.0,0.0,0.0,0.0,0.0,0.0,0.0,0.0,0.0,0.0,0.0,0.0,0.0,0.0,0.0,0.0,0.0,0.0,0.0,0.0,0.0,0.0,0.0,0.0,0.0,0.0,0.0,0.0,0.0,0.0,0.0,0.0,0.0,0.0,0.0,0.0,0.0,0.0,0.0,0.0,0.0,0.0,0.0,0.0,0.0,0.0,0.0,0.0,0.0,0.0,0.0,0.0,0.0,0.0,0.0,0.0,0.0,0.0,0.0,0.0,0.0,0.0,0.0,0.5195,0.2306,-0.3044,-0.5586,-0.7736,-0.9559,0.0,0.0,0.0,0.0,0.0,0.0,0.0,0.0,0.0,0.0,0.0,0.0,0.0,0.0,0.0,0.0,0.0,0.0,0.0,0.0,0.0,0.0,0.0,0.0,0.0,0.0,0.0,0.0,0.0,0.0,0.0,0.0,0.0,0.0,0.0,0.0,0.0,0.0,0.0,0.0,0.0,0.0,0.0,0.0,0.0,0.0,0.0,0.0,0.0,0.0,0.0,0.0,0.0,0.0,0.0,0.0,0.0,0.0,0.0,0.0,0.0,0.0,0.0,0.0,0.0,0.0,0.0,0.0,0.0,0.0,0.0,0.0,0.0,0.0,0.0,0.0,0.0,0.0,0.0,0.0,0.0,0.0,0.0,0.0,0.0,0.0,0.0,0.0,0.0,0.0,0.0,0.0,0.0,0.0,0.0,0.0,0.0,0.0,0.0,0.0,0.0,0.0,0.0,0.0,0.0,0.0,0.0,0.0,0.0,0.5718,0.1757,-0.4531,-0.4961,-0.6434,0.0,0.0,0.0,0.0,0.0,0.0,0.0,0.0,0.0,0.0,0.0,0.0,0.0,0.0,0.0,0.0,0.0,0.0,0.0,0.0,0.0,0.0,0.0,0.0,0.0,0.0,0.0,0.0,0.0,0.0,0.0,0.0,0.0,0.0,0.0,0.0,0.0,0.0,0.0,0.0,0.0,0.0,0.0,0.0,0.0,0.0,0.0,0.0,0.0,0.0,0.0,0.0,0.0,0.0,0.0,0.0,0.0,0.0,0.0,0.0,0.0,0.0,0.0,0.0,0.0,0.0,0.0,0.0,0.0,0.0,0.0,0.0,0.0,0.0,0.0,0.0,0.0,0.0,0.0,0.0,0.0,0.0,0.0,0.0,0.0,0.0,0.0,0.0,0.0,0.0,0.0,0.0,0.0,0.0,0.0,0.0,0.0,0.0,0.0,0.0,0.0,0.0,0.0,0.0,0.0,0.0,0.0,0.0,0.0,0.7398,0.4773,0.0753,-0.4579,-0.4807,-0.6279,0.0,0.0,0.0,0.0,0.0,0.0,0.0,0.0,0.0,0.0,0.0,0.0,0.0,0.0,0.0,0.0,0.0,0.0,0.0,0.0,0.0,0.0,0.0,0.0,0.0,0.0,0.0,0.0,0.0,0.0,0.0,0.0,0.0,0.0,0.0,0.0,0.0,0.0,0.0,0.0,0.0,0.0,0.0,0.0,0.0,0.0,0.0,0.0,0.0,0.0,0.0,0.0,0.0,0.0,0.0,0.0,0.0,0.0,0.0,0.0,0.0,0.0,0.0,0.0,0.0,0.0,0.0,0.0,0.0,0.0,0.0,0.0,0.0,0.0,0.0,0.0,0.0,0.0,0.0,0.0,0.0,0.0,0.0,0.0,0.0,0.0,0.0,0.0,0.0,0.0,0.0,0.0,0.0,0.0,0.0,0.0,0.0,0.0,0.0,0.0,0.0,0.0,0.0,0.0,0.0,0.0,0.0,0.0,0.0,0.6602,0.0,0.0686,0.0,-0.4745,-0.6193,0.0,0.0,0.0,0.0,0.0,0.0,0.0,0.0,0.0,0.0,0.0,0.0,0.0,0.0,0.0,0.0,0.0,0.0,0.0,0.0,0.0,0.0,0.0,0.0,0.0,0.0,0.0,0.0,0.0,0.0,0.0,0.0,0.0,0.0,0.0,0.0,0.0,0.0,0.0,0.0,0.0,0.0,0.0,0.0,0.0,0.0,0.0,0.0,0.0,0.0,0.0,0.0,0.0,0.0,0.0,0.0,0.0,0.0,0.0,0.0,0.0,0.0,0.0,0.0,0.0,0.0,0.0,0.0,0.0,0.0,0.0,0.0,0.0,0.0,0.0,0.0,0.0,0.0,0.0,0.0,0.0,0.0,0.0,0.0,0.0,0.0,0.0,0.0,0.0,0.0,0.0,0.0,0.0,0.0,0.0,0.0,0.0,0.0,0.0,0.0,0.0,0.0,0.0,0.0,0.0,0.0,0.0,0.0,0.8221,0.51,0.4856,0.1596,-0.4606,-0.484,-0.625,0.0,0.0,0.0,0.0,0.0,0.0,0.0,0.0,0.0,0.0,0.0,0.0,0.0,0.0,0.0,0.0,0.0,0.0,0.0,0.0,0.0,0.0,0.0,0.0,0.0,0.0,0.0,0.0,0.0,0.0,0.0,0.0,0.0,0.0,0.0,0.0,0.0,0.0,0.0,0.0,0.0,0.0,0.0,0.0,0.0,0.0,0.0,0.0,0.0,0.0,0.0,0.0,0.0,0.0,0.0,0.0,0.0,0.0,0.0,0.0,0.0,0.0,0.0,0.0,0.0,0.0,0.0,0.0,0.0,0.0,0.0,0.0,0.0,0.0,0.0,0.0,0.0,0.0,0.0,0.0,0.0,0.0,0.0,0.0,0.0,0.0,0.0,0.0,0.0,0.0,0.0,0.0,0.0,0.0,0.0,0.0,0.0,0.0,0.0,0.0,0.0,0.0,0.0,0.0,0.0,0.0,0.0,0.0,0.0,0.4838,0.3776,0.0612,-0.4664,-0.5747,-0.7181,0.0,0.0,0.0,0.0,0.0,0.0,0.0,0.0,0.0,0.0,0.0,0.0,0.0,0.0,0.0,0.0,0.0,0.0,0.0,0.0,0.0,0.0,0.0,0.0,0.0,0.0,0.0,0.0,0.0,0.0,0.0,0.0,0.0,0.0,0.0,0.0,0.0,0.0,0.0,0.0,0.0,0.0,0.0,0.0,0.0,0.0,0.0,0.0,0.0,0.0,0.0,0.0,0.0,0.0,0.0,0.0,0.0,0.0,0.0,0.0,0.0,0.0,0.0,0.0,0.0,0.0,0.0,0.0,0.0,0.0,0.0,0.0,0.0,0.0,0.0,0.0,0.0,0.0,0.0,0.0,0.0,0.0,0.0,0.0,0.0,0.0,0.0,0.0,0.0,0.0,0.0,0.0,0.0,0.0,0.0,0.0,0.0,0.0,0.0,0.0,0.0,0.0,0.0,0.0,0.0,0.0,0.0,0.0,0.0,0.4821,0.3856,0.0728,-0.475,-0.5643,-0.7089,-0.9258,0.0,0.0,0.0,0.0,0.0,0.0,0.0,0.0,0.0,0.0,0.0,0.0,0.0,0.0,0.0,0.0,0.0,0.0,0.0,0.0,0.0,0.0,0.0,0.0,0.0,0.0,0.0,0.0,0.0,0.0,0.0,0.0,0.0,0.0,0.0,0.0,0.0,0.0,0.0,0.0,0.0,0.0,0.0,0.0,0.0,0.0,0.0,0.0,0.0,0.0,0.0,0.0,0.0,0.0,0.0,0.0,0.0,0.0,0.0,0.0,0.0,0.0,0.0,0.0,0.0,0.0,0.0,0.0,0.0,0.0,0.0,0.0,0.0,0.0,0.0,0.0,0.0,0.0,0.0,0.0,0.0,0.0,0.0,0.0,0.0,0.0,0.0,0.0,0.0,0.0,0.0,0.0,0.0,0.0,0.0,0.0,0.0,0.0,0.0,0.0,0.0,0.0,0.0,0.0,0.0,0.0,0.0,0.0,0.4791,0.4807,0.173,-0.4609,-0.49,-0.6264,0.0,0.0,0.0,0.0,0.0,0.0,0.0,0.0,0.0,0.0,0.0,0.0,0.0,0.0,0.0,0.0,0.0,0.0,0.0,0.0,0.0,0.0,0.0,0.0,0.0,0.0,0.0,0.0,0.0,0.0,0.0,0.0,0.0,0.0,0.0,0.0,0.0,0.0,0.0,0.0,0.0,0.0,0.0,0.0,0.0,0.0,0.0,0.0,0.0,0.0,0.0,0.0,0.0,0.0,0.0,0.0,0.0,0.0,0.0,0.0,0.0,0.0,0.0,0.0,0.0,0.0,0.0,0.0,0.0,0.0,0.0,0.0,0.0,0.0,0.0,0.0,0.0,0.0,0.0,0.0,0.0,0.0,0.0,0.0,0.0,0.0,0.0,0.0,0.0,0.0,0.0,0.0,0.0,0.0,0.0,0.0,0.0,0.0,0.0,0.0,0.0,0.0,0.0,0.0,0.0,0.0,0.0,0.0,0.0,0.4916,0.466,0.1657,-0.4343,-0.5837,-0.7303,0.0,0.0,0.0,0.0,0.0,0.0,0.0,0.0,0.0,0.0,0.0,0.0,0.0,0.0,0.0,0.0,0.0,0.0,0.0,0.0,0.0,0.0,0.0,0.0,0.0,0.0,0.0,0.0,0.0,0.0,0.0,0.0,0.0,0.0,0.0,0.0,0.0,0.0,0.0,0.0,0.0,0.0,0.0,0.0,0.0,0.0,0.0,0.0,0.0,0.0,0.0,0.0,0.0,0.0,0.0,0.0,0.0,0.0,0.0,0.0,0.0,0.0,0.0,0.0,0.0,0.0,0.0,0.0,0.0,0.0,0.0,0.0,0.0,0.0,0.0,0.0,0.0,0.0,0.0,0.0,0.0,0.0,0.0,0.0,0.0,0.0,0.0,0.0,0.0,0.0,0.0,0.0,0.0,0.0,0.0,0.0,0.0,0.0,0.0,0.0,0.0,0.0,0.0,0.0,0.0,0.0,0.0,0.0,0.9822,0.5687,0.4773,0.1789,-0.3339,-0.5211,-0.7044,0.0,0.0,0.0,0.0,0.0,0.0,0.0,0.0,0.0,0.0,0.0,0.0,0.0,0.0,0.0,0.0,0.0,0.0,0.0,0.0,0.0,0.0,0.0,0.0,0.0,0.0,0.0,0.0,0.0,0.0,0.0,0.0,0.0,0.0,0.0,0.0,0.0,0.0,0.0,0.0,0.0,0.0,0.0,0.0,0.0,0.0,0.0,0.0,0.0,0.0,0.0,0.0,0.0,0.0,0.0,0.0,0.0,0.0,0.0,0.0,0.0,0.0,0.0,0.0,0.0,0.0,0.0,0.0,0.0,0.0,0.0,0.0,0.0,0.0,0.0,0.0,0.0,0.0,0.0,0.0,0.0,0.0,0.0,0.0,0.0,0.0,0.0,0.0,0.0,0.0,0.0,0.0,0.0,0.0,0.0,0.0,0.0,0.0,0.0,0.0,0.0,0.0,0.0,0.0,0.0,0.0,0.0,0.0,1.089,0.6963,0.4963,0.2161,-0.1645,-0.3804,-0.6157,0.0,0.0,0.0,0.0,0.0,0.0,0.0,0.0,0.0,0.0,0.0,0.0,0.0,0.0,0.0,0.0,0.0,0.0,0.0,0.0,0.0,0.0,0.0,0.0,0.0,0.0,0.0,0.0,0.0,0.0,0.0,0.0,0.0,0.0,0.0,0.0,0.0,0.0,0.0,0.0,0.0,0.0,0.0,0.0,0.0,0.0,0.0,0.0,0.0,0.0,0.0,0.0,0.0,0.0,0.0,0.0,0.0,0.0,0.0,0.0,0.0,0.0,0.0,0.0,0.0,0.0,0.0,0.0,0.0,0.0,0.0,0.0,0.0,0.0,0.0,0.0,0.0,0.0,0.0,0.0,0.0,0.0,0.0,0.0,0.0,0.0,0.0,0.0,0.0,0.0,0.0,0.0,0.0,0.0,0.0,0.0,0.0,0.0,0.0,0.0,0.0,0.0,0.0,0.0,0.0,0.0,0.0,0.0,1.1045,0.6677,0.4926,0.2611,-0.0353,-0.3354,-0.6077,0.0,0.0,0.0,0.0,0.0,0.0,0.0,0.0,0.0,0.0,0.0,0.0,0.0,0.0,0.0,0.0,0.0,0.0,0.0,0.0,0.0,0.0,0.0,0.0,0.0,0.0,0.0,0.0,0.0,0.0,0.0,0.0,0.0,0.0,0.0,0.0,0.0,0.0,0.0,0.0,0.0,0.0,0.0,0.0,0.0,0.0,0.0,0.0,-0.0646,0.0,0.0,0.0,0.0,0.0,0.0,0.0,0.0,0.0,0.0,0.0,0.0,0.0,0.0,0.0,0.0,0.0,0.0,0.0,0.0,0.0,0.0,0.0,0.0,0.0,0.0,0.0,0.0,0.0,0.0,0.0,0.0,0.0,0.0,0.0,0.0,0.0,0.0,0.0,0.0,0.0,0.0,0.0,0.0,0.0,0.0,0.0,0.0,0.0,0.0,0.0,0.0,0.0,0.0,0.0,0.0,0.0,0.0,0.0,1.1668,0.8403,0.6087,0.3647,0.1003,-0.1494,-0.43,0.0,0.0,0.0,0.0,0.0,0.0,0.0,0.0,0.0,0.0,0.0,0.0,0.0,0.0,0.0,0.0,0.0,0.0,0.0,0.0,0.0,0.0,0.0,0.0,0.0,0.0,0.0,0.0,0.0,0.0,0.0,0.0,0.0,0.0,0.0,0.0,0.0,0.0,0.0,0.0,0.0,0.0,0.0,0.0,0.0,0.0,0.0,0.0,0.0,0.0,0.0,0.0,0.0,0.0,0.0,0.0,0.0,0.0,0.0,0.0,0.0,0.0,0.0,0.0,0.0,0.0,0.0,0.0,0.0,0.0,0.0,0.0,0.0,0.0,0.0,0.0,0.0,0.0,0.0,0.0,0.0,0.0,0.0,0.0,0.0,0.0,0.0,0.0,0.0,0.0,0.0,0.0,0.0,0.0,0.0,0.0,0.0,0.0,0.0,0.0,0.0,0.0,0.0,0.0,0.0,0.0,0.0,1.3877,1.2296,1.0355,0.7487,0.4814,0.2353,0.0571,-0.2063,-0.5673,0.0,0.0,0.0,0.0,0.0,0.0,0.0,0.0,0.0,0.0,0.0,0.0,0.0,0.0,0.0,0.0,0.0,0.0,0.0,0.0,0.0,0.0,0.0,0.0,0.0,0.0,0.0,0.0,0.0,0.0,0.0,0.0,0.0,0.0,0.0,0.0,0.0,0.0,1.6077,1.2736,0.0,0.0,0.0,0.0,0.0,0.0,0.0,0.0,0.027,0.0,0.0,0.0,0.0,0.0,0.0,0.0,0.0,0.0,0.0,0.0,0.0,0.0,0.0,0.0,0.0,0.0,0.0,0.0,0.0,0.0,0.0,0.0,0.0,0.0,0.0,0.0,0.0,0.0,0.0,0.0,0.0,0.0,0.0,0.0,0.0,0.0,0.0,0.0,0.0,0.0,0.0,0.0,0.0,0.0,0.0,0.0,0.0,0.0,0.0,0.0,0.0,0.0,0.0,0.0,0.0,1.4885,1.3553,1.1958,1.0049,0.7394,0.5272,0.3663,0.1246,-0.0953,-0.2765,0.0,0.0,0.0,0.0,0.0,0.0,0.0,0.0,0.0,0.0,0.0,0.0,0.0,0.0,0.0,0.0,0.0,0.0,0.0,0.0,0.0,0.0,0.0,0.0,0.0,0.0,0.0,0.0,0.0,0.0,0.0,0.0,0.0,0.0,0.0,0.0,0.0,0.0,0.0,1.4241,1.2728,0.0,0.0,0.0,0.0,0.0,0.0,0.0,0.0,-0.0317,0.0,0.0,0.0,0.0,0.0,0.0,0.0,0.0,0.0,0.0,0.0,0.0,0.0,0.0,0.0,0.0,0.0,0.0,0.0,0.0,0.0,0.0,0.0,0.0,0.0,0.0,0.0,0.0,0.0,0.0,0.0,0.0,0.0,0.0,0.0,0.0,0.0,0.0,0.0,0.0,0.0,0.0,0.0,0.0,0.0,0.0,0.0,0.0,0.0,0.0,0.0,0.0,0.0,0.0,0.0,1.56,1.4432,1.324,1.2004,0.944,0.7424,0.5969,0.3446,0.1397,0.0,0.0,0.0,0.0,0.0,0.0,0.0,0.0,0.0,0.0,0.0,0.0,0.0,0.0,0.0,0.0,0.0,0.0,0.0,0.0,0.0,0.0,0.0,0.0,0.0,0.0,0.0,0.0,0.0,0.0,0.0,0.0,0.0,0.0,0.0,0.0,0.0,0.0,0.0,0.0,1.5583,1.4452,1.3007,0.0,0.0,0.0,0.0,0.0,0.0,0.4186,0.2894,0.0,0.0,0.0,0.0,0.0,0.0,0.0,0.0,0.0,0.0,0.0,0.0,0.0,0.0,0.0,0.0,0.0,0.0,0.0,0.0,0.0,0.0,0.0,0.0,0.0,0.0,0.0,0.0,0.0,0.0,0.0,0.0,0.0,0.0,0.0,0.0,0.0,0.0,0.0,0.0,0.0,0.0,0.0,0.0,0.0,0.0,0.0,0.0,0.0,0.0,0.0,0.0,0.0,0.0,0.0,1.6219,1.5146,1.4365,1.3724,1.1536,0.949,0.7726,0.5775,0.3826,0.0,0.0,0.0,0.0,0.0,0.0,0.0,0.0,0.0,0.0,0.0,0.0,0.0,0.0,0.0,0.0,0.0,0.0,0.0,0.0,0.0,0.0,0.0,0.0,0.0,0.0,0.0,0.0,0.0,0.0,0.0,0.0,0.0,0.0,0.0,0.0,0.0,0.0,0.0,0.0,0.0,1.5468,1.461,1.364,0.0,0.0,0.0,0.0,0.7431,0.6714,0.0,0.0,0.0,0.0,0.0,0.0,0.0,0.0,0.0,0.0,0.0,0.0,0.0,0.0,0.0,0.0,0.0,0.0,0.0,0.0,0.0,0.0,0.0,0.0,0.0,0.0,0.0,0.0,0.0,0.0,0.0,0.0,0.0,0.0,0.0,0.0,0.0,0.0,0.0,0.0,0.0,0.0,0.0,0.0,0.0,0.0,0.0,0.0,0.0,0.0,0.0,0.0,0.0,0.0,0.0,0.0,1.5844,1.4635,1.3825,1.3409,1.2063,1.0051,0.7486,0.7337,0.5631,0.0,0.0,0.0,0.0,0.0,0.0,0.0,0.0,0.0,0.0,0.0,0.0,0.0,0.0,0.0,0.0,0.0,0.0,0.0,0.0,0.0,0.0,0.0,0.0,0.0,0.0,0.0,0.0,0.0,0.0,0.0,0.0,0.0,0.0,0.0,0.0,0.0,0.0,0.0,0.0,0.0,1.5596,1.4327,1.3487,1.2792,0.0,0.0,1.0927,0.8588,0.7524,0.0,0.0,0.0,0.0,0.0,0.0,0.0,0.0,0.0,0.0,0.0,0.0,0.0,0.0,0.0,0.0,0.0,0.0,0.0,0.0,0.0,0.0,0.0,0.0,0.0,0.0,0.0,0.0,0.0,0.0,0.0,0.0,0.0,0.0,0.0,0.0,0.0,0.0,0.0,0.0,0.0,0.0,0.0,0.0,0.0,0.0,0.0,0.0,0.0,0.0,0.0,0.0,0.0,0.0,0.0,1.5712,1.5538,1.4895,1.4471,1.4266,1.3044,1.1752,1.0419,0.8728,0.6897,0.0,0.0,0.0,0.0,0.0,0.0,0.0,0.0,0.0,0.0,0.0,0.0,0.0,0.0,0.0,0.0,0.0,0.0,0.0,0.0,0.0,0.0,0.0,0.0,0.0,0.0,0.0,0.0,0.0,0.0,0.0,0.0,0.0,0.0,0.0,0.0,0.0,0.0,0.0,0.0,0.0,0.0,1.7341,1.7127,0.0,0.0,0.0,1.3437,1.1048,0.0,0.0,0.0,0.0,0.0,0.0,0.0,0.0,0.0,0.0,0.0,0.0,0.0,0.0,0.0,0.0,0.0,0.0,0.0,0.0,0.0,0.0,0.0,0.0,0.0,0.0,0.0,0.0,0.0,0.0,0.0,0.0,0.0,0.0,0.0,0.0,0.0,0.0,0.0,0.0,0.0,0.0,0.0,0.0,0.0,0.0,0.0,0.0,0.0,0.0,0.0,0.0,0.0,0.0,0.0,0.0,0.0,1.5391,1.5156,1.4975,1.485,1.3931,1.3159,1.2639,1.0245,0.0,0.0,0.0,0.0,0.0,0.0,0.0,0.0,0.0,0.0,0.0,0.0,0.0,0.0,0.0,0.0,0.0,0.0,0.0,0.0,0.0,0.0,0.0,0.0,0.0,0.0,0.0,1.143,0.0,0.0,0.0,0.0,0.0,0.0,0.0,0.0,0.0,0.0,0.0,0.0,0.0,0.0,1.8844,1.9684,1.9827,1.8972,0.0,0.0,1.6001,1.3762,1.2362,1.1671,0.0,0.0,0.0,0.0,0.0,0.0,0.0,0.0,0.0,0.0,0.0,0.0,0.0,0.0,0.0,0.0,0.0,0.0,0.0,0.0,0.0,0.0,0.0,0.0,0.0,0.0,0.0,0.0,0.0,0.0,0.0,0.0,0.0,0.0,0.0,0.0,0.0,0.0,0.0,0.0,0.0,0.0,0.0,0.0,0.0,0.0,0.0,0.0,0.0,0.0,0.0,0.0,0.0,0.0,0.0,1.5391,1.5156,1.4816,1.4563,1.4462,1.3734,1.2369,1.2207,1.0584,0.0,0.0,0.0,0.0,0.0,0.0,0.0,0.0,0.0,0.0,0.0,0.0,0.0,0.0,0.0,0.0,0.0,0.0,0.0,0.0,0.0,0.0,0.0,0.0,0.0,0.0,0.0,0.0,0.0,0.0,0.0,0.0,0.0,0.0,0.0,0.0,0.0,0.0,0.0,0.0,0.0,2.0051,1.9574,1.9764,1.9469,0.0,0.0,1.8055,1.6485,1.5015,1.3784,1.2972,0.0,0.0,0.0,0.0,0.0,0.0,0.0,0.0,0.0,0.0,0.0,0.0,0.0,0.0,0.0,0.0,0.0,0.0,0.0,0.0,0.0,0.0,0.0,0.0,0.0,0.0,0.0,0.0,0.0,0.0,0.0,0.0,0.0,0.0,0.0,0.0,0.0,0.0,0.0,0.0,0.0,0.0,0.0,0.0,0.0,0.0,0.0,0.0,0.0,0.0,0.0,0.0,0.0,1.5176,1.5124,1.4663,1.4275,1.3995,1.4545,1.4502,1.3729,1.321,1.2386,0.0,0.0,0.0,0.0,0.0,0.0,0.0,0.0,0.0,0.0,0.0,0.0,0.0,0.0,0.0,0.0,0.0,0.0,0.0,0.0,0.0,0.0,0.0,0.0,0.0,0.0,0.0,0.0,1.3793,1.4806,1.6206,0.0,0.0,0.0,0.0,0.0,0.0,0.0,0.0,0.0,0.0,2.2195,2.2693,2.184,0.0,0.0,1.9828,1.9281,1.8161,1.705,1.6382,1.6676,1.682,0.0,0.0,0.0,0.0,0.0,0.0,0.0,0.0,0.0,0.0,0.0,0.0,0.0,0.0,0.0,0.0,0.0,0.0,0.0,0.0,0.0,0.0,0.0,0.0,0.0,0.0,0.0,0.0,0.0,0.0,0.0,0.0,0.0,0.0,0.0,0.0,0.0,0.0,0.0,0.0,0.0,0.0,0.0,0.0,0.0,0.0,0.0,0.0,0.0,0.0,0.0,0.0,1.5387,1.5253,1.4986,1.4686,1.4332,1.5028,1.5263,1.5003,1.4341,1.3811,0.0,0.0,0.0,0.0,0.0,0.0,0.0,0.0,0.0,0.0,0.0,0.0,0.0,0.0,0.0,0.0,0.0,0.0,0.0,0.0,0.0,0.0,0.0,0.0,0.0,0.0,0.0,0.0,1.4375,1.5763,1.7897,0.0,0.0,0.0,0.0,0.0,0.0,0.0,0.0,0.0,0.0,2.3971,2.5116,2.3802,2.2792,2.2919,2.2151,2.1438,2.1099,2.0287,1.973,2.003,0.0,0.0,0.0,0.0,0.0,0.0,0.0,0.0,0.0,0.0,0.0,0.0,0.0,0.0,0.0,0.0,0.0,0.0,0.0,0.0,0.0,0.0,0.0,0.0,0.0,0.0,0.0,0.0,0.0,0.0,1.488,0.0,0.0,0.0,0.0,0.0,0.0,0.0,0.0,0.0,0.0,0.0,0.0,0.0,0.0,0.0,0.0,0.0,0.0,0.0,0.0,0.0,0.0,1.6344,1.5898,1.6354,1.6374,1.5948,1.597,1.5962,1.5929,1.5674,1.4775,1.3217,0.0,0.0,0.0,0.0,0.0,0.0,0.0,0.0,0.0,0.0,0.0,0.0,0.0,0.0,0.0,0.0,0.0,0.0,0.0,0.0,0.0,0.0,0.0,0.0,0.0,0.0,1.5691,1.6366,1.7683,0.0,0.0,0.0,0.0,0.0,0.0,0.0,0.0,0.0,0.0,2.538,2.5176,2.6322,2.5399,2.5009,2.639,2.5491,2.4924,2.5594,2.5025,2.4036,0.0,0.0,0.0,0.0,0.0,0.0,0.0,0.0,0.0,0.0,0.0,0.0,0.0,0.0,0.0,0.0,0.0,0.0,0.0,0.0,0.0,0.0,0.0,0.0,0.0,0.0,0.0,1.8067,1.7746,0.0,0.0,0.0,0.0,0.0,0.0,0.0,0.0,0.0,0.0,0.0,2.2518,2.3516,0.0,0.0,0.0,0.0,0.0,0.0,0.0,0.0,0.0,0.0,0.0,0.0,1.7326,1.7125,1.6548,1.6084,1.577,1.6326,1.6572,1.642,1.6289,1.5688,1.4402,0.0,0.0,0.0,0.0,0.0,0.0,0.0,0.0,0.0,0.0,0.0,0.0,0.0,0.0,0.0,0.0,0.0,0.0,0.0,0.0,0.0,0.0,0.0,0.0,0.0,1.7877,0.0,0.0,0.0,0.0,0.0,0.0,0.0,0.0,0.0,0.0,0.0,2.6657,2.5943,2.7212,2.8155,2.8096,2.6938,2.6214,0.0,0.0,0.0,0.0,0.0,0.0,0.0,0.0,0.0,0.0,0.0,0.0,0.0,0.0,2.6685,2.5029,2.4275,2.3917,2.4107,0.0,0.0,0.0,0.0,0.0,0.0,0.0,0.0,0.0,0.0,0.0,0.0,0.0,0.0,2.0572,0.0,2.021,0.0,0.0,0.0,0.0,0.0,0.0,0.0,0.0,2.4777,2.4708,2.4343,2.5315,2.5044,0.0,2.3278,2.2591,0.0,0.0,0.0,0.0,0.0,0.0,0.0,0.0,1.8278,1.8068,1.7295,1.6767,1.6473,1.7053,1.7243,1.7079,1.6775,1.6156,1.5206,1.3949,1.291,0.0,0.0,0.0,0.0,0.0,0.0,0.0,0.0,0.0,0.0,0.0,0.0,0.0,0.0,0.0,0.0,0.0,0.0,0.0,0.0,0.0,0.0,0.0,1.8847,0.0,0.0,0.0,0.0,0.0,0.0,0.0,0.0,0.0,2.6148,2.6729,2.7114,2.6793,2.8033,2.9207,2.9885,0.0,0.0,0.0,0.0,0.0,0.0,0.0,2.8411,2.875,2.8462,2.8147,2.8123,2.8497,2.8276,2.6753,0.0,0.0,2.6364,2.5797,2.5619,2.5583,2.5354,2.5199,2.5384,2.5205,2.5145,0.0,0.0,0.0,0.0,0.0,0.0,0.0,0.0,2.0088,2.0412,0.0,2.0071,0.0,0.0,0.0,0.0,0.0,2.3971,0.0,0.0,2.4653,2.4457,2.4832,2.4898,2.4848,2.4893,2.5547,2.54,2.4242,1.9938,0.0,0.0,0.0,0.0,0.0,0.0,1.9268,1.8797,1.8644,1.8408,1.7974,1.7954,1.7988,1.7978,1.7145,1.6348,1.5629,1.5232,1.3828,1.1219,1.214,0.0,0.0,0.0,0.0,0.0,0.0,0.0,0.0,0.0,0.0,0.0,0.0,0.0,0.0,0.0,0.0,0.0,0.0,0.0,0.0,1.7992,0.0,0.0,0.0,0.0,0.0,0.0,0.0,0.0,0.0,0.0,2.7657,2.6593,2.6601,2.8687,0.0,0.0,0.0,0.0,2.8929,3.3376,3.1888,3.0855,3.2795,3.2146,3.0842,2.9329,0.0,0.0,2.7961,2.9195,3.001,2.9485,2.8903,2.8179,2.6577,2.7283,2.8092,2.7961,2.7404,2.7415,2.7794,2.7087,2.6847,2.3036,0.0,0.0,0.0,0.0,2.204,2.229,2.2701,2.2701,2.2608,2.2402,2.1898,0.0,0.0,0.0,0.0,0.0,0.0,2.4733,2.5015,2.557,2.5681,2.5373,2.5792,2.5777,2.5366,2.4531,2.3804,2.3178,2.1182,2.1104,2.2877,0.0,0.0,0.0,0.0,2.1582,2.0122,1.9412,1.86,1.7568,1.7568,1.7836,1.8395,1.818,1.7809,1.7285,1.6632,1.5557,1.3983,1.3671,0.0,0.0,0.0,0.0,0.0,0.0,0.0,0.0,0.0,0.0,0.0,0.0,0.0,0.0,0.0,0.0,0.0,0.0,0.0,2.2928,2.1638,2.171,0.0,0.0,0.0,0.0,0.0,0.0,0.0,0.0,0.0,2.9143,2.9661,3.0116,0.0,0.0,3.2472,3.2925,3.1746,3.1026,3.1574,3.0899,0.0,3.0044,3.007,3.0146,3.033,3.0152,2.9783,2.9184,2.9492,2.9262,2.7712,2.8052,2.8026,2.6186,2.6614,2.7332,2.7292,2.6885,2.6365,2.6009,2.5537,2.5019,2.3345,2.1485,2.184,2.2355,2.2945,2.2945,2.318,2.3525,2.3993,2.4209,2.4283,2.3903,2.3918,2.4239,2.3972,0.0,0.0,0.0,2.5248,2.5489,2.5949,2.5936,2.5632,2.5766,2.5624,2.5239,2.4333,2.3676,2.3211,2.3022,2.3581,2.4724,0.0,0.0,2.4099,2.3279,2.2298,2.1134,2.0038,1.8954,1.7918,1.7402,1.7486,1.8239,1.8469,1.8532,1.8423,1.7953,1.702,1.5557,1.5067,1.5019,0.0,0.0,0.0,0.0,0.0,0.0,0.0,0.0,0.0,0.0,0.0,2.0203,2.0765,0.0,0.0,0.0,2.3942,2.5036,2.5456,2.4709,0.0,0.0,0.0,0.0,0.0,0.0,0.0,3.1894,3.0835,3.0123,3.0446,3.1194,3.1282,3.0233,3.1041,3.1874,3.2347,0.0,3.0632,3.091,3.0549,3.0122,2.9848,2.9652,2.9506,2.9218,2.9287,2.9131,2.8558,2.8618,2.8356,2.7391,2.7621,2.7795,2.65,2.6814,2.7018,2.6476,2.6099,2.5736,2.5291,2.4763,2.4178,2.3545,2.3159,2.3939,2.4036,2.375,2.383,2.3629,2.3299,2.4426,2.5304,2.6009,2.5661,2.5958,2.6671,2.5407,0.0,2.5669,2.5669,2.5912,2.6411,2.5837,2.5573,2.5511,2.4976,2.4713,2.4725,2.4675,2.4399,2.3979,2.4876,2.5197,2.4768,2.3021,2.2529,2.3271,2.2653,2.2183,2.1945,2.069,1.9554,1.8586,1.7385,1.7142,1.7922,1.8426,1.8862,1.9194,1.9212,1.8311,1.6437,1.6339,1.5755,1.4436,0.0,0.0,0.0,0.0,0.0,0.0,0.0,0.0,0.0,0.0,0.0,0.0,0.0,0.0,0.0,2.4496,0.0,2.6531,2.7058,0.0,0.0,0.0,2.8317,2.8013,2.9207,3.0093,3.0179,0.0,0.0,3.1346,3.1346,3.0676,2.8851,2.8319,2.8781,3.0666,2.9319,2.878,3.0924,3.0485,3.0176,3.0436,2.9744,2.8494,2.7026,2.7046,2.7215,2.6752,2.7031,2.7405,2.731,2.7435,2.738,2.7435,2.729,2.7041,2.5683,2.5577,2.5591,2.5425,2.4941,2.4486,2.3535,2.312,2.3315,2.3379,2.3335,2.4212,2.4475,2.4469,2.5116,2.5535,2.5678,2.4898,2.4888,2.5452,2.509,2.5445,2.628,2.628,2.6121,2.5812,2.5661,2.5398,2.4983,2.4456,2.4192,2.4167,2.3722,2.3434,2.3321,2.3572,2.4073,2.475,2.4329,2.4624,2.566,2.5499,2.4449,2.2514,2.2183,2.0838,1.8453,1.7723,1.7972,1.9142,1.9298,1.9581,2.0082,2.0093,1.9414,1.802,1.7941,1.7881,1.7748,1.8856,0.0,0.0,0.0,0.0,0.0,0.0,0.0,0.0,0.0,2.3419,2.5265,0.0,2.6634,0.0,2.7148,2.6781,2.6914,2.7039,0.0,0.0,2.9115,2.9623,2.9553,2.9653,3.0094,3.1042,3.0501,3.0043,3.0058,3.0043,2.9518,2.8094,2.9459,3.0808,3.125,3.013,2.9363,2.9799,2.9029,2.8114,2.7853,2.7096,2.6452,2.5929,2.5989,2.6004,2.5869,2.5959,2.6078,2.6078,2.6078,2.6078,2.6108,2.6078,2.5983,2.5712,2.6354,2.6729,2.5733,2.5346,2.4923,2.3658,2.3833,2.3844,2.4145,2.4585,2.4006,2.3998,2.4462,2.5088,2.5605,2.5991,2.5712,2.56,2.5676,2.5664,2.582,2.6088,2.6109,2.5774,2.5247,2.5008,2.4732,2.4431,2.3847,2.3615,2.3602,2.3258,2.2982,2.2744,2.2732,2.3058,2.369,2.3672,2.4255,2.5368,2.5871,2.5398,2.399,2.2678,2.0865,1.8563,1.7917,1.8343,1.9912,2.0179,2.0856,2.1956,2.1981,2.1536,2.0526,2.0215,1.9964,1.9831,2.1126,2.2103,0.0,0.0,0.0,0.0,0.0,0.0,0.0,0.0,0.0,0.0,0.0,2.7019,2.8115,2.794,2.7948,2.8348,2.8777,2.9055,2.9109,2.9305,2.9229,2.863,2.8124,2.8098,2.8775,2.8517,2.8274,2.8274,2.8502,2.8453,2.769,2.8858,2.9759,2.9714,2.9116,2.8618,2.8289,2.7645,2.6941,2.6258,2.5854,2.551,2.5232,2.5397,2.5525,2.5217,2.5397,2.56,2.56,2.56,2.56,2.56,2.56,2.56,2.5704,2.6183,2.6351,2.5712,2.5316,2.4796,2.3877,2.4819,2.4893,2.5491,2.6173,2.3773,2.338,2.4465,2.5032,2.5727,2.6535,2.6975,2.6901,2.6386,2.6386,2.6072,2.5511,2.5498,2.5222,2.4695,2.423,2.3954,2.3879,2.3346,2.3095,2.3095,2.3032,2.2757,2.2309,2.2292,2.2342,2.241,2.2555,2.317,2.4204,2.5185,2.5603,2.5479,2.2702,2.055,1.9194,1.8611,1.9111,2.0677,2.1199,2.2317,2.404,2.4165,2.391,2.3397,2.2862,2.217,2.1338,2.2826,2.3675,0.0,2.5064,0.0,0.0,0.0,0.0,0.0,0.0,0.0,0.0,2.585,2.6302,2.7275,2.8011,2.8799,2.9693,3.0425,3.0447,2.9325,2.8607,2.7739,2.6617,2.5944,2.56,2.56,2.6108,2.6467,2.6527,2.6986,2.7345,2.7285,2.7575,2.776,2.7515,2.7705,2.764,2.6823,2.6615,2.6426,2.5879,2.5637,2.5334,2.4903,2.516,2.5327,2.4835,2.5168,2.5553,2.5538,2.5538,2.5523,2.5469,2.5416,2.5393,2.5264,2.53,2.5375,2.5373,2.5037,2.4605,2.4585,2.484,2.5278,2.5573,2.5668,2.4408,2.4954,2.6683,2.682,2.6742,2.6522,2.6631,2.6323,2.5774,2.5762,2.546,2.4938,2.4958,2.4669,2.4155,2.4042,2.374,2.3271,2.3158,2.3095,2.307,2.2673,2.241,2.2309,2.2339,2.2583,2.2992,2.3995,2.4808,2.5444,0.0,0.0,0.0,2.2656,2.1524,2.1699,2.1922,2.2231,2.2573,2.2703,0.0,2.4861,2.4974,2.5246,2.5794,2.57,0.0,0.0,0.0,0.0,0.0,0.0,0.0,0.0,0.0,0.0,0.0,2.7044,2.6954,2.6296,2.7329,2.8326,2.9022,2.8788,2.8411,2.8114,2.7727,2.7425,2.7171,2.6596,2.6063,2.5824,2.5674,2.56,2.5615,2.5719,2.5794,2.5856,2.5914,2.6027,2.6174,2.6869,2.7226,2.6734,2.7634,2.8018,2.7372,2.6701,2.6236,2.6104,2.5616,2.526,2.5144,2.514,2.5214,2.5115,2.5147,2.5298,2.5273,2.5286,2.5136,2.4745,2.461,2.4591,2.4071,2.4014,2.4148,2.4649,2.4694,2.444,2.527,0.0,2.6331,2.6574,0.0,2.6061,2.6333,2.7225,2.6492,2.6284,2.6474,2.6197,2.5908,2.5586,2.5322,2.4921,2.4418,2.4418,2.4086,2.3577,2.3547,2.3384,2.3095,2.3095,2.3095,2.3083,2.2556,2.2302,2.2336,2.2124,2.2285,2.285,2.3527,2.396,2.4198,2.3933,2.3919,2.4142,2.3014,2.2313,2.2064,2.2287,2.2665,2.3229,2.3268,0.0,0.0,0.0,0.0,0.0,0.0,0.0,0.0,0.0,0.0,2.5269,2.6179,2.6535,2.614,2.6329,2.6378,2.6197,2.6423,2.6769,2.7134,2.7614,2.7948,2.8018,2.7962,2.7656,2.7083,2.6926,2.6886,2.6856,2.6284,2.5905,2.5874,2.558,2.54,2.5431,2.5688,2.5905,2.5905,2.6192,2.6384,2.6415,2.6907,2.7237,2.7005,2.8039,2.8581,2.7504,2.6392,2.5703,2.5691,2.547,2.5221,2.5202,2.5202,2.5202,2.5202,2.5202,2.5202,2.5202,2.5202,2.5086,2.4891,2.4776,2.4632,2.4158,2.4006,2.397,2.4146,2.4096,2.4022,2.6028,2.7287,2.7325,2.7542,2.7921,2.7381,2.7165,2.707,0.0,0.0,0.0,2.585,2.5548,2.5423,2.4908,2.4368,2.3866,2.3841,2.359,2.3108,2.3095,2.3168,2.3305,2.3305,2.3365,2.3475,2.2824,2.2556,2.2591,2.2071,2.2001,2.241,2.2655,2.2776,2.2748,2.2268,2.2482,2.339,2.3411,2.3,2.2189,2.2235,2.2729,2.3654,2.3682,2.4175,2.5204,2.5232,2.5301,2.5453,2.5453,2.5356,2.5162,2.5897,2.6363,2.649,2.7322,2.7498,2.6751,2.688,2.6567,2.5513,2.5468,2.6108,2.7657,2.7201,2.6762,2.6545,2.6819,2.6889,2.6582,2.6819,2.703,2.7014,2.6429,2.6019,2.5967,2.5563,2.5224,2.5266,2.5648,2.6019,2.5994,2.6404,2.6839,2.686,2.6986,2.7318,2.7573,2.8249,2.8437,2.7518,2.6454,2.5556,2.5486,2.554,2.5451,2.5542,2.5524,2.5468,2.5468,2.5451,2.5451,2.5561,2.5468,2.5449,2.5373,2.5335,2.5144,2.4637,2.4567,2.443,2.4027,2.3879,2.3888,2.7085,2.7317,2.7324,2.7349,2.7356,2.6851,2.6612,2.66,2.6374,2.6383,2.6461,2.585,2.5347,2.4863,2.4324,2.3803,2.3233,2.3221,2.3183,2.3108,2.3095,2.3484,2.4118,2.4147,2.4481,2.4953,2.3932,2.3425,2.3375,2.2831,2.2311,2.2038,2.2909,2.3467,2.3452,2.3385,2.3408,2.357,2.347,2.3566,2.3929,2.4333,2.4614,2.475,2.4736,2.519,2.6051,2.609,2.6453,2.7188,2.7225,2.6737,2.5632,2.6036,2.5705,2.4319,2.5072,2.5401,2.4884,2.5641,2.6247,2.6469,2.6505,2.6501,2.6451,2.5863,2.5939,2.691,2.6648,2.6548,2.6973,2.6648,2.6414,2.6342,2.5755,2.5342,2.5432,2.532,2.5278,2.5278,2.5282,2.5416,2.5519,2.5561,2.5676,2.5712,2.6525,2.7448,2.8108,2.7836,2.7479,2.7551,2.7059,2.6572,2.6385,2.647,2.6401,2.6487,2.6436,2.6367,2.635,2.635,2.6367,2.6453,2.6385,2.6263,2.5961,2.5888,2.5652,2.5221,2.507,2.5012,2.4891,2.4871,2.4652,2.7308,2.7311,2.7303,2.714,2.6851,2.66,2.6487,2.6487,2.6487,2.6487,2.6399,2.5548,2.5046,2.4725,2.3885,2.3358,2.3095,2.3095,2.3095,2.3138,2.3531,2.3943,2.4321,2.4696,2.4886,2.4818,2.4017,2.3576,2.3509,2.2978,2.2703,2.2764,2.3341,2.3595,2.3595,2.3595,2.3595,2.3588,2.3541,2.3647,2.3908,2.413,2.4247,2.4232,2.4257,2.4259,2.4326,2.4657,2.4876,2.4949,2.5264,2.5258,2.5002,2.5164,2.5181,2.4938,2.5354,2.5652,2.564,2.6105,2.647,2.6674,2.6708,2.6639,2.6495,2.6196,2.6169,2.6525,2.647,2.6494,2.6555,2.6487,2.6473,2.6491,2.618,2.6016,2.5999,2.6016,2.6016,2.6016,2.6016,2.6016,2.6016,2.6016,2.6016,2.6067,2.6595,2.7159,2.7705,2.726,2.7019,2.7585,2.7199,2.6759,2.6708,2.6708,2.6708,2.6708,2.6708,2.6708,2.6708,2.6708,2.6708,2.6708,2.6708,2.6624,2.6384,2.6384,2.6157,2.5781,2.5633,2.5559,2.5316,2.5202,2.493,2.7323,2.7293,2.719,2.6889,2.6499,2.6487,2.6487,2.6487,2.6487,2.6424,2.6172,2.5234,2.4725,2.4499,2.3547,2.3108,2.3095,2.3095,2.3198,2.3424,2.4031,2.4452,2.4796,2.5273,2.5226,2.4826,2.4177,2.378,2.3687,2.3157,2.312,2.3551,2.3595,2.3595,2.3595,2.3595,2.3595,2.358,2.346,2.3445,2.3595,2.346,2.3385,2.3385,2.34,2.3197,2.2763,2.3266,2.3374,2.2908,2.3441,2.3935,2.4313,2.4598,2.5086,2.576,2.6049,2.6314,2.6657,2.6708,2.6708,2.6708,2.6708,2.6708,2.6708,2.6708,2.6556,2.6262,2.652,2.6555,2.6329,2.6487,2.6708,2.6708,2.6708,2.6641,2.6708,2.6708,2.6708,2.6708,2.6708,2.6674,2.6708,2.6708,2.6657,2.6641,2.6708,2.6708,2.6708,2.6708,2.6979,2.7249,2.7063,2.6725,2.6708,2.6708,2.6708,2.6708,2.6708,2.6708,2.6708,2.6708,2.6708,2.6708,2.6708,2.6691,2.6708,2.6674,2.6539,2.6227,2.6139,2.6016,2.5709,2.5505,2.524,2.7297,2.7253,2.6788,2.6549,2.6487,2.6487,2.6487,2.6487,2.6487,2.6185,2.5624,2.5039,2.4531,2.4029,2.3384,2.3095,2.3095,2.3095,2.3484,2.4118,2.425,2.5007,2.6092,2.575,2.5818,2.61,2.5073,2.4428,2.4342,2.3777,2.353,2.3595,2.3595,2.3595,2.3595,2.3595,2.3595,2.358,2.3077,2.3047,2.3535,2.3077,2.2778,2.2778,2.2778,2.2763,2.2628,2.3266,2.3492,2.3319,2.3901,2.4251,2.4264,2.5218,2.567,2.5357,2.6123,2.6657,2.6708,2.6708,2.6708,2.6708,2.6708,2.6708,2.6708,2.6708,2.6708,2.6641,2.6657,2.6657,2.6641,2.6674,2.6708,2.6708,2.6708,2.6708,2.6708,2.6708,2.6708,2.6708,2.6708,2.6708,2.6708,2.6708,2.6708,2.6708,2.6708,2.6708,2.6708,2.6708,2.6708,2.6826,2.6708,2.6708,2.6708,2.6708,2.6708,2.6708,2.6708,2.6708,2.6708,2.6708,2.6708,2.6708,2.6708,2.6708,2.6708,2.6708,2.6691,2.659,2.6556,2.659,2.6487,2.6192,2.5762,2.7128,2.6813,2.6587,2.6487,2.6487,2.6487,2.6487,2.6461,2.6122,2.5636,2.5076,2.4569,2.4205,2.3966,2.3371,2.3095,2.3125,2.3603,2.3972,2.4379,2.5175,2.5919,2.6412,2.6283,2.6135,2.5935,2.5038,2.441,2.4029,2.3729,2.3595,2.3595,2.3595,2.3595,2.3595,2.3595,2.3595,2.358,2.3017,2.2823,2.2936,2.2463,2.2099,2.2099,2.2104,2.1924,2.1659,2.2359,2.2611,2.2257,2.3446,2.4299,2.4504,2.5476,2.6033,2.6087,2.6454,2.6708,2.6708,2.6708,2.6708,2.6708,2.6708,2.6708,2.6708,2.6708,2.6708,2.6708,2.6708,2.6708,2.6708,2.6708,2.6708,2.6708,2.6708,2.6708,2.6708,2.6708,2.6708,2.6708,2.6708,2.6708,2.6708,2.6708,2.6708,2.6708,2.6708,2.6708,2.6708,2.6708,2.6708,2.6708,2.6708,2.6708,2.6708,2.6708,2.6708,2.6708,2.6708,2.6708,2.6708,2.6708,2.6708,2.6708,2.6708,2.6708,2.6708,2.6708,2.6708,2.6708,2.6708,2.6708,2.6708,2.6556,2.6314,2.6864,2.6512,2.6487,2.6487,2.6487,2.6487,2.6399,2.6223,2.5774,2.5222,2.4582,2.4167,2.4028,2.3979,2.3404,2.3228,2.3484,2.4031,2.4551,2.4951,2.6027,2.6503,2.6535,2.6357,2.5974,2.533,2.4634,2.4073,2.364,2.3595,2.3595,2.3595,2.3595,2.3595,2.3595,2.3595,2.3595,2.352,2.2853,2.248,2.2461,2.1756,2.1394,2.1579,2.1575,2.1406,2.11,2.1979,2.2248,2.1736,2.3163,2.4213,2.4712,2.546,2.6132,2.6641,2.6708,2.6708,2.6708,2.6708,2.6708,2.6708,2.6708,2.6708,2.6708,2.6708,2.6708,2.6708,2.6708,2.6708,2.6708,2.6708,2.6708,2.6708,2.6708,2.6708,2.6708,2.6708,2.6708,2.6708,2.6708,2.6708,2.6708,2.6708,2.6742,2.6996,2.686,2.6826,2.6894,2.6877,2.6708,2.6708,2.6708,2.6708,2.6708,2.6708,2.6708,2.6708,2.6708,2.6708,2.6708,2.6708,2.6708,2.6708,2.6708,2.6708,2.6708,2.6708,2.6708,2.6708,2.6708,2.6708,2.6708,2.6674,2.6691,2.6512,2.6487,2.6487,2.6487,2.6487,2.6461,2.6185,2.5686,2.5573,2.4983,2.4142,2.3979,2.4106,2.4226,2.3509,2.3543,2.4176,2.4379,2.5091,2.6203,2.6484,2.6557,2.6568,2.5935,2.5307,2.4709,2.4066,2.3684,2.3595,2.3595,2.3595,2.3595,2.3595,2.3595,2.3595,2.3638,2.3616,2.3539,2.2515,2.2026,2.2159,2.1111,2.076,2.135,2.1329,2.1494,2.1874,2.2561,2.2785,2.2524,2.3276,2.3951,2.4499,2.5206,2.5948,2.6556,2.6674,2.6708,2.6708,2.6708,2.6708,2.6708,2.6708,2.6708,2.6708,2.6708,2.6708,2.6708,2.6708,2.6708,2.6708,2.6708,2.6708,2.6708,2.6708,2.6708,2.6708,2.6708,2.6708,2.6708,2.6759,2.6877,2.681,2.6708,2.7114,2.7384,2.7148,2.6962,2.7384,2.7131,2.6776,2.6759,2.6742,2.6708,2.6708,2.6708,2.6708,2.6708,2.6708,2.6708,2.6708,2.6708,2.6708,2.6708,2.6708,2.6708,2.6708,2.6708,2.6708,2.6708,2.6708,2.6708,2.6708,2.6708,2.6708,2.6487,2.6487,2.6487,2.6487,2.6449,2.6109,2.5774,2.5536,2.4858,2.4381,2.3979,2.3584,2.3735,2.4292,2.4002,2.4279,2.5021,2.5481,2.6014,2.6563,2.6982,2.699,2.6548,2.5914,2.5247,2.459,2.3902,2.3595,2.3595,2.3595,2.3595,2.3595,2.3595,2.3595,2.3659,2.3964,2.4116,2.3999,2.3092,2.2909,2.3246,2.1713,2.1196,2.2085,2.1467,2.1178,2.1342,2.1859,2.2067,2.1961,2.2949,2.3582,2.3885,2.4949,2.571,2.5998,2.6437,2.6708,2.6708,2.6708,2.6708,2.6708,2.6708,2.6708,2.6708,2.6708,2.6708,2.6708,2.6708,2.6708,2.6708,2.6708,2.6708,2.6708,2.6708,2.6708,2.6708,2.6708,2.6708,2.6776,2.708,2.7571,2.7977,2.8163,2.8061,2.7824,2.7553,2.7536,2.7587,2.7182,2.681,2.7165,2.7012,2.6708,2.6708,2.6708,2.6708,2.6708,2.6708,2.6708,2.6708,2.6708,2.6708,2.6708,2.6708,2.6708,2.6708,2.6708,2.6708,2.6708,2.6708,2.6708,2.6708,2.6708,2.6708,2.6487,2.6461,2.6285,2.621,2.6147,2.5573,2.5234,2.5021,2.4318,2.3904,2.3696,2.3542,2.3914,2.4624,2.4894,2.5412,2.6067,2.6416,2.6616,2.6878,2.7382,2.7136,2.6318,2.5809,2.5113,2.4358,2.3812,2.3595,2.3595,2.3595,2.3702,2.3873,2.3858,2.3948,2.4158,2.4491,2.4657,2.4516,2.3848,2.3688,2.3814,2.2409,2.1839,2.2347,2.1814,2.1432,2.1432,2.169,2.1823,2.1951,2.2605,2.3156,2.3494,2.4797,2.5609,2.5693,2.6302,2.6708,2.6708,2.6708,2.6708,2.6708,2.6708,2.6708,2.6708,2.6708,2.6708,2.6708,2.6708,2.6708,2.6708,2.6708,2.6708,2.6708,2.6708,2.6708,2.6725,2.6928,2.7199,2.7537,2.7926,2.8433,2.8874,2.8942,2.8839,2.8517,2.8179,2.7874,2.8027,2.7351,2.681,2.7283,2.6979,2.6742,2.6708,2.6708,2.6708,2.6708,2.6708,2.6708,2.6708,2.6708,2.6708,2.6708,2.6708,2.6708,2.6708,2.6708,2.6708,2.6708,2.6708,2.6708,2.6708,2.6708,2.6708,2.6474,2.6373,2.585,2.5624,2.5536,2.5001,2.4506,2.4142,2.4054,2.3775,2.3504,2.3985,2.4696,2.5425,2.5973,2.68,2.7214,2.6852,2.693,2.7458,2.7515,2.6851,2.5734,2.5555,2.4866,2.3744,2.3625,2.3595,2.3595,2.3681,2.3921,2.4302,2.4389,2.4612,2.5163,2.5128,2.5202,2.5064,2.4547,2.4145,2.3703,2.3077,2.2587,2.2495,2.231,2.2194,2.224,2.2254,2.2254,2.2254,2.2316,2.2665,2.3376,2.4695,2.5542,2.5625,2.6251,2.6657,2.6708,2.6708,2.6708,2.6708,2.6708,2.6708,2.6708,2.6708,2.6708,2.6708,2.6708,2.6708,2.6708,2.6776,2.6826,2.6725,2.6826,2.6843,2.6996,2.7401,2.8094,2.8739,2.8975,2.9027,2.9061,2.9247,2.9414,2.9516,2.8872,2.8314,2.8721,2.7791,2.6894,2.6877,2.686,2.6725,2.6708,2.6708,2.6708,2.6708,2.6708,2.6708,2.6708,2.6708,2.6708,2.6708,2.6708,2.6708,2.6708,2.6708,2.6708,2.6708,2.6708,2.6708,2.6708,2.6708,2.6708,2.626,2.5862,2.5674,2.5385,2.5021,2.4481,2.4142,2.4029,2.4154,2.4083,2.4073,2.4738,2.5453,2.6068,2.6431,2.6904,2.7549,2.7357,2.7382,2.7485,2.7111,2.6467,2.5666,2.5128,2.4455,2.3729,2.3595,2.3595,2.3666,2.397,2.4261,2.443,2.4792,2.5028,2.5259,2.5559,2.576,2.5699,2.5374,2.5347,2.5514,2.4053,2.3375,2.3665,2.2852,2.2313,2.2313,2.2313,2.2313,2.2313,2.2313,2.2398,2.2868,2.4036,2.4812,2.4965,2.6015,2.6708,2.6708,2.6708,2.6708,2.6708,2.6708,2.6708,2.6708,2.6708,2.6708,2.6708,2.6708,2.6708,2.6776,2.7182,2.7452,2.7452,2.7452,2.7689,2.8129,2.8467,2.8941,2.96,2.9753,2.9956,3.0345,3.0446,3.0311,3.0142,2.9616,2.9482,2.9431,2.8416,2.7807,2.8112,2.752,2.6843,2.6877,2.6928,2.6911,2.6843,2.6793,2.6708,2.6708,2.6708,2.6708,2.6708,2.6708,2.6708,2.6708,2.6708,2.6708,2.6708,2.6708,2.6708,2.6708,2.6708,2.6708,2.616,2.5586,2.5385,2.4996,2.4469,2.3916,2.3647,2.3689,2.3799,2.4031,2.4366,2.5077,2.5824,2.6443,2.6774,2.7178,2.756,2.7585,2.7465,2.7225,2.6851,2.6228,2.554,2.4619,2.4036,2.3684,2.3595,2.3687,2.3921,2.4225,2.4597,2.5008,2.5351,2.5598,2.5746,2.6086,2.6262,2.6231,2.6101,2.5981,2.5609,2.4526,2.3898,2.3898,2.2919,2.2634,2.3004,2.2868,2.2567,2.2364,2.2313,2.2398,2.275,2.3849,2.4626,2.51,2.5947,2.6708,2.6708,2.6708,2.6708,2.6708,2.6708,2.6708,2.6708,2.6708,2.6759,2.7063,2.7131,2.7232,2.7588,2.7943,2.8349,2.8652,2.8398,2.8619,2.9211,2.9397,2.9736,3.0294,3.0514,3.0768,3.1055,3.1173,3.1038,3.0598,3.0258,3.0089,2.9854,2.9025,2.8822,2.8619,2.8163,2.7604,2.7232,2.7165,2.7148,2.7029,2.6911,2.6793,2.6708,2.6708,2.6708,2.6708,2.6708,2.6708,2.6708,2.6708,2.6708,2.6708,2.6708,2.6708,2.6708,2.6708,2.6708,2.6147,2.5523,2.5001,2.4462,2.3929,2.3358,2.317,2.3163,2.3365,2.3855,2.4481,2.537,2.6,2.6669,2.7229,2.7509,2.7585,2.7585,2.7345,2.6896,2.6527,2.6048,2.5196,2.4193,2.3743,2.3702,2.3702,2.3948,2.443,2.4612,2.4973,2.5797,2.5961,2.6244,2.6471,2.6674,2.6641,2.6624,2.6556,2.5929,2.4897,2.4406,2.422,2.3663,2.2953,2.3021,2.4,2.3731,2.3122,2.2499,2.2448,2.2719,2.3359,2.4135,2.4932,2.5507,2.6285,2.6623,2.6708,2.6708,2.6708,2.6708,2.6708,2.6708,2.6708,2.6843,2.7114,2.7621,2.779,2.8129,2.8705,2.901,2.9365,2.9905,2.9567,2.9567,3.0057,3.0159,3.0446,3.0937,3.1173,3.119,3.119,3.119,3.1157,3.1038,3.0598,3.0362,2.9989,2.9414,2.8755,2.8535,2.8484,2.8332,2.7926,2.7909,2.7824,2.7385,2.7215,2.7012,2.6759,2.6708,2.6708,2.6708,2.6708,2.6708,2.6708,2.6708,2.6708,2.6708,2.6708,2.6708,2.6708,2.6708,2.6708,2.5921,2.5034,2.4838,2.4236,2.3384,2.3158,2.3095,2.3275,2.4323,2.4781,2.5342,2.6481,2.7008,2.7306,2.7484,2.7585,2.7585,2.7585,2.7555,2.7195,2.6243,2.5211,2.4313,2.3819,2.3794,2.4095,2.4137,2.4486,2.4992,2.5316,2.5672,2.5995,2.6333,2.6539,2.6708,2.6674,2.6708,2.6607,2.615,2.6065,2.5862,2.4474,2.4188,2.4882,2.3782,2.3644,2.4406,2.4321,2.3849,2.319,2.3105,2.3173,2.3545,2.4594,2.5372,2.5693,2.6268,2.6708,2.6708,2.6708,2.6708,2.6708,2.6759,2.6708,2.6725,2.7215,2.7553,2.7908,2.8298,2.8772,2.9077,2.9517,3.0108,3.0717,3.0581,3.0581,3.0784,3.0903,3.1004,3.1157,3.119,3.119,3.119,3.119,3.119,3.1157,3.0987,3.07,3.0311,3.0074,2.9533,2.9008,2.8857,2.8805,2.8721,2.8704,2.845,2.7858,2.7553,2.7351,2.7012,2.6708,2.6708,2.6708,2.6708,2.6708,2.6708,2.6708,2.6708,2.6708,2.6708,2.6708,2.6708,2.6708,2.6708,2.5598,2.4775,2.4537,2.3923,2.3145,2.3095,2.3275,2.3738,2.4509,2.5315,2.5946,2.6707,2.7306,2.7575,2.7585,2.7585,2.7585,2.7585,2.742,2.6941,2.577,2.4619,2.3819,2.3595,2.3773,2.4053,2.4307,2.4692,2.5202,2.5726,2.5936,2.5964,2.6421,2.6539,2.6234,2.6589,2.6708,2.6623,2.6251,2.6184,2.6065,2.5033,2.4847,2.5287,2.4475,2.422,2.4863,2.4966,2.4611,2.4034,2.3866,2.3985,2.4357,2.5068,2.5728,2.6015,2.6471,2.6708,2.6708,2.6708,2.6708,2.6776,2.6928,2.7131,2.7317,2.7858,2.8349,2.8838,2.9228,2.9567,2.9941,3.0328,3.0717,3.1055,3.119,3.119,3.119,3.1157,3.119,3.119,3.119,3.119,3.119,3.119,3.119,3.119,3.1173,3.0937,3.0683,3.0548,3.0277,2.9651,2.9585,2.9719,2.9567,2.9465,2.9364,2.8753,2.8146,2.7858,2.7317,2.6894,2.6776,2.6776,2.6725,2.6708,2.6708,2.6708,2.6708,2.6708,2.6708,2.6708,2.6708,2.6708,2.6708,2.5347,2.4763,2.4261,2.3746,2.3308,2.3245,2.3708,2.4337,2.4652,2.537,2.6283,2.6549,2.7111,2.7585,2.7585,2.7585,2.7585,2.7585,2.718,2.6482,2.5457,2.4455,2.3909,2.3775,2.3879,2.4074,2.4348,2.4934,2.5505,2.5926,2.5963,2.6034,2.6455,2.6353,2.6167,2.6437,2.6674,2.6657,2.6454,2.6234,2.5913,2.5439,2.5338,2.5659,2.5304,2.5118,2.5575,2.5693,2.5406,2.4762,2.4677,2.4898,2.5457,2.5592,2.6015,2.6471,2.664,2.6708,2.6708,2.6708,2.6776,2.6945,2.7452,2.7858,2.8027,2.8653,2.9296,2.9751,3.0142,3.0463,3.0852,3.1123,3.1123,3.119,3.119,3.119,3.119,3.119,3.119,3.119,3.119,3.119,3.119,3.119,3.119,3.119,3.1157,3.0954,3.0852,3.0801,3.048,3.0023,3.026,3.0784,3.0514,3.0226,3.0091,2.9751,2.901,2.8468,2.774,2.7317,2.7029,2.6894,2.6877,2.6793,2.6708,2.6708,2.6708,2.6708,2.6708,2.6708,2.6708,2.6708,2.6708,2.5732,2.4788,2.4707,2.4396,2.4093,2.4047,2.4481,2.5175,2.5755,2.6149,2.6575,2.7086,2.7408,2.7585,2.7585,2.7585,2.7585,2.7555,2.724,2.6566,2.5809,2.5023,2.4484,2.4295,2.443,2.4792,2.5373,2.5872,2.628,2.6367,2.6505,2.6455,2.6488,2.6607,2.6454,2.6505,2.6708,2.6607,2.6184,2.6167,2.6167,2.5455,2.5423,2.6218,2.6218,2.6251,2.6387,2.6454,2.6386,2.6132,2.571,2.549,2.5727,2.615,2.6471,2.6607,2.6708,2.6708,2.6708,2.6759,2.6962,2.7452,2.779,2.806,2.8755,2.9431,2.9888,3.0226,3.0615,3.0954,3.114,3.119,3.119,3.119,3.119,3.119,3.119,3.119,3.119,3.119,3.119,3.119,3.119,3.119,3.119,3.119,3.1089,3.092,3.0937,3.0987,3.0734,3.0378,3.0632,3.1038,3.0937,3.0666,3.0565,3.0446,2.9856,2.9416,2.8705,2.7977,2.7791,2.7418,2.7029,2.6911,2.6725,2.6708,2.6708,2.6708,2.6708,2.6708,2.6708,2.6708,2.686,2.5197,2.4463,2.4535,2.4455,2.4374,2.4681,2.5231,2.5892,2.6324,2.6695,2.7034,2.7458,2.7585,2.7585,2.7585,2.7585,2.7585,2.7585,2.742,2.6896,2.6108,2.5559,2.5406,2.4973,2.4855,2.5008,2.5617,2.6122,2.6367,2.6573,2.6471,2.6251,2.6522,2.642,2.6319,2.6539,2.6691,2.6674,2.6353,2.6319,2.642,2.6015,2.5743,2.6522,2.6708,2.6708,2.6674,2.6691,2.6691,2.6607,2.6336,2.6116,2.615,2.6471,2.6674,2.6708,2.6708,2.6708,2.6725,2.7029,2.7384,2.7824,2.8398,2.9024,2.9583,3.0192,3.0565,3.0683,3.0937,3.119,3.119,3.119,3.119,3.119,3.119,3.119,3.119,3.119,3.119,3.119,3.119,3.119,3.119,3.119,3.119,3.119,3.119,3.1038,3.1055,3.1089,3.1038,3.0869,3.1004,3.1176,3.1157,3.1055,3.0954,3.0835,3.0598,3.0398,3.0093,2.9347,2.8669,2.8077,2.7418,2.6894,2.6708,2.6708,2.6742,2.6708,2.6708,2.6708,2.6843,2.7097,2.7283,2.4779,2.4304,2.4498,2.4603,2.4751,2.5315,2.5987,2.6616,2.6669,2.7049,2.7484,2.7585,2.7585,2.7585,2.7585,2.7585,2.7585,2.757,2.748,2.7066,2.6283,2.6039,2.6026,2.5634,2.5294,2.4938,2.574,2.6174,2.6297,2.6437,2.6454,2.6015,2.637,2.6454,2.6099,2.6336,2.6708,2.6674,2.664,2.6607,2.6674,2.6573,2.6607,2.6657,2.6708,2.6708,2.6708,2.6708,2.6708,2.6708,2.6708,2.6708,2.6708,2.6708,2.6708,2.6708,2.6708,2.681,2.7063,2.7435,2.7841,2.806,2.921,3.0057,3.0362,3.0717,3.0987,3.1106,3.119,3.119,3.119,3.119,3.119,3.119,3.119,3.119,3.119,3.119,3.119,3.119,3.119,3.119,3.119,3.119,3.119,3.119,3.119,3.119,3.119,3.1173,3.1106,3.1089,3.1157,3.1173,3.119,3.119,3.1106,3.1072,3.0987,3.0987,3.0903,3.0159,2.9227,2.8416,2.7757,2.73,2.6979,2.6996,2.6962,2.681,2.6894,2.7097,2.7334,2.7554,2.7774,2.6061,2.5598,2.5824,2.598,2.6138,2.6256,2.6733,2.7331,2.7357,2.7458,2.7575,2.7585,2.7585,2.7585,2.7585,2.7585,2.7585,2.751,2.727,2.6864,2.6251,2.6211,2.6279,2.593,2.598,2.6533,2.6629,2.6521,2.6539,2.664,2.6573,2.6539,2.6623,2.6539,2.6522,2.6657,2.6708,2.6708,2.6708,2.6708,2.6708,2.6708,2.6708,2.6708,2.6708,2.6708,2.6708,2.6708,2.6708,2.6708,2.6708,2.6742,2.686,2.686,2.6843,2.6826,2.6911,2.7182,2.7604,2.779,2.8534,2.9362,3.0004,3.0446,3.0835,3.1089,3.1173,3.119,3.119,3.119,3.119,3.119,3.119,3.119,3.119,3.119,3.119,3.119,3.119,3.119,3.119,3.119,3.119,3.119,3.119,3.119,3.119,3.119,3.119,3.119,3.1173,3.1157,3.1173,3.119,3.119,3.119,3.1157,3.1157,3.1106,3.1106,3.0937,3.048,2.9736,2.8991,2.8433,2.8062,2.7757,2.752,2.7368,2.7351,2.7469,2.7621,2.7891,2.8213,2.862,2.5564,2.5173,2.5978,2.6406,2.6566,2.693,2.7255,2.756,2.7585,2.7585,2.7585,2.7585,2.7585,2.7585,2.7585,2.7585,2.7525,2.7195,2.6886,2.6519,2.5879,2.5852,2.6225,2.586,2.6186,2.6612,2.6741,2.6708,2.6708,2.6691,2.6708,2.6691,2.6708,2.6708,2.6708,2.6691,2.6708,2.6708,2.6708,2.6708,2.6708,2.6708,2.6725,2.6708,2.6725,2.6708,2.6708,2.6708,2.6911,2.7215,2.7283,2.7503,2.7723,2.7824,2.7689,2.7452,2.7621,2.7994,2.845,2.8721,2.9396,2.9937,3.0412,3.0801,3.1089,3.1173,3.119,3.119,3.119,3.119,3.119,3.119,3.119,3.119,3.119,3.119,3.119,3.119,3.119,3.119,3.119,3.119,3.119,3.119,3.119,3.119,3.119,3.119,3.119,3.119,3.119,3.119,3.119,3.119,3.119,3.119,3.119,3.119,3.119,3.119,3.1123,3.0734,3.0311,2.9719,2.9245,2.8874,2.857,2.8315,2.8112,2.796,2.8213,2.845,2.8636,2.8925,2.9368,2.5079,2.4798,2.6165,2.6721,2.6826,2.7331,2.7585,2.7585,2.7585,2.7585,2.7585,2.7585,2.751,2.7405,2.7375,2.7375,2.7345,2.6797,2.6557,2.6219,2.5614,2.5532,2.5857,2.594,2.6094,2.6959,2.6742,2.6708,2.6708,2.6708,2.6708,2.6708,2.6708,2.6708,2.6708,2.6708,2.6708,2.6708,2.6708,2.6725,2.6877,2.6928,2.6928,2.6962,2.7046,2.7165,2.7046,2.7283,2.7571,2.7926,2.8094,2.8315,2.8874,2.9128,2.8907,2.8466,2.8772,2.8993,2.933,2.9617,3.0006,3.0429,3.0886,3.1123,3.119,3.119,3.119,3.119,3.119,3.119,3.119,3.119,3.119,3.119,3.119,3.119,3.119,3.119,3.119,3.119,3.119,3.119,3.119,3.119,3.119,3.119,3.119,3.119,3.119,3.119,3.119,3.119,3.119,3.119,3.119,3.119,3.119,3.119,3.119,3.119,3.119,3.1106,3.0666,3.0294,3.0108,2.9754,2.945,2.9111,2.8891,2.884,2.9077,2.9247,2.9347,2.9832,3.0402,2.6024,2.6044,2.703,2.7458,2.7433,2.7534,2.7585,2.7585,2.7585,2.7585,2.7585,2.7555,2.73,2.6911,2.6791,2.6737,2.6647,2.6467,2.6171,2.5824,2.5694,2.5819,2.6289,2.6507,2.6683,2.7198,2.6911,2.6742,2.6708,2.6708,2.6708,2.6708,2.6708,2.6708,2.6708,2.6826,2.6708,2.6725,2.6759,2.708,2.7588,2.7672,2.7672,2.7824,2.8146,2.8282,2.7841,2.8146,2.8637,2.8772,2.8874,2.8908,2.9094,2.9651,2.9888,2.9685,2.9465,2.9296,2.9871,3.0159,3.0446,3.0818,3.1123,3.1173,3.119,3.119,3.119,3.119,3.119,3.119,3.119,3.119,3.119,3.119,3.119,3.119,3.119,3.119,3.119,3.119,3.119,3.119,3.119,3.119,3.119,3.119,3.119,3.119,3.119,3.119,3.119,3.119,3.119,3.119,3.119,3.119,3.119,3.119,3.119,3.119,3.119,3.119,3.119,3.0869,3.07,3.0378,2.989,2.9619,2.9551,2.9634,2.9803,2.9905,2.9989,3.06,3.1141,2.5728,2.5841,2.7085,2.7585,2.7585,2.7585,2.7585,2.7585,2.7585,2.7585,2.7585,2.7585,2.7225,2.6686,2.6602,2.6363,2.6033,2.5681,2.553,2.54,2.5425,2.558,2.604,2.6268,2.6634,2.7029,2.6911,2.6725,2.6708,2.6759,2.6708,2.6725,2.6725,2.6708,2.6911,2.7165,2.73,2.7469,2.774,2.8163,2.8399,2.8484,2.8467,2.8484,2.8857,2.8789,2.8704,2.8738,2.9264,2.9465,2.9617,2.9854,3.0178,3.0531,3.0717,3.07,3.0463,3.0446,3.0683,3.07,3.0903,3.1055,3.119,3.119,3.119,3.119,3.119,3.119,3.119,3.119,3.119,3.119,3.119,3.119,3.119,3.119,3.119,3.119,3.119,3.119,3.1258,3.141,3.1512,3.1478,3.1393,3.119,3.119,3.119,3.119,3.119,3.119,3.119,3.119,3.119,3.119,3.119,3.119,3.119,3.119,3.119,3.119,3.119,3.119,3.119,3.1021,3.0649,3.0226,3.026,3.0362,3.0429,3.0497,3.0531,3.0565,3.0736,3.1191,2.5522,2.5824,2.706,2.7585,2.7585,2.7585,2.7585,2.7585,2.7585,2.7585,2.754,2.7405,2.6956,2.6452,2.6258,2.5944,2.5322,2.4829,2.4977,2.5035,2.5019,2.5227,2.5828,2.6138,2.6535,2.6962,2.7131,2.7232,2.7368,2.7334,2.7334,2.7012,2.7402,2.7368,2.7469,2.7807,2.8112,2.8163,2.8587,2.8976,2.9211,2.9262,2.9281,2.9331,2.9397,2.9448,2.9314,2.9568,2.9956,3.0226,3.0378,3.0598,3.097,3.1021,3.1089,3.1089,3.097,3.1004,3.1072,3.1089,3.119,3.119,3.119,3.119,3.119,3.119,3.119,3.119,3.119,3.119,3.119,3.119,3.119,3.119,3.119,3.119,3.1258,3.1478,3.1664,3.1749,3.1884,3.2053,3.207,3.1918,3.1681,3.1292,3.119,3.1241,3.1275,3.136,3.1292,3.1326,3.1292,3.1275,3.1224,3.1207,3.1207,3.119,3.119,3.119,3.119,3.119,3.119,3.119,3.119,3.1038,3.07,3.0954,3.1173,3.0987,3.0869,3.1004,3.1106,3.119,3.1271,2.5783,2.651,2.728,2.7585,2.7585,2.7585,2.7585,2.7585,2.7585,2.7585,2.7525,2.7031,2.6492,2.5899,2.5779,2.545,2.4754,2.4612,2.4945,2.5216,2.5306,2.5543,2.6079,2.6602,2.7062,2.7553,2.7705,2.8129,2.862,2.8587,2.8281,2.7891,2.8247,2.8637,2.8739,2.8739,2.901,2.9044,2.9297,2.9568,2.9871,3.0023,3.004,3.0176,3.0565,3.0734,3.0106,3.0497,3.0801,3.0987,3.0954,3.0954,3.1157,3.119,3.119,3.119,3.119,3.119,3.119,3.119,3.119,3.119,3.119,3.119,3.119,3.119,3.119,3.119,3.119,3.119,3.119,3.119,3.1207,3.141,3.1512,3.1613,3.1782,3.2104,3.2256,3.2378,3.2493,3.2645,3.273,3.2594,3.2357,3.1985,3.185,3.1884,3.1732,3.1732,3.1562,3.1512,3.1444,3.1376,3.1275,3.1292,3.141,3.1292,3.119,3.119,3.119,3.119,3.119,3.119,3.119,3.119,3.119,3.119,3.119,3.119,3.119,3.119,3.119,3.119,3.137,2.6229,2.6549,2.7306,2.7585,2.7585,2.7585,2.7585,2.7585,2.7585,2.7585,2.7585,2.73,2.6851,2.6258,2.5734,2.5495,2.5106,2.4246,2.4891,2.5576,2.5947,2.6096,2.666,2.738,2.8061,2.8027,2.8263,2.8602,2.8925,2.9467,2.9533,2.9347,2.9194,2.8959,2.9061,2.9534,2.9871,3.0228,3.0313,3.0531,3.0632,3.0768,3.0784,3.0835,3.0937,3.1072,3.0835,3.1021,3.1157,3.119,3.119,3.119,3.119,3.119,3.119,3.119,3.119,3.1207,3.1241,3.1224,3.119,3.119,3.119,3.119,3.119,3.119,3.119,3.119,3.1224,3.1292,3.1224,3.1224,3.1309,3.1701,3.1955,3.209,3.2341,3.2696,3.2933,3.3072,3.3102,3.3186,3.3254,3.3288,3.3017,3.273,3.2611,3.2493,3.2341,3.229,3.2188,3.2154,3.2138,3.2002,3.1918,3.1816,3.1681,3.1461,3.1241,3.119,3.119,3.119,3.119,3.119,3.119,3.119,3.119,3.119,3.119,3.119,3.119,3.119,3.119,3.119,3.1332,2.6616,2.6878,2.7382,2.7585,2.7585,2.7585,2.7585,2.7585,2.7585,2.7585,2.7585,2.757,2.724,2.6557,2.5914,2.5615,2.527,2.468,2.5109,2.5796,2.6486,2.6768,2.7463,2.8142,2.8721,2.8584,2.8958,2.9416,2.9839,3.0226,3.0328,3.0209,2.9956,2.9805,2.9856,3.0142,3.07,3.1072,3.119,3.119,3.1173,3.1157,3.1157,3.114,3.1173,3.1173,3.1106,3.1173,3.1173,3.119,3.119,3.119,3.119,3.119,3.119,3.1207,3.1224,3.1312,3.1444,3.1292,3.1207,3.119,3.119,3.119,3.119,3.1207,3.119,3.1224,3.136,3.1512,3.1562,3.1833,3.2138,3.2577,3.2632,3.2747,3.3068,3.3406,3.3592,3.3761,3.3914,3.4218,3.4252,3.4303,3.3744,3.3406,3.3051,3.2983,3.2983,3.2966,3.3034,3.3034,3.3068,3.2899,3.2713,3.2391,3.2073,3.1785,3.1529,3.1241,3.119,3.1224,3.1224,3.119,3.119,3.119,3.119,3.119,3.119,3.119,3.119,3.119,3.119,3.119,3.119,2.693,2.7534,2.756,2.7585,2.7585,2.7585,2.7585,2.7585,2.7585,2.7585,2.7585,2.7585,2.7285,2.6632,2.6063,2.5869,2.5734,2.5061,2.5288,2.6339,2.6962,2.7461,2.8072,2.8691,2.9389,2.9903,3.0108,3.0378,3.0956,3.092,3.1021,3.1038,3.0818,3.0835,3.1089,3.1123,3.1173,3.119,3.119,3.119,3.119,3.119,3.119,3.119,3.119,3.119,3.119,3.119,3.119,3.119,3.119,3.1241,3.136,3.136,3.1376,3.1461,3.141,3.1684,3.2175,3.1579,3.1478,3.1546,3.1715,3.1596,3.1376,3.1326,3.1495,3.1782,3.1968,3.2226,3.2476,3.278,3.3051,3.3322,3.3355,3.3575,3.3914,3.4167,3.4387,3.4489,3.5064,3.5515,3.5481,3.5312,3.4624,3.41,3.3592,3.3491,3.366,3.3812,3.3964,3.4015,3.4032,3.3728,3.344,3.2814,3.2446,3.2158,3.1972,3.1782,3.1529,3.1498,3.141,3.1275,3.119,3.119,3.119,3.119,3.119,3.119,3.119,3.119,3.119,3.119,3.119,2.7382,2.7585,2.7585,2.7585,2.7585,2.7585,2.7585,2.7585,2.7585,2.7585,2.7585,2.7585,2.751,2.7091,2.6632,2.6408,2.6632,2.5719,2.5917,2.6972,2.7364,2.7651,2.8294,2.9145,2.9861,3.02,3.0514,3.0796,3.1123,3.119,3.119,3.119,3.119,3.119,3.1173,3.119,3.119,3.119,3.119,3.119,3.1207,3.1241,3.1275,3.1292,3.1309,3.1309,3.1275,3.1292,3.1292,3.1275,3.1292,3.1498,3.1819,3.1918,3.2138,3.2459,3.2628,3.2747,3.2983,3.2763,3.2696,3.2662,3.2544,3.251,3.2628,3.2645,3.2662,3.2628,3.2797,3.3,3.3152,3.3203,3.3457,3.3998,3.4218,3.4539,3.4844,3.5047,3.5211,3.5228,3.5583,3.56,3.5616,3.5616,3.5092,3.494,3.4535,3.4585,3.4754,3.4906,3.5042,3.5042,3.5013,3.4624,3.4201,3.3626,3.3224,3.2966,3.2797,3.2628,3.2341,3.2005,3.1732,3.1647,3.141,3.119,3.1292,3.1343,3.1224,3.119,3.119,3.119,3.119,3.119,3.119,2.7585,2.7585,2.7585,2.7585,2.7585,2.7585,2.7585,2.7585,2.7585,2.7585,2.7585,2.7585,2.757,2.739,2.7016,2.6971,2.742,2.6537,2.6375,2.743,2.7744,2.803,2.8618,2.9344,2.9865,3.0236,3.0599,3.0918,3.119,3.119,3.119,3.119,3.119,3.119,3.119,3.119,3.136,3.1495,3.1681,3.1816,3.1968,3.207,3.2053,3.2053,3.2019,3.1935,3.1681,3.1579,3.1579,3.1562,3.1684,3.1955,3.2425,3.2747,3.2933,3.3288,3.3677,3.3711,3.3778,3.4134,3.4134,3.4184,3.3778,3.3423,3.3389,3.3237,3.3254,3.3339,3.3643,3.3761,3.3778,3.3795,3.4252,3.481,3.4928,3.5233,3.5301,3.5481,3.5515,3.5583,3.56,3.56,3.5616,3.5616,3.5447,3.5498,3.5532,3.5616,3.5616,3.5616,3.5616,3.5566,3.5549,3.5177,3.4827,3.4472,3.41,3.3829,3.3575,3.3355,3.3051,3.2679,3.2341,3.2104,3.2171,3.2087,3.1647,3.1495,3.1376,3.1258,3.119,3.119,3.119,3.119,3.119,2.7585,2.7585,2.7585,2.7585,2.7585,2.7585,2.7585,2.7585,2.7585,2.7585,2.7585,2.7585,2.7585,2.748,2.6941,2.7046,2.7435,2.6871,2.7085,2.7529,2.7941,2.8255,2.8576,2.9062,2.9686,3.01,3.0456,3.0777,3.1131,3.119,3.119,3.119,3.119,3.1292,3.1326,3.1461,3.1701,3.1972,3.229,3.2527,3.2831,3.3085,3.3,3.2983,3.2966,3.2747,3.251,3.2344,3.2344,3.2344,3.2361,3.2797,3.3169,3.3423,3.344,3.3694,3.4269,3.4438,3.4607,3.5064,3.5228,3.5042,3.4303,3.3744,3.366,3.388,3.3964,3.4066,3.4286,3.4421,3.4523,3.4928,3.5295,3.5447,3.5447,3.5532,3.5549,3.5583,3.5583,3.56,3.56,3.5616,3.5616,3.5616,3.5616,3.5616,3.5616,3.5616,3.5616,3.5616,3.5616,3.56,3.5583,3.56,3.5318,3.4996,3.4861,3.4539,3.4167,3.3897,3.3626,3.3389,3.3119,3.3017,3.3203,3.2966,3.2192,3.1752,3.1512,3.141,3.1345,3.1275,3.1309,3.1207,3.121,2.7585,2.7585,2.7585,2.7585,2.7585,2.7585,2.7585,2.7585,2.7585,2.7585,2.7585,2.7585,2.7585,2.7555,2.739,2.745,2.745,2.745,2.7435,2.7665,2.786,2.8125,2.84,2.8709,2.9406,2.9957,3.0335,3.0555,3.1075,3.119,3.119,3.119,3.119,3.1444,3.1769,3.1972,3.2192,3.2479,3.2882,3.3271,3.3474,3.3592,3.3575,3.3592,3.3609,3.3372,3.3186,3.3085,3.3085,3.3085,3.3085,3.344,3.41,3.4218,3.4303,3.4923,3.5194,3.5301,3.5312,3.5481,3.5616,3.5616,3.5076,3.5092,3.4974,3.4822,3.481,3.4844,3.4895,3.503,3.5081,3.538,3.5616,3.5616,3.5616,3.5616,3.5616,3.5616,3.5616,3.5616,3.5616,3.5616,3.5616,3.5616,3.5616,3.5616,3.5616,3.5616,3.5616,3.5616,3.5616,3.5616,3.5616,3.5616,3.5616,3.5368,3.5346,3.5228,3.4822,3.4506,3.432,3.41,3.3897,3.3778,3.3744,3.3186,3.2395,3.2181,3.2301,3.1721,3.1565,3.1498,3.1393,3.1275,3.121,2.7585,2.7585,2.7585,2.7585,2.7585,2.7585,2.7585,2.7585,2.7585,2.7585,2.7585,2.7585,2.7585,2.7585,2.757,2.757,2.757,2.7555,2.757,2.757,2.7585,2.781,2.8042,2.8247,2.8857,2.9524,3.0064,3.0314,3.0958,3.119,3.119,3.119,3.119,3.1647,3.2141,3.2547,3.2933,3.3254,3.3609,3.3964,3.4117,3.4197,3.4264,3.4197,3.4197,3.4078,3.3846,3.3829,3.3829,3.3829,3.3846,3.4201,3.4793,3.4962,3.5013,3.5481,3.5515,3.5532,3.5532,3.5549,3.5616,3.5616,3.5616,3.5549,3.5515,3.538,3.5414,3.5447,3.5515,3.5583,3.5583,3.5616,3.5616,3.5616,3.5616,3.5616,3.5616,3.5616,3.5616,3.5616,3.5616,3.5616,3.5616,3.5616,3.5616,3.5616,3.5616,3.5616,3.5616,3.5616,3.5616,3.5616,3.5616,3.5616,3.5616,3.5616,3.5549,3.5498,3.5397,3.5131,3.4979,3.4878,3.4726,3.4438,3.4117,3.3613,3.3219,3.3308,3.3305,3.2636,3.2009,3.1896,3.1669,3.1241,3.121,2.7585,2.7585,2.7585,2.7585,2.7585,2.7585,2.7585,2.7585,2.7585,2.7585,2.7585,2.7585,2.7585,2.7585,2.7585,2.7585,2.7585,2.7585,2.7585,2.7585,2.7585,2.7685,2.766,2.771,2.8496,2.9088,2.9607,3.0123,3.0918,3.1207,3.1241,3.1241,3.136,3.1904,3.2801,3.3237,3.3744,3.4336,3.4539,3.4776,3.5228,3.5498,3.5616,3.5498,3.538,3.525,3.4759,3.4573,3.459,3.459,3.4675,3.4979,3.5245,3.5498,3.5549,3.5566,3.56,3.5616,3.5616,3.5616,3.5616,3.5616,3.5616,3.5616,3.5616,3.5616,3.5616,3.5616,3.5616,3.5616,3.5616,3.5616,3.5616,3.5616,3.5616,3.5616,3.5616,3.5616,3.5616,3.5616,3.5616,3.5616,3.5616,3.5616,3.5616,3.5616,3.5616,3.5616,3.5616,3.5616,3.5616,3.5616,3.5616,3.5616,3.5616,3.5616,3.5616,3.56,3.5616,3.5566,3.5334,3.5397,3.5566,3.516,3.4726,3.4631,3.4415,3.4391,3.4065,3.3203,3.2667,3.2419,3.2032,3.1589,3.1351,2.7585,2.7585,2.7585,2.7585,2.7585,2.7585,2.7585,2.7585,2.7585,2.7585,2.7585,2.7585,2.7585,2.7585,2.7585,2.7585,2.7585,2.7585,2.7585,2.7585,2.7585,2.7585,2.7585,2.7635,2.8319,2.9042,2.9585,3.0059,3.0972,3.1258,3.1512,3.1972,3.2073,3.2581,3.3681,3.41,3.4472,3.5148,3.525,3.5278,3.5532,3.5616,3.5616,3.5616,3.5549,3.5532,3.5267,3.5301,3.5312,3.5329,3.5329,3.5447,3.5583,3.56,3.5616,3.5616,3.5616,3.5616,3.5616,3.5616,3.5616,3.5616,3.5616,3.5616,3.5616,3.5616,3.5616,3.5616,3.5616,3.5616,3.5616,3.5616,3.5616,3.5616,3.5616,3.5616,3.5616,3.5616,3.5616,3.5616,3.5616,3.5616,3.5616,3.5616,3.5616,3.5616,3.5616,3.5616,3.5616,3.5616,3.5616,3.5616,3.5616,3.5616,3.5616,3.5616,3.5616,3.5616,3.5616,3.5616,3.5616,3.5616,3.56,3.5583,3.5391,3.5283,3.5237,3.5292,3.4814,3.3948,3.3569,3.3406,3.2788,3.2262,3.1918,2.7345,2.7585,2.7585,2.7585,2.7585,2.7585,2.7585,2.7585,2.7585,2.7585,2.7585,2.7585,2.7585,2.7585,2.7585,2.7585,2.7585,2.7585,2.7585,2.7585,2.7585,2.7585,2.7585,2.761,2.8149,2.8857,2.9629,3.0309,3.1119,3.1633,3.2005,3.2395,3.2649,3.3339,3.4404,3.4556,3.4895,3.5532,3.56,3.5616,3.5616,3.5616,3.5616,3.5616,3.5616,3.5616,3.5616,3.5616,3.56,3.56,3.5549,3.5549,3.56,3.56,3.5616,3.5616,3.5616,3.5616,3.5616,3.5616,3.5616,3.5616,3.5616,3.5616,3.5616,3.5616,3.5616,3.5616,3.5616,3.5616,3.5616,3.5616,3.5616,3.5616,3.5616,3.5616,3.5616,3.5616,3.5616,3.5616,3.5616,3.5616,3.5616,3.5616,3.5616,3.5616,3.5616,3.5616,3.5616,3.5616,3.5616,3.5616,3.5616,3.5616,3.5616,3.5616,3.5616,3.5616,3.5616,3.5616,3.5616,3.5616,3.56,3.5627,3.5732,3.5925,3.5916,3.6052,3.5652,3.4849,3.4599,3.4449,3.374,3.3155,3.3195,2.6956,2.7435,2.7465,2.7525,2.7585,2.7585,2.7585,2.7585,2.7585,2.7585,2.7585,2.7585,2.7585,2.7585,2.7585,2.7585,2.7585,2.7585,2.7585,2.7585,2.7585,2.7585,2.7585,2.7635,2.8091,2.8881,2.9851,3.0545,3.1261,3.1938,3.253,3.2682,3.322,3.3931,3.4404,3.4709,3.5064,3.5464,3.5616,3.5616,3.5616,3.5616,3.5616,3.5616,3.5616,3.5616,3.5616,3.5616,3.5616,3.5616,3.5616,3.5616,3.5616,3.5616,3.5616,3.5616,3.5616,3.5616,3.5616,3.5616,3.5616,3.5616,3.5616,3.5616,3.5616,3.5616,3.5616,3.5616,3.5616,3.5633,3.5633,3.5808,3.5808,3.587,3.587,3.5853,3.5853,3.5802,3.5785,3.5752,3.5633,3.5633,3.5616,3.5616,3.5616,3.5616,3.5616,3.5616,3.5616,3.5616,3.5616,3.5616,3.5616,3.5616,3.5616,3.5616,3.5616,3.5616,3.5616,3.5616,3.5616,3.5616,3.5622,3.5672,3.5825,3.6205,3.6616,3.6814,3.6301,3.5762,3.5397,3.5157,3.4809,3.4393,3.4756,2.6662,2.6806,2.6782,2.7106,2.754,2.7585,2.7585,2.7585,2.7585,2.7585,2.7585,2.7585,2.7585,2.7585,2.7585,2.7585,2.7585,2.7585,2.7585,2.7585,2.7585,2.7585,2.7645,2.776,2.7999,2.903,3.0264,3.1133,3.1846,3.2714,3.3474,3.3931,3.4066,3.4641,3.5228,3.5402,3.5402,3.5616,3.5616,3.5616,3.5616,3.5616,3.5616,3.5616,3.5616,3.5616,3.5616,3.5616,3.5616,3.5616,3.5616,3.5616,3.5616,3.5616,3.5616,3.5616,3.5616,3.5616,3.5616,3.5616,3.5616,3.5616,3.5616,3.5616,3.5616,3.5616,3.5616,3.5633,3.5667,3.5735,3.5836,3.6299,3.6434,3.6721,3.684,3.6755,3.6705,3.6535,3.64,3.6113,3.5752,3.5701,3.5616,3.5616,3.5616,3.5616,3.5616,3.5616,3.5616,3.5616,3.5616,3.5616,3.5616,3.5616,3.5616,3.5616,3.5616,3.5616,3.5644,3.5689,3.5689,3.5622,3.5644,3.5832,3.6182,3.6586,3.6981,3.7451,3.7197,3.6695,3.6144,3.5791,3.5561,3.5528,3.5795]}]]